[[{"header":{"parameterUnit":"m.s-1","parameterCategory":1,"la1":31.0,"la2":29.5877,"lo1":-88.7671,"lo2":-86.6584,"dy":0.0162,"dx":0.0185,"nx":115,"ny":88,"refTime":"2023-10-29T12:00:00:Z","depth":0,"parameterNumber":2,"parameterNumberName":"U-component_of_WINDS"},"data":[0.0,0.0,0.0,0.0,0.0,0.0,0.0,0.0,0.0,0.0,0.0,0.0,0.0,0.0,0.0,0.0,0.0,0.0,0.0,0.0,0.0,0.0,0.0,0.0,0.0,0.0,0.0,0.0,0.0,0.0,0.0,0.0,0.0,0.0,0.0,0.0,0.0,0.0,0.0,0.0,0.0,0.0,0.0,0.0,0.0,0.0,0.0,0.0,0.0,0.0,0.0,0.0,0.0,0.0,0.0,0.0,0.0,0.0,0.0,0.0,0.0,0.0,0.0,0.0,0.0,0.0,0.0,0.0,0.0,0.0,0.0,0.0,0.0,0.0,0.0,0.0,0.0,0.0,0.0,0.0,0.0,0.0,0.0,0.0,0.0,0.0,0.0,0.0,0.0,0.0,0.0,0.0,0.0,0.0,0.0,0.0,0.0,0.0,0.0,0.0,0.0,0.0,0.0,0.0,0.0,0.0,0.0,0.0,0.0,0.0,0.0,0.0,0.0,0.0,0.0,0.0,0.0,0.0,0.0,0.0,0.0,0.0,0.0,0.0,0.0,0.0,0.0,0.0,0.0,0.0,0.0,0.0,0.0,0.0,0.0,0.0,0.0,0.0,0.0,0.0,0.0,0.0,0.0,0.0,0.0,0.0,0.0,0.0,0.0,0.0,0.0,0.0,0.0,0.0,0.0,0.0,0.0,0.0,0.0,0.0,0.0,0.0,0.0,0.0,0.0,0.0,0.0,0.0,0.0,0.0,0.0,0.0,0.0,0.0,0.0,0.0,0.0,0.0,0.0,0.0,0.0,0.0,0.0,0.0,0.0,0.0,0.0,0.0,0.0,0.0,0.0,0.0,0.0,0.0,0.0,0.0,0.0,0.0,0.0,0.0,0.0,0.0,0.0,0.0,0.0,0.0,0.0,0.0,0.0,0.0,0.0,0.0,0.0,0.0,0.0,0.0,0.0,0.0,0.0,0.0,0.0,0.0,0.0,0.0,0.0,0.0,0.0,0.0,0.0,0.0,0.0,0.0,0.0,0.0,0.0,0.0,0.0,0.0,0.0,0.0,0.0,0.0,0.0,0.0,0.0,0.0,0.0,0.0,0.0,0.0,0.0,0.0,0.0,0.0,0.0,0.0,0.0,0.0,0.0,0.0,0.0,0.0,0.0,0.0,0.0,0.0,0.0,0.0,0.0,0.0,0.0,0.0,0.0,0.0,0.0,0.0,0.0,0.0,0.0,0.0,0.0,0.0,0.0,0.0,0.0,0.0,0.0,0.0,0.0,0.0,0.0,0.0,0.0,0.0,0.0,0.0,0.0,0.0,0.0,0.0,0.0,0.0,0.0,0.0,0.0,0.0,0.0,0.0,0.0,0.0,0.0,0.0,0.0,0.0,0.0,0.0,0.0,0.0,0.0,0.0,0.0,0.0,0.0,0.0,0.0,0.0,0.0,0.0,0.0,0.0,0.0,0.0,0.0,0.0,0.0,0.0,0.0,0.0,0.0,0.0,0.0,0.0,0.0,0.0,0.0,0.0,0.0,0.0,0.0,0.0,0.0,0.0,0.0,0.0,0.0,0.0,0.0,0.0,0.0,0.0,0.0,0.0,0.0,0.0,0.0,0.0,0.0,0.0,0.0,0.0,0.0,0.0,0.0,0.0,0.0,0.0,0.0,0.0,0.0,0.0,0.0,0.0,0.0,0.0,0.0,0.0,0.0,0.0,0.0,0.0,0.0,0.0,0.0,0.0,0.0,0.0,0.0,0.0,0.0,0.0,0.0,0.0,0.0,0.0,0.0,0.0,0.0,0.0,0.0,0.0,0.0,0.0,0.0,0.0,0.0,0.0,0.0,0.0,0.0,0.0,0.0,0.0,0.0,0.0,0.0,0.0,0.0,0.0,0.0,0.0,0.0,0.0,0.0,0.0,0.0,0.0,0.0,0.0,0.0,0.0,0.0,0.0,0.0,0.0,0.0,0.0,0.0,0.0,0.0,0.0,0.0,0.0,0.0,0.0,0.0,0.0,0.0,0.0,0.0,0.0,0.0,0.0,0.0,0.0,0.0,0.0,0.0,0.0,0.0,0.0,0.0,0.0,0.0,0.0,0.0,0.0,0.0,0.0,0.0,0.0,0.0,0.0,0.0,0.0,0.0,0.0,0.0,0.0,0.0,0.0,0.0,0.0,0.0,0.0,0.0,0.0,0.0,0.0,0.0,0.0,0.0,0.0,0.0,0.0,0.0,0.0,0.0,0.0,0.0,0.0,0.0,0.0,0.0,0.0,0.0,0.0,0.0,0.0,0.0,0.0,0.0,0.0,0.0,0.0,0.0,0.0,0.0,0.0,0.0,0.0,0.0,0.0,0.0,0.0,0.0,0.0,0.0,0.0,0.0,0.0,0.0,0.0,0.0,0.0,0.0,0.0,0.0,0.0,0.0,0.0,0.0,0.0,0.0,0.0,0.0,0.0,0.0,0.0,0.0,0.0,0.0,0.0,0.0,0.0,0.0,0.0,0.0,0.0,0.0,0.0,0.0,0.0,0.0,0.0,0.0,0.0,0.0,0.0,0.0,0.0,0.0,0.0,0.0,0.0,0.0,0.0,0.0,0.0,0.0,0.0,0.0,0.0,0.0,0.0,0.0,0.0,0.0,0.0,0.0,0.0,0.0,0.0,0.0,0.0,0.0,0.0,0.0,0.0,0.0,0.0,0.0,0.0,0.0,0.0,0.0,0.0,0.0,0.0,0.0,0.0,0.0,0.0,0.0,0.0,0.0,0.0,0.0,0.0,0.0,0.0,0.0,0.0,0.0,0.0,0.0,0.0,0.0,0.0,0.0,0.0,0.0,0.0,0.0,0.0,0.0,0.0,0.0,0.0,0.0,0.0,0.0,0.0,0.0,0.0,0.0,0.0,0.0,0.0,0.0,0.0,0.0,0.0,0.0,0.0,0.0,0.0,0.0,0.0,0.0,0.0,0.0,0.0,0.0,0.0,0.0,0.0,0.0,0.0,0.0,0.0,0.0,0.0,0.0,0.0,0.0,0.0,0.0,0.0,0.0,0.0,0.0,0.0,0.0,0.0,0.0,0.0,0.0,0.0,0.0,0.0,0.0,0.0,0.0,0.0,0.0,0.0,0.0,0.0,0.0,0.0,0.0,0.0,0.0,0.0,0.0,0.0,0.0,0.0,0.0,0.0,0.0,0.0,0.0,0.0,0.0,0.0,0.0,0.0,0.0,0.0,0.0,0.0,0.0,0.0,0.0,0.0,0.0,0.0,0.0,0.0,0.0,0.0,0.0,0.0,0.0,0.0,0.0,0.0,0.0,0.0,0.0,0.0,0.0,0.0,0.0,0.0,0.0,0.0,0.0,0.0,0.0,0.0,0.0,0.0,0.0,0.0,0.0,0.0,0.0,0.0,0.0,0.0,0.0,0.0,0.0,0.0,0.0,0.0,0.0,0.0,0.0,0.0,0.0,0.0,0.0,0.0,0.0,0.0,0.0,0.0,0.0,0.0,0.0,0.0,0.0,0.0,0.0,0.0,0.0,0.0,0.0,0.0,0.0,0.0,0.0,0.0,0.0,0.0,0.0,0.0,0.0,0.0,0.0,0.0,0.0,0.0,0.0,0.0,0.0,0.0,0.0,0.0,0.0,0.0,0.0,0.0,0.0,0.0,0.0,0.0,0.0,0.0,0.0,0.0,0.0,0.0,0.0,0.0,0.0,0.0,0.0,0.0,0.0,0.0,0.0,0.0,0.0,0.0,0.0,0.0,0.0,0.0,0.0,0.0,0.0,0.0,0.0,0.0,0.0,0.0,0.0,0.0,0.0,0.0,0.0,0.0,0.0,0.0,0.0,0.0,0.0,0.0,0.0,0.0,0.0,0.0,0.0,0.0,0.0,0.0,0.0,0.0,0.0,0.0,0.0,0.0,0.0,0.0,0.0,0.0,0.0,0.0,0.0,0.0,0.0,0.0,0.0,0.0,0.0,0.0,0.0,0.0,0.0,0.0,0.0,0.0,0.0,0.0,0.0,0.0,0.0,0.0,0.0,0.0,0.0,0.0,0.0,0.0,0.0,0.0,0.0,0.0,0.0,0.0,0.0,0.0,0.0,0.0,0.0,0.0,0.0,0.0,0.0,0.0,0.0,0.0,0.0,0.0,0.0,0.0,0.0,0.0,0.0,0.0,0.0,0.0,0.0,0.0,0.0,0.0,0.0,0.0,0.0,0.0,0.0,0.0,0.0,0.0,0.0,0.0,0.0,0.0,0.0,0.0,0.0,0.0,7.086,0.0,0.0,0.0,0.0,0.0,0.0,0.0,0.0,0.0,0.0,0.0,0.0,0.0,0.0,0.0,0.0,0.0,0.0,0.0,0.0,0.0,0.0,0.0,0.0,0.0,0.0,0.0,0.0,0.0,0.0,0.0,0.0,0.0,0.0,0.0,0.0,0.0,0.0,0.0,0.0,0.0,0.0,0.0,0.0,0.0,0.0,0.0,0.0,0.0,0.0,0.0,0.0,0.0,0.0,0.0,0.0,0.0,0.0,0.0,0.0,0.0,0.0,0.0,0.0,0.0,0.0,0.0,0.0,0.0,0.0,0.0,0.0,0.0,0.0,0.0,0.0,0.0,0.0,0.0,0.0,0.0,0.0,0.0,0.0,0.0,0.0,0.0,0.0,0.0,0.0,0.0,0.0,0.0,0.0,0.0,0.0,0.0,0.0,0.0,0.0,0.0,0.0,0.0,0.0,0.0,0.0,0.0,0.0,0.0,0.0,7.4286,7.3097,7.2195,7.1503,7.0937,0.0,0.0,0.0,0.0,0.0,0.0,0.0,0.0,0.0,0.0,0.0,0.0,0.0,0.0,0.0,0.0,0.0,0.0,0.0,0.0,0.0,0.0,0.0,0.0,0.0,0.0,0.0,0.0,0.0,0.0,0.0,0.0,0.0,0.0,0.0,0.0,0.0,0.0,0.0,0.0,0.0,0.0,0.0,0.0,0.0,0.0,0.0,0.0,0.0,0.0,0.0,0.0,0.0,0.0,0.0,0.0,0.0,0.0,0.0,0.0,0.0,0.0,0.0,0.0,0.0,0.0,0.0,0.0,0.0,0.0,0.0,0.0,0.0,0.0,0.0,0.0,0.0,0.0,0.0,0.0,0.0,0.0,0.0,0.0,0.0,0.0,0.0,0.0,0.0,0.0,0.0,0.0,0.0,0.0,0.0,0.0,0.0,0.0,0.0,0.0,0.0,0.0,0.0,0.0,0.0,0.0,0.0,0.0,0.0,0.0,0.0,0.0,7.2971,7.1964,7.0937,0.0,0.0,0.0,0.0,0.0,0.0,0.0,0.0,0.0,0.0,0.0,0.0,0.0,0.0,0.0,0.0,0.0,0.0,0.0,0.0,0.0,0.0,0.0,0.0,0.0,0.0,0.0,0.0,0.0,0.0,0.0,0.0,0.0,0.0,0.0,0.0,0.0,0.0,0.0,0.0,0.0,0.0,0.0,0.0,0.0,0.0,0.0,0.0,0.0,0.0,0.0,0.0,0.0,0.0,0.0,0.0,0.0,0.0,0.0,0.0,0.0,0.0,0.0,0.0,0.0,0.0,0.0,0.0,0.0,0.0,0.0,0.0,0.0,0.0,0.0,0.0,0.0,0.0,0.0,0.0,0.0,0.0,0.0,0.0,0.0,0.0,0.0,0.0,0.0,0.0,0.0,0.0,0.0,0.0,0.0,0.0,0.0,0.0,0.0,0.0,0.0,0.0,0.0,0.0,0.0,0.0,0.0,0.0,0.0,0.0,7.5154,7.4819,7.314,0.0,7.0937,0.0,0.0,0.0,0.0,0.0,0.0,0.0,0.0,0.0,0.0,0.0,0.0,0.0,0.0,0.0,0.0,0.0,0.0,0.0,0.0,0.0,0.0,0.0,0.0,0.0,0.0,0.0,0.0,0.0,0.0,0.0,0.0,0.0,0.0,0.0,0.0,0.0,0.0,0.0,0.0,0.0,0.0,0.0,0.0,0.0,0.0,0.0,0.0,0.0,0.0,0.0,0.0,0.0,0.0,0.0,0.0,0.0,0.0,0.0,0.0,0.0,0.0,0.0,0.0,0.0,0.0,0.0,0.0,0.0,0.0,0.0,0.0,0.0,0.0,0.0,0.0,0.0,0.0,0.0,0.0,0.0,0.0,0.0,0.0,0.0,0.0,0.0,0.0,0.0,0.0,0.0,0.0,0.0,0.0,0.0,0.0,0.0,0.0,0.0,0.0,0.0,0.0,0.0,0.0,0.0,0.0,0.0,0.0,0.0,0.0,7.5928,7.5003,7.3278,7.2118,0.0,0.0,0.0,0.0,0.0,0.0,0.0,0.0,0.0,0.0,0.0,0.0,0.0,0.0,0.0,0.0,0.0,0.0,0.0,0.0,0.0,0.0,0.0,0.0,0.0,0.0,0.0,0.0,0.0,0.0,0.0,0.0,0.0,0.0,0.0,0.0,0.0,0.0,0.0,0.0,0.0,0.0,0.0,0.0,0.0,0.0,0.0,0.0,0.0,0.0,0.0,0.0,0.0,0.0,0.0,0.0,0.0,0.0,0.0,0.0,0.0,0.0,0.0,0.0,0.0,0.0,0.0,0.0,0.0,0.0,0.0,0.0,0.0,0.0,0.0,0.0,0.0,0.0,0.0,0.0,0.0,0.0,0.0,0.0,0.0,0.0,0.0,0.0,0.0,0.0,0.0,0.0,0.0,0.0,0.0,0.0,0.0,0.0,0.0,0.0,0.0,0.0,0.0,0.0,0.0,0.0,0.0,0.0,0.0,0.0,7.688,7.6415,7.5098,7.3896,7.297,7.2351,0.0,0.0,0.0,0.0,0.0,0.0,0.0,0.0,0.0,0.0,0.0,0.0,0.0,0.0,0.0,0.0,0.0,0.0,0.0,0.0,0.0,0.0,0.0,0.0,0.0,0.0,0.0,0.0,0.0,0.0,0.0,0.0,0.0,0.0,0.0,0.0,0.0,0.0,0.0,0.0,0.0,0.0,0.0,0.0,0.0,0.0,0.0,0.0,0.0,0.0,0.0,0.0,0.0,0.0,0.0,0.0,0.0,0.0,0.0,0.0,0.0,0.0,0.0,0.0,0.0,0.0,0.0,0.0,0.0,0.0,0.0,0.0,0.0,0.0,0.0,0.0,0.0,0.0,0.0,0.0,0.0,0.0,0.0,0.0,0.0,0.0,0.0,0.0,0.0,0.0,0.0,0.0,0.0,0.0,0.0,0.0,0.0,0.0,0.0,0.0,0.0,0.0,0.0,0.0,0.0,0.0,0.0,0.0,7.69,7.6824,7.6372,7.5374,7.5232,7.4411,0.0,0.0,0.0,0.0,0.0,0.0,0.0,0.0,0.0,0.0,0.0,0.0,0.0,0.0,0.0,0.0,0.0,0.0,0.0,0.0,0.0,0.0,0.0,0.0,0.0,0.0,0.0,0.0,0.0,0.0,0.0,0.0,0.0,0.0,0.0,0.0,0.0,0.0,0.0,0.0,0.0,0.0,0.0,0.0,0.0,0.0,0.0,0.0,0.0,0.0,0.0,0.0,0.0,0.0,0.0,0.0,0.0,0.0,0.0,0.0,0.0,0.0,0.0,0.0,0.0,0.0,0.0,0.0,0.0,0.0,0.0,0.0,0.0,0.0,0.0,0.0,0.0,0.0,0.0,0.0,0.0,0.0,0.0,0.0,0.0,0.0,0.0,0.0,0.0,0.0,0.0,0.0,0.0,0.0,0.0,0.0,0.0,0.0,0.0,0.0,0.0,0.0,0.0,0.0,0.0,0.0,0.0,0.0,0.0,7.8468,7.7946,7.7467,7.7056,7.6076,7.5158,0.0,0.0,0.0,0.0,0.0,0.0,0.0,0.0,0.0,0.0,0.0,0.0,0.0,0.0,0.0,0.0,0.0,0.0,0.0,0.0,0.0,0.0,0.0,0.0,0.0,0.0,0.0,0.0,0.0,0.0,0.0,0.0,0.0,0.0,0.0,0.0,0.0,0.0,0.0,0.0,0.0,0.0,0.0,0.0,0.0,0.0,0.0,0.0,0.0,0.0,0.0,0.0,0.0,0.0,0.0,0.0,0.0,0.0,0.0,0.0,0.0,0.0,0.0,0.0,0.0,0.0,0.0,0.0,0.0,0.0,0.0,0.0,0.0,0.0,0.0,0.0,0.0,0.0,0.0,0.0,0.0,0.0,0.0,0.0,0.0,0.0,0.0,0.0,0.0,0.0,0.0,0.0,0.0,0.0,0.0,0.0,0.0,0.0,0.0,0.0,0.0,0.0,0.0,0.0,0.0,0.0,0.0,0.0,0.0,7.9483,0.0,7.8624,7.8546,7.7296,7.6281,0.0,0.0,0.0,0.0,0.0,0.0,0.0,0.0,0.0,0.0,0.0,0.0,0.0,0.0,0.0,0.0,0.0,0.0,0.0,0.0,0.0,0.0,0.0,0.0,0.0,0.0,0.0,0.0,0.0,0.0,0.0,0.0,0.0,0.0,0.0,0.0,0.0,0.0,0.0,0.0,0.0,0.0,0.0,0.0,0.0,0.0,0.0,0.0,0.0,0.0,0.0,0.0,0.0,0.0,0.0,0.0,0.0,0.0,0.0,0.0,0.0,0.0,0.0,0.0,0.0,0.0,0.0,0.0,0.0,0.0,0.0,0.0,0.0,0.0,0.0,0.0,0.0,0.0,0.0,0.0,0.0,0.0,0.0,0.0,0.0,0.0,0.0,0.0,0.0,0.0,0.0,0.0,0.0,0.0,0.0,0.0,0.0,0.0,0.0,0.0,0.0,0.0,0.0,0.0,0.0,0.0,0.0,0.0,8.0654,7.9789,7.9789,7.9795,7.9717,7.8858,7.7999,0.0,0.0,0.0,0.0,0.0,0.0,0.0,0.0,0.0,0.0,0.0,0.0,0.0,0.0,0.0,0.0,0.0,0.0,0.0,0.0,0.0,0.0,0.0,0.0,0.0,0.0,0.0,0.0,0.0,0.0,0.0,0.0,0.0,0.0,0.0,0.0,0.0,0.0,0.0,0.0,0.0,0.0,0.0,0.0,0.0,0.0,0.0,0.0,0.0,0.0,0.0,0.0,0.0,0.0,0.0,0.0,0.0,0.0,0.0,0.0,0.0,0.0,0.0,0.0,0.0,0.0,0.0,0.0,0.0,0.0,0.0,0.0,0.0,0.0,0.0,0.0,0.0,0.0,0.0,0.0,0.0,0.0,0.0,0.0,0.0,0.0,0.0,0.0,0.0,0.0,0.0,0.0,0.0,0.0,0.0,0.0,0.0,0.0,0.0,0.0,0.0,0.0,0.0,0.0,0.0,0.0,0.0,0.0,0.0,8.2371,8.1747,8.1513,8.1435,8.0107,7.8858,0.0,0.0,0.0,0.0,0.0,0.0,0.0,0.0,0.0,0.0,0.0,0.0,0.0,0.0,0.0,0.0,0.0,0.0,0.0,0.0,0.0,0.0,0.0,0.0,0.0,0.0,0.0,0.0,0.0,0.0,0.0,0.0,0.0,0.0,0.0,0.0,0.0,0.0,0.0,0.0,0.0,0.0,0.0,0.0,0.0,0.0,0.0,0.0,0.0,0.0,0.0,0.0,0.0,0.0,0.0,0.0,0.0,0.0,0.0,0.0,0.0,0.0,0.0,0.0,0.0,0.0,0.0,0.0,0.0,0.0,0.0,0.0,0.0,0.0,0.0,0.0,0.0,0.0,0.0,0.0,0.0,0.0,0.0,0.0,0.0,0.0,0.0,0.0,0.0,0.0,0.0,0.0,0.0,0.0,0.0,0.0,0.0,0.0,0.0,0.0,0.0,0.0,0.0,0.0,0.0,0.0,0.0,0.0,0.0,8.4948,8.3855,8.323,8.323,8.1591,8.042,7.9873,0.0,0.0,0.0,0.0,0.0,0.0,0.0,0.0,0.0,0.0,0.0,0.0,0.0,0.0,0.0,0.0,0.0,0.0,0.0,0.0,0.0,0.0,0.0,0.0,0.0,0.0,0.0,0.0,0.0,0.0,0.0,0.0,0.0,0.0,0.0,0.0,0.0,0.0,0.0,0.0,0.0,0.0,0.0,0.0,0.0,0.0,0.0,0.0,0.0,0.0,0.0,0.0,0.0,0.0,0.0,0.0,0.0,0.0,0.0,0.0,0.0,0.0,0.0,0.0,0.0,0.0,0.0,0.0,0.0,0.0,0.0,0.0,0.0,0.0,0.0,0.0,0.0,0.0,0.0,0.0,0.0,0.0,0.0,0.0,0.0,0.0,0.0,0.0,0.0,0.0,0.0,0.0,0.0,0.0,0.0,0.0,0.0,0.0,0.0,0.0,0.0,0.0,0.0,0.0,0.0,0.0,0.0,0.0,8.7603,8.5956,8.5026,8.4948,8.3386,8.245,0.0,0.0,0.0,0.0,0.0,0.0,0.0,0.0,0.0,0.0,0.0,0.0,0.0,0.0,0.0,0.0,0.0,0.0,0.0,0.0,0.0,0.0,0.0,0.0,0.0,0.0,0.0,0.0,0.0,0.0,0.0,0.0,0.0,0.0,0.0,0.0,0.0,0.0,0.0,0.0,0.0,0.0,0.0,0.0,0.0,0.0,0.0,0.0,0.0,0.0,0.0,0.0,0.0,0.0,0.0,0.0,0.0,0.0,0.0,0.0,0.0,0.0,0.0,0.0,0.0,0.0,0.0,0.0,0.0,0.0,0.0,0.0,0.0,0.0,0.0,0.0,0.0,0.0,0.0,0.0,0.0,0.0,0.0,0.0,0.0,0.0,0.0,0.0,0.0,0.0,0.0,0.0,0.0,0.0,0.0,0.0,0.0,0.0,0.0,0.0,0.0,0.0,0.0,0.0,0.0,0.0,0.0,0.0,0.0,9.0179,8.9164,8.8071,8.6744,8.5651,8.4245,0.0,0.0,0.0,0.0,0.0,0.0,0.0,0.0,0.0,0.0,0.0,0.0,0.0,0.0,0.0,0.0,0.0,0.0,0.0,0.0,0.0,0.0,0.0,0.0,0.0,0.0,0.0,0.0,0.0,0.0,0.0,0.0,0.0,0.0,0.0,0.0,0.0,0.0,0.0,0.0,0.0,0.0,0.0,0.0,0.0,0.0,0.0,0.0,0.0,0.0,0.0,0.0,0.0,0.0,0.0,0.0,0.0,0.0,0.0,0.0,0.0,0.0,0.0,0.0,0.0,0.0,0.0,0.0,0.0,0.0,0.0,0.0,0.0,0.0,0.0,0.0,0.0,0.0,0.0,0.0,0.0,0.0,0.0,0.0,0.0,0.0,0.0,0.0,0.0,0.0,0.0,0.0,0.0,0.0,0.0,0.0,0.0,0.0,0.0,0.0,0.0,0.0,0.0,0.0,0.0,0.0,0.0,0.0,9.1507,9.2365,9.2209,9.1507,9.0179,8.8227,8.6353,0.0,0.0,0.0,0.0,0.0,0.0,0.0,0.0,0.0,0.0,0.0,0.0,0.0,0.0,0.0,0.0,0.0,0.0,0.0,0.0,0.0,0.0,0.0,0.0,0.0,0.0,0.0,0.0,0.0,0.0,0.0,0.0,0.0,0.0,0.0,0.0,0.0,0.0,0.0,0.0,0.0,0.0,0.0,0.0,0.0,0.0,0.0,0.0,0.0,0.0,0.0,0.0,0.0,0.0,0.0,0.0,0.0,0.0,0.0,0.0,0.0,0.0,0.0,0.0,0.0,0.0,0.0,0.0,0.0,0.0,0.0,0.0,0.0,0.0,0.0,0.0,0.0,0.0,0.0,0.0,0.0,0.0,0.0,0.0,0.0,0.0,0.0,0.0,0.0,0.0,0.0,0.0,0.0,0.0,0.0,0.0,0.0,0.0,0.0,0.0,0.0,0.0,0.0,0.0,0.0,0.0,0.0,0.0,9.3472,9.4409,9.502,9.5098,9.4331,9.0967,8.8618,0.0,0.0,0.0,0.0,0.0,0.0,0.0,0.0,0.0,0.0,0.0,0.0,0.0,0.0,0.0,0.0,0.0,0.0,0.0,0.0,0.0,0.0,0.0,0.0,0.0,0.0,0.0,0.0,0.0,0.0,0.0,0.0,0.0,0.0,0.0,0.0,0.0,0.0,0.0,0.0,0.0,0.0,0.0,0.0,0.0,0.0,0.0,0.0,0.0,0.0,0.0,0.0,0.0,0.0,0.0,0.0,0.0,0.0,0.0,0.0,0.0,0.0,0.0,0.0,0.0,0.0,0.0,0.0,0.0,0.0,0.0,0.0,0.0,0.0,0.0,0.0,0.0,0.0,0.0,0.0,0.0,0.0,0.0,0.0,0.0,0.0,0.0,0.0,0.0,0.0,0.0,0.0,0.0,0.0,0.0,0.0,0.0,0.0,0.0,0.0,0.0,0.0,0.0,0.0,0.0,0.0,0.0,0.0,9.6326,9.781,9.7388,9.7388,9.7888,9.3957,9.0726,0.0,0.0,0.0,0.0,0.0,0.0,0.0,0.0,0.0,0.0,0.0,0.0,0.0,0.0,0.0,0.0,0.0,0.0,0.0,0.0,0.0,0.0,0.0,0.0,0.0,0.0,0.0,0.0,0.0,0.0,0.0,0.0,0.0,0.0,0.0,0.0,0.0,0.0,0.0,0.0,0.0,0.0,0.0,0.0,0.0,0.0,0.0,0.0,7.7938,0.0,0.0,0.0,0.0,0.0,0.0,0.0,0.0,0.0,0.0,0.0,0.0,0.0,0.0,0.0,0.0,0.0,0.0,0.0,0.0,0.0,0.0,0.0,0.0,0.0,0.0,0.0,0.0,0.0,0.0,0.0,0.0,0.0,0.0,0.0,0.0,0.0,0.0,0.0,0.0,0.0,0.0,0.0,0.0,0.0,0.0,0.0,0.0,0.0,0.0,0.0,0.0,0.0,0.0,0.0,0.0,0.0,0.0,0.0,9.8828,10.1328,10.0619,10.0382,10.0703,9.7416,9.4204,0.0,0.0,0.0,0.0,0.0,0.0,0.0,0.0,0.0,0.0,0.0,0.0,0.0,0.0,0.0,0.0,0.0,0.0,0.0,0.0,0.0,0.0,0.0,0.0,0.0,0.0,0.0,0.0,0.0,0.0,0.0,0.0,0.0,0.0,0.0,0.0,0.0,0.0,0.0,0.0,0.0,0.0,0.0,0.0,0.0,0.0,0.0,0.0,0.0,0.0,0.0,0.0,0.0,0.0,0.0,0.0,0.0,0.0,0.0,0.0,0.0,0.0,0.0,0.0,0.0,0.0,0.0,0.0,0.0,0.0,0.0,0.0,0.0,0.0,0.0,0.0,0.0,0.0,0.0,0.0,0.0,0.0,0.0,0.0,0.0,0.0,0.0,0.0,0.0,0.0,0.0,0.0,0.0,0.0,0.0,0.0,0.0,0.0,0.0,0.0,0.0,0.0,0.0,0.0,0.0,0.0,0.0,9.8828,10.1406,10.4609,10.4062,10.3672,10.3594,10.1172,9.8203,9.4922,0.0,0.0,0.0,0.0,0.0,0.0,0.0,0.0,0.0,0.0,0.0,0.0,0.0,0.0,0.0,0.0,0.0,0.0,0.0,0.0,0.0,0.0,0.0,0.0,0.0,0.0,0.0,0.0,0.0,0.0,0.0,0.0,0.0,0.0,0.0,0.0,0.0,0.0,7.4938,7.6553,0.0,0.0,0.0,0.0,0.0,0.0,0.0,0.0,7.9169,0.0,0.0,0.0,0.0,0.0,0.0,0.0,0.0,0.0,0.0,0.0,0.0,0.0,0.0,0.0,0.0,0.0,0.0,0.0,0.0,0.0,0.0,0.0,0.0,0.0,0.0,0.0,0.0,0.0,0.0,0.0,0.0,0.0,0.0,0.0,0.0,0.0,0.0,0.0,0.0,0.0,0.0,0.0,0.0,0.0,0.0,0.0,0.0,0.0,0.0,0.0,0.0,0.0,0.0,0.0,0.0,9.9609,10.2109,10.4687,10.7265,10.7265,10.7187,10.7109,10.4687,10.2031,9.9219,0.0,0.0,0.0,0.0,0.0,0.0,0.0,0.0,0.0,0.0,0.0,0.0,0.0,0.0,0.0,0.0,0.0,0.0,0.0,0.0,0.0,0.0,0.0,0.0,0.0,0.0,0.0,0.0,0.0,0.0,0.0,0.0,0.0,0.0,0.0,0.0,0.0,0.0,0.0,7.8323,7.9708,0.0,0.0,0.0,0.0,0.0,0.0,0.0,0.0,8.1708,0.0,0.0,0.0,0.0,0.0,0.0,0.0,0.0,0.0,0.0,0.0,0.0,0.0,0.0,0.0,0.0,0.0,0.0,0.0,0.0,0.0,0.0,0.0,0.0,0.0,0.0,0.0,0.0,0.0,0.0,0.0,0.0,0.0,0.0,0.0,0.0,0.0,0.0,0.0,0.0,0.0,0.0,0.0,0.0,0.0,0.0,0.0,0.0,0.0,0.0,0.0,0.0,0.0,0.0,0.0,10.1562,10.4609,10.7656,11.0547,11.0703,11.0468,11.0,10.75,10.4531,0.0,0.0,0.0,0.0,0.0,0.0,0.0,0.0,0.0,0.0,0.0,0.0,0.0,0.0,0.0,0.0,0.0,0.0,0.0,0.0,0.0,0.0,0.0,0.0,0.0,0.0,0.0,0.0,0.0,0.0,0.0,0.0,0.0,0.0,0.0,0.0,0.0,0.0,0.0,0.0,8.0015,8.1,8.2333,0.0,0.0,0.0,0.0,0.0,0.0,8.3247,8.3016,0.0,0.0,0.0,0.0,0.0,0.0,0.0,0.0,0.0,0.0,0.0,0.0,0.0,0.0,0.0,0.0,0.0,0.0,0.0,0.0,0.0,0.0,0.0,0.0,0.0,0.0,0.0,0.0,0.0,0.0,0.0,0.0,0.0,0.0,0.0,0.0,0.0,0.0,0.0,0.0,0.0,0.0,0.0,0.0,0.0,0.0,0.0,0.0,0.0,0.0,0.0,0.0,0.0,0.0,0.0,10.3594,10.7031,11.0468,11.375,11.414,11.3828,11.289,11.0234,10.6875,0.0,0.0,0.0,0.0,0.0,0.0,0.0,0.0,0.0,0.0,0.0,0.0,0.0,0.0,0.0,0.0,0.0,0.0,0.0,0.0,0.0,0.0,0.0,0.0,0.0,0.0,0.0,0.0,0.0,0.0,0.0,0.0,0.0,0.0,0.0,0.0,0.0,0.0,0.0,0.0,0.0,8.2293,8.4147,8.4233,0.0,0.0,0.0,0.0,8.4682,8.4404,0.0,0.0,0.0,0.0,0.0,0.0,0.0,0.0,0.0,0.0,0.0,0.0,0.0,0.0,0.0,0.0,0.0,0.0,0.0,0.0,0.0,0.0,0.0,0.0,0.0,0.0,0.0,0.0,0.0,0.0,0.0,0.0,0.0,0.0,0.0,0.0,0.0,0.0,0.0,0.0,0.0,0.0,0.0,0.0,0.0,0.0,0.0,0.0,0.0,0.0,0.0,0.0,0.0,0.0,0.0,0.0,10.6172,10.9687,11.3125,11.6406,11.7265,11.7265,11.6406,11.3203,10.9765,0.0,0.0,0.0,0.0,0.0,0.0,0.0,0.0,0.0,0.0,0.0,0.0,0.0,0.0,0.0,0.0,0.0,0.0,0.0,0.0,0.0,0.0,0.0,0.0,0.0,0.0,0.0,0.0,0.0,0.0,0.0,0.0,0.0,0.0,0.0,0.0,0.0,0.0,0.0,0.0,0.0,8.3988,8.5925,8.593,8.6454,0.0,0.0,8.84,8.84,8.7289,0.0,0.0,0.0,0.0,0.0,0.0,0.0,0.0,0.0,0.0,0.0,0.0,0.0,0.0,0.0,0.0,0.0,0.0,0.0,0.0,0.0,0.0,0.0,0.0,0.0,0.0,0.0,0.0,0.0,0.0,0.0,0.0,0.0,0.0,0.0,0.0,0.0,0.0,0.0,0.0,0.0,0.0,0.0,0.0,0.0,0.0,0.0,0.0,0.0,0.0,0.0,0.0,0.0,0.0,0.0,10.3281,10.7422,11.1797,11.5234,11.7656,11.9062,11.914,11.7734,11.5312,11.1953,0.0,0.0,0.0,0.0,0.0,0.0,0.0,0.0,0.0,0.0,0.0,0.0,0.0,0.0,0.0,0.0,0.0,0.0,0.0,0.0,0.0,0.0,0.0,0.0,0.0,0.0,0.0,0.0,0.0,0.0,0.0,0.0,0.0,0.0,0.0,0.0,0.0,0.0,0.0,0.0,0.0,0.0,8.7856,8.835,0.0,0.0,0.0,9.0288,8.9973,0.0,0.0,0.0,0.0,0.0,0.0,0.0,0.0,0.0,0.0,0.0,0.0,0.0,0.0,0.0,0.0,0.0,0.0,0.0,0.0,0.0,0.0,0.0,0.0,0.0,0.0,0.0,0.0,0.0,0.0,0.0,0.0,0.0,0.0,0.0,0.0,0.0,0.0,0.0,0.0,0.0,0.0,0.0,0.0,0.0,0.0,0.0,0.0,0.0,0.0,0.0,0.0,0.0,0.0,0.0,0.0,0.0,10.8984,11.3593,11.6953,11.8906,12.0703,12.0781,11.9297,11.7187,0.0,0.0,0.0,0.0,0.0,0.0,0.0,0.0,0.0,0.0,0.0,0.0,0.0,0.0,0.0,0.0,0.0,0.0,0.0,0.0,0.0,0.0,0.0,0.0,0.0,0.0,0.0,7.1926,0.0,0.0,0.0,0.0,0.0,0.0,0.0,0.0,0.0,0.0,0.0,0.0,0.0,0.0,8.7808,8.978,9.0563,9.1184,0.0,0.0,9.2138,9.1685,9.1507,9.1041,0.0,0.0,0.0,0.0,0.0,0.0,0.0,0.0,0.0,0.0,0.0,0.0,0.0,0.0,0.0,0.0,0.0,0.0,0.0,0.0,0.0,0.0,0.0,0.0,0.0,0.0,0.0,0.0,0.0,0.0,0.0,0.0,0.0,0.0,0.0,0.0,0.0,0.0,0.0,0.0,0.0,0.0,0.0,0.0,0.0,0.0,0.0,0.0,0.0,0.0,0.0,0.0,0.0,0.0,0.0,11.1484,11.5156,11.8125,12.0625,12.2422,12.289,12.1953,11.8672,11.5625,0.0,0.0,0.0,0.0,0.0,0.0,0.0,0.0,0.0,0.0,0.0,0.0,0.0,0.0,0.0,0.0,0.0,0.0,0.0,0.0,0.0,0.0,0.0,0.0,0.0,0.0,0.0,0.0,0.0,0.0,0.0,0.0,0.0,0.0,0.0,0.0,0.0,0.0,0.0,0.0,0.0,8.9585,9.1685,9.2597,9.3396,0.0,0.0,9.4598,9.4535,9.4011,9.3142,9.1918,0.0,0.0,0.0,0.0,0.0,0.0,0.0,0.0,0.0,0.0,0.0,0.0,0.0,0.0,0.0,0.0,0.0,0.0,0.0,0.0,0.0,0.0,0.0,0.0,0.0,0.0,0.0,0.0,0.0,0.0,0.0,0.0,0.0,0.0,0.0,0.0,0.0,0.0,0.0,0.0,0.0,0.0,0.0,0.0,0.0,0.0,0.0,0.0,0.0,0.0,0.0,0.0,0.0,10.7422,11.1875,11.5781,11.9062,12.164,12.3437,12.3906,12.3047,12.0625,11.7656,0.0,0.0,0.0,0.0,0.0,0.0,0.0,0.0,0.0,0.0,0.0,0.0,0.0,0.0,0.0,0.0,0.0,0.0,0.0,0.0,0.0,0.0,0.0,0.0,0.0,0.0,0.0,0.0,7.4691,7.5228,7.6129,0.0,0.0,0.0,0.0,0.0,0.0,0.0,0.0,0.0,0.0,9.1836,9.4301,9.5268,0.0,0.0,9.7721,9.7773,9.7455,9.6714,9.5855,9.4835,9.3429,0.0,0.0,0.0,0.0,0.0,0.0,0.0,0.0,0.0,0.0,0.0,0.0,0.0,0.0,0.0,0.0,0.0,0.0,0.0,0.0,0.0,0.0,0.0,0.0,0.0,0.0,0.0,0.0,0.0,0.0,0.0,0.0,0.0,0.0,0.0,0.0,0.0,0.0,0.0,0.0,0.0,0.0,0.0,0.0,0.0,0.0,0.0,0.0,0.0,0.0,0.0,0.0,10.8906,11.2656,11.664,11.9922,12.2578,12.4062,12.4531,12.3828,12.2187,11.9375,0.0,0.0,0.0,0.0,0.0,0.0,0.0,0.0,0.0,0.0,0.0,0.0,0.0,0.0,0.0,0.0,0.0,0.0,0.0,0.0,0.0,0.0,0.0,0.0,0.0,0.0,0.0,0.0,7.6283,7.7105,7.812,0.0,0.0,0.0,0.0,0.0,0.0,0.0,0.0,0.0,0.0,9.4173,9.6239,9.7487,9.8458,9.9306,9.9729,9.9863,9.9463,9.8846,9.8135,9.7251,0.0,0.0,0.0,0.0,0.0,0.0,0.0,0.0,0.0,0.0,0.0,0.0,0.0,0.0,0.0,0.0,0.0,0.0,0.0,0.0,0.0,0.0,0.0,0.0,0.0,0.0,0.0,8.4765,0.0,0.0,8.4765,0.0,0.0,0.0,0.0,0.0,0.0,0.0,0.0,0.0,0.0,0.0,0.0,0.0,0.0,0.0,0.0,0.0,0.0,0.0,0.0,0.0,0.0,11.0156,11.4375,11.7812,12.0859,12.3437,12.4375,12.4843,12.4765,12.3125,12.0547,11.6953,0.0,0.0,0.0,0.0,0.0,0.0,0.0,0.0,0.0,0.0,0.0,0.0,0.0,0.0,0.0,0.0,0.0,0.0,0.0,0.0,0.0,0.0,0.0,0.0,0.0,0.0,7.8077,7.8945,7.9221,0.0,0.0,0.0,0.0,0.0,0.0,0.0,0.0,0.0,0.0,9.4393,9.6395,9.7581,9.9158,10.0243,10.0329,10.0407,10.0329,10.0407,10.0329,9.9914,0.0,0.0,0.0,0.0,0.0,0.0,0.0,0.0,0.0,0.0,0.0,0.0,0.0,0.0,0.0,0.0,0.0,0.0,0.0,0.0,0.0,0.0,0.0,0.0,0.0,0.0,0.0,8.664,8.664,0.0,0.0,0.0,0.0,0.0,0.0,0.0,0.0,0.0,0.0,0.0,9.2578,9.2578,0.0,0.0,0.0,0.0,0.0,0.0,0.0,0.0,0.0,0.0,0.0,0.0,11.1562,11.5234,11.8125,12.1172,12.4297,12.5156,12.5859,12.6406,12.4843,12.125,11.5547,0.0,0.0,0.0,0.0,0.0,0.0,0.0,0.0,0.0,0.0,0.0,0.0,0.0,0.0,0.0,0.0,0.0,0.0,0.0,0.0,0.0,0.0,0.0,0.0,0.0,7.8624,0.0,0.0,0.0,0.0,0.0,0.0,0.0,0.0,0.0,0.0,0.0,9.1841,9.4471,9.6185,9.8109,10.072,10.1578,10.2359,0.0,0.0,0.0,0.0,0.0,0.0,0.0,0.0,0.0,0.0,0.0,0.0,0.0,0.0,9.4095,9.153,9.1024,9.1024,9.1004,0.0,0.0,0.0,0.0,0.0,0.0,0.0,0.0,0.0,0.0,0.0,0.0,0.0,0.0,8.9297,0.0,8.9297,0.0,0.0,0.0,0.0,0.0,0.0,0.0,0.0,9.2812,9.375,9.4765,9.5078,9.5703,0.0,9.7109,9.7109,0.0,0.0,0.0,0.0,0.0,0.0,0.0,0.0,11.3047,11.6093,11.9062,12.2031,12.5078,12.6015,12.6718,12.7265,12.5078,12.1328,11.6015,11.25,10.8437,0.0,0.0,0.0,0.0,0.0,0.0,0.0,0.0,0.0,0.0,0.0,0.0,0.0,0.0,0.0,0.0,0.0,0.0,0.0,0.0,0.0,0.0,0.0,8.1056,0.0,0.0,0.0,0.0,0.0,0.0,0.0,0.0,0.0,8.983,9.199,9.4535,9.6809,9.85,10.0407,10.2906,0.0,0.0,0.0,0.0,0.0,0.0,0.0,10.5326,10.5014,10.4077,10.3062,10.2515,10.1266,10.0095,9.9548,0.0,0.0,9.4598,9.3944,9.3944,9.3944,9.3944,9.3944,9.3944,9.3944,9.4208,0.0,0.0,0.0,0.0,0.0,0.0,0.0,0.0,9.2734,9.2734,0.0,9.2734,0.0,0.0,0.0,0.0,9.2812,9.3672,0.0,0.0,9.5781,9.6562,9.6719,9.7422,9.8281,9.9062,9.914,10.0,10.1484,10.0,0.0,0.0,0.0,0.0,0.0,0.0,11.4531,11.7109,12.0468,12.3437,12.5937,12.6797,12.7265,12.7265,12.4062,12.1093,11.8437,11.5078,11.125,10.6953,10.3515,0.0,0.0,0.0,0.0,0.0,0.0,0.0,0.0,0.0,0.0,0.0,0.0,0.0,0.0,0.0,0.0,0.0,0.0,0.0,0.0,8.2706,0.0,0.0,0.0,0.0,0.0,0.0,0.0,0.0,0.0,0.0,9.3068,9.4942,9.7206,9.8924,0.0,0.0,0.0,0.0,10.681,10.681,10.752,10.8067,10.8067,10.8067,10.7833,10.6966,0.0,0.0,10.4545,10.353,10.2984,10.2984,10.2984,10.1891,9.869,9.7979,9.7823,9.7823,9.7823,9.7831,9.7831,9.7815,9.8057,10.3359,0.0,0.0,0.0,0.0,9.6484,9.625,9.625,9.625,9.625,9.625,9.625,0.0,0.0,0.0,0.0,0.0,0.0,9.6953,9.7578,9.8047,9.8594,9.9219,10.0078,10.0625,10.0859,10.2109,10.2969,10.3437,10.414,10.4297,10.4062,0.0,0.0,0.0,0.0,11.625,11.8828,12.164,12.4062,12.5937,12.6875,12.7265,12.7265,12.5234,12.2812,12.0234,11.6875,11.3047,10.875,10.5312,0.0,0.0,0.0,0.0,0.0,0.0,0.0,0.0,0.0,0.0,0.0,0.0,0.0,0.0,0.0,0.0,0.0,0.0,0.0,8.453,8.5701,8.6399,0.0,0.0,0.0,0.0,0.0,0.0,0.0,0.0,0.0,9.8101,9.871,9.9783,0.0,0.0,10.517,10.6653,10.7853,10.8802,10.9427,10.9661,0.0,10.9895,10.9817,10.9739,10.9505,10.894,10.8137,10.7044,10.6653,10.6497,10.6497,10.6497,10.6107,10.5248,10.2984,10.15,10.1344,10.1344,10.1344,10.1344,10.1344,10.1422,10.9843,10.6406,10.3359,10.164,10.1015,10.0469,10.0078,9.9765,9.9765,9.9765,9.9765,9.9765,9.9765,9.9765,9.9765,0.0,0.0,0.0,10.0078,10.0547,10.0937,10.1328,10.1875,10.2734,10.3125,10.3203,10.4531,10.539,10.5703,10.7031,10.8047,10.8515,0.0,0.0,11.2422,11.5312,11.7656,11.9609,12.25,12.4687,12.6015,12.7187,12.7656,12.7265,12.6015,12.4218,12.1953,11.8984,11.5468,11.1562,10.8125,10.4453,0.0,0.0,0.0,0.0,0.0,0.0,0.0,0.0,0.0,0.0,0.0,8.4922,8.4375,0.0,0.0,0.0,8.5781,8.6562,8.7656,8.8828,0.0,0.0,0.0,0.0,0.0,0.0,0.0,9.7164,9.9906,10.1941,10.2253,10.2933,10.3608,10.4233,10.5873,10.759,10.9308,0.0,11.115,11.2024,11.2415,11.2649,11.2649,11.2649,11.2493,11.217,11.1368,11.0714,11.0167,11.0011,11.0011,11.0011,11.0011,11.0011,11.0011,10.8293,10.6341,10.517,10.4858,10.4858,10.4858,10.4858,10.4858,11.5703,11.4453,10.9687,10.6562,10.4844,10.4687,10.414,10.3437,10.3359,10.3281,10.3281,10.3281,10.3281,10.3203,10.3203,0.0,10.3125,10.3203,10.3203,10.3203,10.414,10.4531,10.4531,10.539,10.5781,10.5781,10.664,10.7422,10.8203,10.914,11.0859,11.3125,11.2656,11.2734,11.3672,11.6797,11.8828,11.9687,12.3125,12.5312,12.6172,12.7812,12.8203,12.7422,12.6562,12.5312,12.3593,12.1172,11.8203,11.4843,11.1406,10.7656,10.3594,0.0,0.0,0.0,0.0,0.0,0.0,0.0,0.0,0.0,0.0,0.0,0.0,0.0,0.0,0.0,8.9453,0.0,9.039,9.1953,0.0,0.0,0.0,9.5625,9.5625,9.8594,10.0621,10.0668,0.0,0.0,10.5694,10.7313,10.8152,10.7442,10.8613,11.0253,11.1807,11.2838,11.3717,11.4374,11.5312,11.5859,11.5625,11.5625,11.5311,11.4596,11.386,11.329,11.3212,11.3212,11.329,11.3212,11.329,11.3212,11.329,11.3056,11.2353,10.923,10.8527,10.8371,10.8449,10.8371,10.8371,11.9218,11.8203,11.6328,11.3437,11.0,10.8672,10.7969,10.7734,10.7031,10.6797,10.6797,10.6797,10.6406,10.5781,10.5781,10.5469,10.4922,10.5547,10.5781,10.5859,10.6719,10.7109,10.7109,10.7969,10.8359,10.8437,10.9297,10.9765,11.0078,11.1484,11.2578,11.3281,11.4922,11.5859,11.6172,11.8203,11.9687,12.0547,12.3984,12.6484,12.789,12.8359,12.8515,12.8281,12.7422,12.6172,12.4531,12.2656,12.0,11.6562,11.375,11.0625,10.6953,10.5156,0.0,0.0,0.0,0.0,0.0,0.0,0.0,0.0,0.0,9.1406,9.1406,0.0,9.1406,0.0,9.2969,9.3984,9.3984,9.5469,0.0,0.0,9.8047,9.9062,9.914,10.1562,10.3515,10.4216,10.5936,10.7655,10.9217,11.0857,11.2102,11.2556,11.2454,11.2674,11.3689,11.4592,11.5154,11.5468,11.625,11.6718,11.6797,11.6718,11.6639,11.6392,11.5656,11.5086,11.5086,11.5086,11.5086,11.5086,11.5086,11.5086,11.5086,11.5086,11.4852,11.3915,11.2822,11.1885,11.1885,11.1885,11.1885,12.2656,12.1875,12.0937,11.8984,11.625,11.3437,11.1953,11.1562,11.0703,11.0312,11.0312,10.9922,10.9453,10.8984,10.8593,10.8203,10.7812,10.8203,10.8437,10.8437,10.8906,10.914,10.9218,11.0078,11.0468,11.0468,11.1718,11.2343,11.2422,11.3672,11.4531,11.4922,11.6718,11.7734,11.8203,11.9531,12.0625,12.1484,12.4453,12.6875,12.8515,12.8593,12.8593,12.8593,12.7734,12.6718,12.539,12.3672,12.1562,11.8828,11.625,11.3672,11.1015,10.8906,10.6406,0.0,0.0,0.0,0.0,0.0,0.0,0.0,0.0,0.0,0.0,0.0,9.4844,9.4922,9.6094,9.7031,9.7422,9.8672,9.9609,10.0,10.1562,10.2578,10.2578,10.4922,10.6797,10.7656,10.8906,11.039,11.2109,11.3203,11.4374,11.5933,11.5771,11.5607,11.6076,11.6872,11.7578,11.7968,11.8437,11.875,11.875,11.875,11.8749,11.8736,11.8311,11.7975,11.7975,11.7975,11.7975,11.7975,11.7975,11.7975,11.7975,11.7975,11.7975,11.7819,11.7194,11.6023,11.4539,11.4539,11.4852,12.6093,12.539,12.4375,12.3515,12.2578,11.8593,11.625,11.5078,11.4218,11.3828,11.3593,11.2734,11.2343,11.2187,11.1406,11.1015,11.0937,11.1015,11.1093,11.1093,11.1172,11.125,11.1328,11.2031,11.2343,11.2422,11.3906,11.4687,11.4687,11.5625,11.6484,11.7187,11.8125,11.9062,11.9922,12.0703,12.1562,12.2656,12.5,12.6953,12.8593,12.8593,12.8593,12.8593,12.789,12.7031,12.6172,12.4765,12.3125,12.125,11.8984,11.6797,11.4922,11.2578,11.0078,0.0,10.6562,0.0,0.0,0.0,0.0,0.0,0.0,0.0,0.0,9.8359,9.8359,9.8359,9.914,10.0,10.0937,10.1719,10.2578,10.3515,10.5,10.6015,10.6172,10.8203,11.0,11.1015,11.1797,11.289,11.4687,11.5,11.5937,11.8125,11.8672,11.8828,11.8984,11.9375,11.9843,12.0781,12.1015,12.0859,12.1093,12.1093,12.0936,12.1005,12.074,12.0872,12.0638,12.0638,12.0707,12.0707,12.0551,12.0629,12.0785,12.0707,12.0707,12.0551,12.0395,11.9536,11.7272,11.696,11.7428,12.9062,12.8828,12.7187,12.6484,12.6172,12.3984,12.1406,11.8593,11.7734,11.6953,11.625,11.539,11.4609,11.3984,11.3828,11.3359,11.2734,11.3437,11.375,11.375,11.4453,11.4765,11.4843,11.4922,11.5,11.5,11.5312,11.5468,11.5625,11.7109,11.789,11.8125,11.9609,12.0859,12.164,0.0,0.0,0.0,12.6406,12.7578,12.8515,12.8593,12.8593,12.8593,12.8437,0.0,12.7109,12.6718,12.5468,12.3125,12.1875,0.0,0.0,0.0,0.0,0.0,0.0,0.0,0.0,0.0,0.0,0.0,10.6406,10.4844,10.2187,10.1953,10.1875,10.1953,10.2734,10.3594,10.4453,10.5234,10.6093,10.6953,10.7969,10.8828,10.9609,11.0703,11.2031,11.3593,11.3906,11.4922,11.7109,11.7578,11.8281,12.0078,12.1015,12.1718,12.2343,12.1484,12.0781,12.0937,12.164,12.2265,12.289,12.2422,12.2109,12.1872,12.1299,12.1037,12.1059,12.1045,12.0942,12.0942,12.0785,12.0864,12.0864,12.0785,12.102,12.0864,12.0864,12.0629,11.9927,11.9927,12.0083,13.1562,13.1093,12.9765,12.8984,0.0,12.7187,12.5468,12.3281,12.1172,11.9765,11.8906,11.8047,11.7422,11.6953,11.6093,11.5468,11.5078,11.5078,11.5156,11.5156,11.5547,11.5703,11.5859,11.6562,11.6953,11.7031,11.789,11.8281,11.8359,11.914,11.9609,11.9609,12.0859,12.1797,12.2187,12.3437,12.4687,12.6015,12.6875,12.7734,12.8593,12.8593,12.8593,12.8593,12.8593,0.0,0.0,0.0,0.0,0.0,0.0,0.0,0.0,11.8593,0.0,11.4531,11.3593,11.2578,11.1328,11.0781,11.0547,11.0547,11.0156,10.8672,10.5625,10.539,10.539,10.5469,10.5781,10.6406,10.7265,10.8125,10.8984,10.9843,11.1093,11.2031,11.2578,11.3672,11.4922,11.6172,11.6797,11.7734,11.9375,11.9609,12.0312,12.1875,12.2578,12.3281,12.4375,12.3672,12.2968,12.3359,12.375,12.4218,12.4609,12.4453,12.4062,12.3984,12.3664,12.3418,12.3418,12.3418,12.3413,12.3402,12.338,12.3362,12.3362,12.3362,12.3362,12.3362,12.3362,12.3362,12.3284,12.2347,12.1488,13.375,13.289,13.2031,13.1172,13.0312,12.9453,12.8515,12.7265,12.4062,0.0,0.0,12.0468,12.0,11.9765,11.8281,11.7734,11.7656,11.6953,11.664,11.6718,11.664,11.664,11.6797,11.8125,11.875,11.8828,12.0234,12.0937,12.0937,12.1015,12.1093,12.125,12.2109,12.2734,12.3047,12.5078,12.625,12.625,12.7109,12.789,12.8593,12.8593,12.8593,12.8593,12.8593,12.8281,12.7578,12.75,12.7109,12.625,12.4922,12.4062,12.3672,12.1562,11.9609,11.8047,11.6953,11.5781,11.4453,11.4218,11.4062,11.3906,11.3047,11.1406,10.8672,10.8437,10.8515,10.8672,10.8672,10.9062,11.0078,11.0859,11.1718,11.2734,11.4062,11.5,11.539,11.6562,11.7734,11.8672,11.9297,12.0234,12.1172,12.1406,12.1953,12.3515,12.3984,12.4453,12.5703,12.539,12.5,12.5547,12.5625,12.5859,12.6015,12.5859,12.6015,12.5781,12.5859,12.6015,12.6008,12.6013,12.6014,12.5692,12.5985,12.5894,12.5957,12.5722,12.6035,12.6035,12.6035,12.6026,12.586,12.4299,12.2894,13.5468,13.4609,13.375,13.2968,13.2031,13.1172,12.9922,12.8203,12.5625,12.3984,12.3047,12.2187,12.1406,12.0703,12.0468,12.039,12.0312,12.0234,12.0156,12.0156,12.0156,12.0156,12.0156,12.0468,12.0547,12.0547,12.0781,12.0937,12.1015,12.164,12.2031,12.2265,12.3672,12.4765,12.5468,12.6562,12.7109,12.7109,12.7968,12.8437,12.8593,12.8593,12.8593,12.8593,12.8593,12.8593,12.8437,12.8437,12.8047,12.7187,12.6875,12.6093,12.4687,12.3515,12.25,12.1484,11.9922,11.8984,11.8672,11.7968,11.7265,11.6484,11.5625,11.375,11.0547,11.0234,11.0547,11.125,11.1328,11.2031,11.3515,11.3828,11.4531,11.6015,11.6484,11.7187,11.8515,11.9062,11.9609,12.0468,12.0625,12.1406,12.2812,12.3125,12.375,12.5156,12.5625,12.6015,12.6718,12.6406,12.5937,12.6015,12.6015,12.6015,12.6172,12.6015,12.6172,12.6015,12.6093,12.6172,12.625,12.625,12.625,12.6093,12.6172,12.6164,12.6152,12.5991,12.6147,12.6225,12.6225,12.6135,12.6182,12.5714,12.5392,13.7187,13.6328,13.5547,13.4687,13.375,13.2422,13.1172,12.9922,12.8281,12.6562,12.4843,12.4453,12.3828,12.3047,12.25,12.2031,12.1562,12.1093,12.0937,12.0937,12.0937,12.0937,12.0937,12.1406,12.1562,12.164,12.2109,12.2343,12.2422,12.3203,12.3593,12.3672,12.4843,12.5859,12.664,12.7109,12.75,12.7968,12.8437,12.8593,12.8593,12.8593,12.8593,12.8593,12.8593,12.8593,12.8593,12.8593,12.8437,12.8047,12.7578,12.6953,12.6172,12.5312,12.4453,12.3672,12.2422,12.1484,12.1015,12.0156,11.9297,11.8515,11.8047,11.6953,11.4922,11.3906,11.3593,11.3906,11.3984,11.4531,11.5703,11.625,11.7031,11.8281,11.8828,11.9453,12.0234,12.125,12.1875,12.2343,12.3125,12.3984,12.4765,12.4843,12.5312,12.6484,12.7031,12.7578,12.7968,12.7656,12.7422,12.7422,12.7422,12.7422,12.7343,12.7422,12.7422,12.7422,12.7422,12.7422,12.7422,12.7422,12.7343,12.7422,12.7422,12.7422,12.7422,12.7417,12.7417,12.7417,12.7397,12.7378,12.7456,12.7378,12.7058,13.8672,13.7812,13.6953,13.6015,13.4843,13.3203,13.2109,13.1406,13.0547,12.8906,12.7031,12.6484,12.5859,12.5078,12.4375,12.3672,12.3047,12.2343,12.2031,12.2031,12.2031,12.2031,12.2109,12.2734,12.3047,12.3125,12.375,12.4062,12.414,12.4765,12.5156,12.539,12.6015,12.6718,12.7578,12.7578,12.7968,12.8515,12.8593,12.8593,12.8593,12.8593,12.8593,12.8593,12.8593,12.8593,12.8593,12.8593,12.8593,12.8593,12.7968,12.7578,12.7578,12.6797,12.6015,12.539,12.4531,12.375,12.3047,12.2031,12.1172,12.0547,12.0078,11.9609,11.8906,11.7734,11.6797,11.664,11.664,11.7031,11.7812,11.8437,11.9218,12.0078,12.0937,12.1562,12.1875,12.3125,12.4062,12.4218,12.5234,12.6015,12.625,12.6328,12.664,12.7422,12.8203,12.8593,12.8593,12.8593,12.8593,12.8593,12.8593,12.8515,12.8593,12.8515,12.8515,12.8593,12.8515,12.8437,12.8437,12.8515,12.8593,12.8437,12.8515,12.8437,12.8515,12.8515,12.8515,12.8437,12.8426,12.8485,12.8412,12.8418,12.8178,13.9609,13.8672,13.789,13.6562,13.4922,13.3203,13.25,13.2265,13.1484,13.0547,12.9375,12.789,12.6718,12.5937,12.5781,12.5625,12.5547,12.5547,12.5468,12.539,12.5547,12.5547,12.5312,12.5547,12.5625,12.5547,12.5625,12.5625,12.5625,12.5781,12.6328,12.7031,12.7187,12.7578,12.8359,12.8437,12.8515,12.8593,12.8593,12.8593,12.8593,12.8593,12.8593,12.8593,12.8593,12.8593,12.8593,12.8593,12.8593,12.8593,12.8515,12.8437,12.8359,12.7656,12.7109,12.7031,12.625,12.5703,12.5547,12.414,12.3203,12.3047,12.1718,12.0859,12.0781,12.0547,12.0078,11.9531,11.9297,11.9531,12.039,12.0625,12.1015,12.1875,12.2734,12.3593,12.4297,12.5234,12.5781,12.5781,12.6015,12.6328,12.7031,12.7187,12.75,12.8203,12.8437,12.8593,12.8593,12.8593,12.8593,12.8593,12.8593,12.8593,12.8593,12.8593,12.8593,12.8593,12.8593,12.8593,12.8593,12.8593,12.8593,12.8593,12.8593,12.8593,12.8593,12.8593,12.8593,12.8593,12.8593,12.8591,12.8582,12.8578,12.8418,14.0937,13.9609,13.9297,13.7812,13.5703,13.4453,13.3672,13.3203,13.2343,13.1718,13.125,12.9609,12.8047,12.6797,12.6797,12.6484,12.6015,12.6015,12.6015,12.6015,12.6015,12.6015,12.6015,12.6015,12.6015,12.6015,12.6015,12.6015,12.6093,12.6484,12.7187,12.7968,12.8047,12.8281,12.8593,12.8593,12.8593,12.8593,12.8593,12.8593,12.8593,12.8593,12.8593,12.8593,12.8593,12.8593,12.8593,12.8593,12.8593,12.8593,12.8593,12.8593,12.8593,12.8281,12.8047,12.8047,12.7265,12.6562,12.6015,12.539,12.5,12.5,12.4297,12.3906,12.3906,12.3906,12.375,12.3281,12.1562,12.0703,12.1562,12.2109,12.2734,12.3672,12.4453,12.5156,12.5468,12.625,12.6797,12.6797,12.7265,12.7656,12.7968,12.8047,12.8203,12.8593,12.8593,12.8593,12.8593,12.8593,12.8593,12.8593,12.8593,12.8593,12.8593,12.8593,12.8593,12.8593,12.8593,12.8593,12.8593,12.8593,12.8593,12.8593,12.8593,12.8593,12.8593,12.8593,12.8593,12.8593,12.8593,12.8593,12.8591,12.8591,12.8591,14.1953,14.0547,13.9843,13.8437,13.6562,13.5468,13.4687,13.4062,13.3203,13.2734,13.2343,13.1172,12.9765,12.8437,12.789,12.7265,12.6797,12.6718,12.6718,12.6718,12.6718,12.6718,12.6718,12.6718,12.6718,12.6718,12.6797,12.6718,12.6797,12.7343,12.7968,12.8515,12.8593,12.8593,12.8593,12.8593,12.8593,12.8593,12.8593,12.8593,12.8593,12.8593,12.8593,12.8593,12.8593,12.8593,12.8593,12.8593,12.8593,12.8593,12.8593,12.8593,12.8593,12.8593,12.8593,12.8593,12.8047,12.7422,12.6718,12.6484,12.6328,12.6328,12.6172,12.6015,12.6015,12.6015,12.6015,12.5703,12.375,12.2656,12.3203,12.3828,12.4453,12.5078,12.5859,12.6328,12.6406,12.7109,12.7656,12.7734,12.8125,12.8593,12.8593,12.8593,12.8593,12.8593,12.8593,12.8593,12.8593,12.8593,12.8593,12.8593,12.8593,12.8593,12.8593,12.8593,12.8593,12.8593,12.8593,12.8593,12.8593,12.8593,12.8593,12.8593,12.8593,12.8593,12.8593,12.8593,12.8593,12.8593,12.8593,12.8593,12.8593,12.8593,12.8593,14.2265,14.1093,13.875,13.7734,13.7422,13.5781,13.5,13.4843,13.4062,13.3281,13.2656,13.2343,13.1875,13.0859,12.9297,12.8515,12.8515,12.8437,12.8359,12.8281,12.8359,12.8437,12.8515,12.8515,12.8437,12.8281,12.8203,12.8281,12.8359,12.8437,12.8515,12.8593,12.8672,12.8672,12.875,12.8828,12.8672,12.8828,12.8828,12.8672,12.8672,12.8672,12.875,12.875,12.8593,12.8593,12.8593,12.8593,12.8593,12.8593,12.8593,12.8593,12.8593,12.8593,12.8593,12.8593,12.8515,12.8515,12.8281,12.7656,12.7265,12.7187,12.664,12.6093,12.625,12.625,12.625,12.6015,12.5859,12.5625,12.5703,12.5703,12.5781,12.5937,12.6718,12.7187,12.7265,12.789,12.8437,12.8515,12.8515,12.8593,12.8593,12.8593,12.8593,12.8593,12.8593,12.8593,12.8593,12.8593,12.8593,12.8593,12.8593,12.8593,12.8593,12.8593,12.8593,12.8593,12.8593,12.8593,12.8593,12.8593,12.8593,12.8593,12.8593,12.8593,12.8593,12.8593,12.8593,12.8593,12.8593,12.8593,12.8593,12.8593,12.8593,14.2734,14.1406,13.9843,13.8672,13.7578,13.6953,13.6015,13.5,13.4687,13.4062,13.3281,13.2734,13.2343,13.1953,13.0781,12.9922,12.9453,12.9453,12.914,12.8672,12.8593,12.8593,12.8593,12.8593,12.8593,12.8593,12.8593,12.8593,12.8593,12.8593,12.8906,12.9375,12.9453,12.9687,13.0156,13.0234,13.0234,13.0234,13.0234,13.0234,13.0234,13.0234,13.0234,13.0156,12.914,12.8593,12.8593,12.8593,12.8593,12.8593,12.8593,12.8593,12.8593,12.8593,12.8593,12.8593,12.8593,12.8593,12.8593,12.8281,12.8125,12.8125,12.789,12.7578,12.7656,12.7656,12.7656,12.7656,12.7656,12.7656,12.7578,12.7187,12.6875,12.6953,12.7578,12.8125,12.8203,12.8437,12.8593,12.8593,12.8593,12.8593,12.8593,12.8593,12.8593,12.8593,12.8593,12.8593,12.8593,12.8593,12.8593,12.8593,12.8593,12.8593,12.8593,12.8593,12.8593,12.8593,12.8593,12.8593,12.8593,12.8593,12.8593,12.8593,12.8593,12.8593,12.8593,12.8593,12.8593,12.8593,12.8593,12.8593,12.8593,12.8593,12.8593,14.2812,14.1484,14.0547,13.9375,13.8047,13.7734,13.6953,13.5781,13.5234,13.4687,13.4062,13.3281,13.289,13.2812,13.2343,13.1562,13.0781,13.0468,13.0,12.9453,12.9453,12.9453,12.9453,12.9453,12.9453,12.9453,12.9453,12.9453,12.9453,12.9453,12.9765,13.0312,13.0312,13.0625,13.1093,13.1172,13.1172,13.1172,13.1172,13.1172,13.1172,13.1172,13.1172,13.1015,13.0078,12.9297,12.9062,12.9062,12.8828,12.8672,12.8593,12.8593,12.8593,12.8593,12.8593,12.8593,12.8593,12.8593,12.8593,12.8593,12.8593,12.8593,12.8593,12.8593,12.8593,12.8593,12.8593,12.8593,12.8593,12.8593,12.8515,12.8047,12.7734,12.7812,12.8281,12.8593,12.8593,12.8593,12.8593,12.8593,12.8593,12.8593,12.8593,12.8593,12.8593,12.8593,12.8593,12.8593,12.8593,12.8593,12.8593,12.8593,12.8593,12.8593,12.8593,12.8593,12.8593,12.8593,12.8593,12.8593,12.8593,12.8593,12.8593,12.8593,12.8593,12.8593,12.8593,12.8593,12.8593,12.8593,12.8593,12.8593,12.8593,12.8593,12.8593,14.2343,14.1484,14.0547,13.9765,13.8828,13.8047,13.7656,13.7187,13.5859,13.5156,13.4765,13.414,13.375,13.3672,13.3515,13.3203,13.2343,13.164,13.1172,13.0937,13.1015,13.1015,13.0937,13.0937,13.0937,13.0937,13.1093,13.1093,13.0937,13.0937,13.1015,13.1172,13.1172,13.1328,13.1328,13.1484,13.1328,13.1406,13.1484,13.1406,13.125,13.1406,13.1484,13.1406,13.125,13.0859,13.0078,12.9922,12.9609,12.8906,12.875,12.8672,12.875,12.875,12.8593,12.8593,12.8593,12.8593,12.8593,12.8593,12.8593,12.8593,12.8593,12.8593,12.8593,12.8593,12.8593,12.8593,12.8593,12.8593,12.8593,12.8515,12.8437,12.8593,12.8593,12.8593,12.8593,12.8593,12.8593,12.8593,12.8593,12.8593,12.8593,12.8593,12.8593,12.8593,12.8593,12.8593,12.8593,12.8593,12.8593,12.8593,12.8593,12.8593,12.8593,12.8593,12.8593,12.8593,12.8593,12.8593,12.8593,12.8593,12.8593,12.8593,12.8593,12.8593,12.8593,12.8593,12.8593,12.8593,12.8593,12.8593,12.8593,12.8593,12.8593,14.3125,14.2343,14.1484,14.0547,13.9765,13.8828,13.8203,13.7578,13.6953,13.6093,13.5078,13.4765,13.4297,13.3906,13.3828,13.3672,13.3359,13.3047,13.2343,13.1406,13.125,13.125,13.125,13.125,13.1172,13.1172,13.1172,13.1172,13.125,13.125,13.1484,13.1953,13.2109,13.2422,13.289,13.2968,13.2968,13.2968,13.2968,13.2968,13.2968,13.2968,13.2968,13.2968,13.2968,13.2578,13.1718,13.1093,13.0703,13.039,13.039,13.0156,12.9609,12.9453,12.9218,12.8672,12.8593,12.8593,12.8593,12.8593,12.8672,12.8593,12.8593,12.8593,12.8593,12.8593,12.8593,12.8593,12.8593,12.8593,12.8593,12.8593,12.8593,12.8593,12.8593,12.8593,12.8593,12.8593,12.8593,12.8593,12.8593,12.8593,12.8593,12.8593,12.8593,12.8593,12.8593,12.8593,12.8593,12.8593,12.8593,12.8593,12.8593,12.8593,12.8593,12.8593,12.8593,12.8593,12.8593,12.8593,12.8593,12.8593,12.8593,12.8593,12.8593,12.8593,12.8593,12.8593,12.8593,12.8593,12.8593,12.8593,12.8593,12.8593,12.8593,14.375,14.2734,14.1875,14.1015,14.0156,13.9297,13.8593,13.8047,13.7734,13.6953,13.6093,13.5625,13.5234,13.4765,13.4765,13.4765,13.4765,13.4765,13.414,13.3047,13.2343,13.2187,13.2187,13.2187,13.2187,13.2187,13.2187,13.2187,13.2187,13.2187,13.2422,13.289,13.2968,13.3203,13.375,13.3828,13.3828,13.3828,13.375,13.3828,13.3828,13.3828,13.3828,13.3828,13.3828,13.3515,13.2968,13.2422,13.1875,13.1328,13.1172,13.0937,13.039,13.039,13.0156,12.9687,12.9531,12.9609,12.9531,12.9375,12.9062,12.9062,12.8828,12.8593,12.8593,12.8593,12.8593,12.8593,12.8593,12.8593,12.8593,12.8593,12.8593,12.8593,12.8593,12.8593,12.8593,12.8593,12.8593,12.8593,12.8593,12.8593,12.8593,12.8593,12.8593,12.8593,12.8593,12.8593,12.8593,12.8593,12.8593,12.8593,12.8593,12.8593,12.8593,12.8593,12.8593,12.8593,12.8593,12.8593,12.8593,12.8593,12.8593,12.8593,12.8593,12.8593,12.8593,12.8593,12.8593,12.8593,12.8593,12.8593,12.8593,12.8593,12.8593,14.414,14.2733,14.1875,14.1093,14.0234,13.9375,13.8906,13.875,13.8125,13.7656,13.7343,13.664,13.625,13.625,13.6015,13.6015,13.625,13.6093,13.6015,13.5468,13.4609,13.3906,13.3906,13.3906,13.3906,13.3906,13.3906,13.3906,13.3906,13.3906,13.3906,13.3984,13.4062,13.3984,13.4218,13.3984,13.414,13.4218,13.4062,13.4062,13.3984,13.3906,13.3828,13.3828,13.3828,13.375,13.3672,13.3515,13.289,13.164,13.1562,13.1484,13.1328,13.125,13.125,13.1015,13.1172,13.1015,13.0937,13.039,13.0,12.9922,12.9375,12.8672,12.8828,12.8828,12.875,12.8593,12.8593,12.8593,12.8593,12.8593,12.8593,12.8593,12.8593,12.8593,12.8593,12.8593,12.8593,12.8593,12.8593,12.8593,12.8593,12.8593,12.8593,12.8593,12.8593,12.8593,12.8593,12.8593,12.8593,12.8593,12.8593,12.8593,12.8593,12.8593,12.8593,12.8593,12.8593,12.8593,12.8593,12.8593,12.8593,12.8593,12.8593,12.8593,12.8593,12.8593,12.8593,12.8593,12.8593,12.8593,12.8593,12.8593,12.8593,14.4112,14.3085,14.2304,14.1486,14.0781,13.9922,13.9297,13.8906,13.8672,13.8125,13.7656,13.7343,13.6953,13.6328,13.6328,13.6328,13.6406,13.6406,13.6328,13.625,13.5937,13.5625,13.5625,13.5625,13.5625,13.5547,13.5468,13.5625,13.5625,13.5468,13.5547,13.5625,13.5468,13.5547,13.5625,13.5547,13.5625,13.5625,13.5625,13.5234,13.4765,13.4687,13.4375,13.3828,13.3828,13.3828,13.3828,13.3828,13.3672,13.3203,13.3125,13.2812,13.2265,13.2109,13.1953,13.1484,13.125,13.125,13.125,13.1015,13.0859,13.0859,13.0547,13.0234,12.9609,12.9531,12.9218,12.8828,12.8593,12.8593,12.8593,12.8593,12.8593,12.8593,12.8593,12.8593,12.8593,12.8593,12.8593,12.8593,12.8593,12.8593,12.8593,12.8593,12.8593,12.8593,12.8593,12.8593,12.8593,12.8593,12.8593,12.8593,12.8593,12.8593,12.8593,12.8593,12.8593,12.8593,12.8593,12.8593,12.8593,12.8593,12.8593,12.8593,12.8593,12.8593,12.8593,12.8593,12.8593,12.8593,12.8593,12.8593,12.8593,12.8593,12.8593,14.4307,14.3213,14.2405,14.1828,14.1352,14.0213,13.9531,13.9218,13.8906,13.8593,13.8203,13.8125,13.789,13.7422,13.7422,13.7422,13.7422,13.7343,13.7422,13.7422,13.7422,13.6953,13.6484,13.6328,13.6328,13.6328,13.6328,13.625,13.625,13.6328,13.6328,13.625,13.6328,13.6328,13.6172,13.6328,13.6328,13.625,13.6328,13.6015,13.5625,13.5547,13.5312,13.4843,13.4531,13.4218,13.3906,13.3828,13.3828,13.375,13.375,13.3515,13.3125,13.3047,13.2812,13.2265,13.2265,13.2343,13.2187,13.1953,13.1718,13.164,13.1484,13.1015,13.0468,13.0156,12.9609,12.9297,12.8828,12.8672,12.8593,12.8593,12.8593,12.8593,12.8593,12.8593,12.8593,12.8593,12.8593,12.8593,12.8593,12.8593,12.8593,12.8593,12.8593,12.8593,12.8593,12.8593,12.8593,12.8593,12.8593,12.8593,12.8593,12.8593,12.8593,12.8593,12.8593,12.8593,12.8593,12.8593,12.8593,12.8593,12.8593,12.8593,12.8593,12.8593,12.8593,12.8593,12.8593,12.8593,12.8593,12.8593,12.8593,12.8593,12.8593,14.4638,14.3279,14.2505,14.2119,14.1787,14.0432,13.9843,13.9609,13.9062,13.875,13.8672,13.875,13.8593,13.8906,13.8515,13.875,13.8828,13.8593,13.8672,13.8672,13.8593,13.8047,13.6953,13.6875,13.6875,13.6797,13.664,13.6718,13.6875,13.6797,13.664,13.6797,13.6797,13.664,13.6875,13.6718,13.6562,13.6797,13.6875,13.6718,13.6484,13.6406,13.625,13.5937,13.5468,13.4922,13.4375,13.4062,13.3984,13.3906,13.3828,13.375,13.375,13.375,13.375,13.3593,13.3515,13.3593,13.3593,13.2968,13.2656,13.2578,13.1953,13.1406,13.125,13.0781,13.0312,12.9765,12.914,12.8828,12.8593,12.8593,12.8593,12.8593,12.8593,12.8593,12.8593,12.8593,12.8593,12.8593,12.8593,12.8593,12.8593,12.8593,12.8593,12.8593,12.8593,12.8593,12.8593,12.8593,12.8593,12.8593,12.8593,12.8593,12.8593,12.8593,12.8593,12.8593,12.8593,12.8593,12.8593,12.8593,12.8593,12.8593,12.8593,12.8593,12.8593,12.8593,12.8593,12.8593,12.8593,12.8593,12.8593,12.8593,12.8593,14.4716,14.3666,14.2815,14.2196,14.1775,14.132,14.0565,13.9621,13.9434,13.8998,13.8515,13.8359,13.8515,13.8672,13.8672,13.875,13.8828,13.8828,13.8906,13.8906,13.8906,13.875,13.8281,13.8203,13.8281,13.8203,13.8281,13.8281,13.8281,13.8125,13.8281,13.8203,13.8047,13.8281,13.8203,13.8125,13.8359,13.8281,13.8281,13.789,13.7343,13.7265,13.7031,13.6484,13.6172,13.5937,13.5703,13.5078,13.4765,13.4609,13.4218,13.3984,13.3828,13.3828,13.3828,13.3828,13.3828,13.3828,13.375,13.3593,13.3515,13.3359,13.3125,13.2968,13.2265,13.2031,13.1172,13.0312,12.9687,12.9297,12.8672,12.8593,12.8593,12.8593,12.8593,12.8593,12.8593,12.8593,12.8593,12.8593,12.8593,12.8593,12.8593,12.8593,12.8593,12.8593,12.8593,12.8593,12.8593,12.8593,12.8593,12.8593,12.8593,12.8593,12.8593,12.8593,12.8593,12.8593,12.8593,12.8593,12.8593,12.8593,12.8593,12.8593,12.8593,12.8593,12.8593,12.8593,12.8593,12.8593,12.8593,12.8593,12.8593,12.8593,12.8593,14.4672,14.3821,14.297,14.2428,14.2119,14.1732,14.119,14.0494,14.0072,13.9522,13.8914,13.8842,13.8686,13.8453,13.8453,13.8515,13.856,13.8672,13.8828,13.8906,13.8906,13.8906,13.8906,13.8906,13.8906,13.8906,13.8828,13.8906,13.8906,13.8906,13.8828,13.8906,13.8906,13.875,13.8906,13.8906,13.8828,13.8828,13.8906,13.8672,13.8281,13.8203,13.7812,13.7109,13.6875,13.6797,13.625,13.5859,13.5625,13.5468,13.5156,13.4531,13.3906,13.3828,13.3828,13.3828,13.3828,13.3828,13.3828,13.3828,13.375,13.3828,13.3828,13.3593,13.3125,13.2812,13.2187,13.1172,13.039,12.9531,12.875,12.8593,12.8593,12.8593,12.8593,12.8593,12.8593,12.8593,12.8593,12.8593,12.8593,12.8593,12.8593,12.8593,12.8593,12.8593,12.8593,12.8593,12.8593,12.8593,12.8593,12.8593,12.8593,12.8593,12.8593,12.8593,12.8593,12.8593,12.8593,12.8593,12.8593,12.8593,12.8593,12.8593,12.8593,12.8593,12.8593,12.8593,12.8593,12.8593,12.8593,12.8593,12.8593,12.8593,12.8593,14.4749,14.3975,14.3047,14.2583,14.2505,14.1887,14.1654,14.15,14.0924,14.0233,13.9608,13.9608,13.9229,13.8762,13.8607,13.8602,13.8746,13.8906,13.9297,13.9375,13.9375,13.9375,13.9375,13.9375,13.9375,13.9218,13.8984,13.8906,13.8906,13.8906,13.8906,13.8906,13.914,13.9218,13.914,13.9297,13.9531,13.9531,13.9375,13.9218,13.8984,13.8906,13.8437,13.7968,13.7812,13.7578,13.7031,13.6718,13.6484,13.6484,13.6406,13.5547,13.4609,13.3984,13.3984,13.3984,13.3906,13.3828,13.3828,13.3828,13.3828,13.3828,13.3828,13.3828,13.3593,13.3203,13.2656,13.2031,13.1093,12.9843,12.8984,12.8906,12.8828,12.8672,12.8593,12.8593,12.8593,12.8593,12.8593,12.8593,12.8593,12.8593,12.8593,12.8593,12.8593,12.8593,12.8593,12.8593,12.8593,12.8593,12.8593,12.8593,12.8593,12.8593,12.8593,12.8593,12.8593,12.8593,12.8593,12.8593,12.8593,12.8593,12.8593,12.8593,12.8593,12.8593,12.8593,12.8593,12.8593,12.8593,12.8593,12.8593,12.8593,12.8593,12.8593,14.5136,14.4826,14.3279,14.2583,14.2583,14.2428,14.2041,14.15,14.1345,14.0803,14.0107,13.9995,14.0072,13.9918,14.003,14.0107,14.0074,14.0078,14.0234,14.0312,14.0312,14.0312,14.0272,14.0234,14.039,14.0312,13.9687,13.9062,13.9062,13.8906,13.9218,13.914,13.9687,14.0,14.0156,14.0625,14.0781,14.0625,14.0234,14.0,13.9843,13.9453,13.8984,13.875,13.8672,13.8515,13.8281,13.7734,13.7343,13.7343,13.6718,13.625,13.5859,13.5234,13.4922,13.4687,13.4218,13.3984,13.3906,13.3828,13.3828,13.3828,13.3828,13.3828,13.375,13.3593,13.3125,13.2422,13.164,13.0625,12.9765,12.9687,12.9297,12.8906,12.8672,12.8672,12.8593,12.8593,12.8593,12.8593,12.8593,12.8593,12.8593,12.8593,12.8593,12.8593,12.8593,12.8593,12.8593,12.8593,12.8593,12.8593,12.8593,12.8593,12.8593,12.8593,12.8593,12.8593,12.8593,12.8593,12.8593,12.8593,12.8593,12.8593,12.8593,12.8593,12.8593,12.8593,12.8593,12.8593,12.8593,12.8593,12.8593,12.8593,12.8593,14.56,14.5058,14.3821,14.297,14.266,14.2583,14.2351,14.2041,14.2041,14.1577,14.0958,14.0726,14.0494,14.0339,14.0219,14.0417,14.0585,14.0617,14.065,14.0783,14.0838,14.0813,14.0881,14.0868,14.0859,14.0703,14.0156,14.0,14.0234,14.0312,14.0156,14.0312,14.0703,14.0859,14.0937,14.1172,14.1484,14.1406,14.1093,14.0859,14.0859,14.0312,14.0078,13.9687,13.9531,13.9375,13.8828,13.8593,13.8281,13.8203,13.789,13.7656,13.7343,13.6875,13.6093,13.5625,13.4922,13.4453,13.4297,13.414,13.3828,13.3828,13.3828,13.3828,13.3828,13.3672,13.3437,13.2656,13.2265,13.1484,13.0625,13.0547,13.0156,12.9531,12.9297,12.9062,12.875,12.8672,12.8672,12.8672,12.8593,12.8593,12.8593,12.8593,12.8593,12.8593,12.8593,12.8593,12.8593,12.8593,12.8593,12.8593,12.8593,12.8593,12.8593,12.8593,12.8593,12.8593,12.8593,12.8593,12.8593,12.8593,12.8593,12.8593,12.8593,12.8593,12.8593,12.8593,12.8593,12.8593,12.8593,12.8593,12.8593,12.8593,12.8593,14.5987,14.5136,14.4285,14.3356,14.266,14.2583,14.2583,14.2583,14.2583,14.2196,14.1732,14.1654,14.1268,14.076,14.0683,14.0803,14.0803,14.0966,14.1085,14.1281,14.1281,14.119,14.119,14.119,14.1358,14.1506,14.1383,14.1306,14.1015,14.1093,14.125,14.1172,14.1328,14.164,14.164,14.1875,14.1797,14.1834,14.164,14.1562,14.1484,14.1406,14.1172,14.0547,14.0468,14.0156,13.9687,13.9297,13.9218,13.9062,13.8906,13.8828,13.875,13.8203,13.7578,13.6797,13.5859,13.539,13.5078,13.4531,13.414,13.4218,13.3906,13.3828,13.3828,13.375,13.3515,13.289,13.2734,13.2422,13.164,13.1484,13.1015,13.039,13.0078,12.9922,12.9297,12.8984,12.8828,12.875,12.8672,12.8593,12.8593,12.8593,12.8593,12.8593,12.8593,12.8593,12.8593,12.8593,12.8593,12.8593,12.8593,12.8593,12.8593,12.8593,12.8593,12.8593,12.8593,12.8593,12.8593,12.8593,12.8593,12.8593,12.8593,12.8593,12.8593,12.8593,12.8593,12.8593,12.8593,12.8593,12.8593,12.8593,12.8593,14.5987,14.5136,14.4285,14.3356,14.266,14.2583,14.2583,14.2583,14.2583,14.2583,14.2351,14.2428,14.2351,14.2196,14.2196,14.2273,14.2273,14.2119,14.2119,14.2119,14.2196,14.2196,14.2273,14.2351,14.2273,14.2317,14.2485,14.1952,14.1484,14.1172,14.1093,14.125,14.1797,14.2031,14.2187,14.2575,14.3066,14.2929,14.2364,14.1797,14.1406,14.1562,14.1562,14.1406,14.1328,14.1172,14.0859,14.039,14.0078,14.0,13.9375,13.8984,13.8906,13.8828,13.875,13.8125,13.7265,13.6172,13.6015,13.5312,13.4765,13.4609,13.4297,13.3906,13.3828,13.3828,13.375,13.375,13.3593,13.3203,13.25,13.2343,13.1875,13.1406,13.1015,13.0625,13.0,12.9687,12.9531,12.9062,12.8984,12.875,12.8593,12.8593,12.8593,12.8593,12.8593,12.8593,12.8593,12.8593,12.8593,12.8593,12.8593,12.8593,12.8593,12.8593,12.8593,12.8593,12.8593,12.8593,12.8593,12.8593,12.8593,12.8593,12.8593,12.8593,12.8593,12.8593,12.8593,12.8593,12.8593,12.8593,12.8593,12.8593,12.8593,14.6451,14.5213,14.4826,14.3821,14.266,14.2583,14.2583,14.2583,14.2583,14.2583,14.2583,14.2583,14.2583,14.2583,14.2583,14.2583,14.2583,14.2583,14.2583,14.2583,14.2583,14.2583,14.2583,14.2583,14.266,14.2738,14.2781,14.2485,14.1932,14.2007,14.2216,14.2162,14.2552,14.2812,14.262,14.31,14.3253,14.3143,14.2932,14.2616,14.25,14.2578,14.25,14.2031,14.2187,14.1953,14.1562,14.125,14.0937,14.0859,14.0468,14.0156,13.9765,13.9609,13.9453,13.8828,13.8281,13.7578,13.7031,13.6172,13.5625,13.5078,13.4687,13.4375,13.3984,13.3828,13.3828,13.375,13.3828,13.3593,13.3281,13.3281,13.2734,13.2265,13.1953,13.1406,13.0937,13.0703,13.039,12.9843,12.9297,12.9062,12.8828,12.8672,12.8593,12.8593,12.8593,12.8593,12.8593,12.8593,12.8593,12.8593,12.8593,12.8593,12.8593,12.8593,12.8593,12.8593,12.8593,12.8593,12.8593,12.8593,12.8593,12.8593,12.8593,12.8593,12.8593,12.8593,12.8593,12.8593,12.8593,12.8593,12.8593,12.8593,12.8593,14.6528,14.5213,14.5213,14.4207,14.266,14.2583,14.2583,14.2583,14.2583,14.2583,14.2583,14.2583,14.2583,14.2583,14.2583,14.2583,14.2583,14.2583,14.2583,14.2583,14.2583,14.2583,14.2583,14.2583,14.2583,14.2583,14.266,14.2556,14.2669,14.2788,14.287,14.3124,14.2872,14.2985,14.3056,14.3091,14.3047,14.3168,14.3175,14.3135,14.3203,14.3359,14.3125,14.289,14.2812,14.2734,14.2187,14.1875,14.1797,14.1797,14.1484,14.1015,14.0625,14.0468,14.0078,13.9531,13.9062,13.875,13.7968,13.7109,13.6328,13.5781,13.5078,13.4687,13.4297,13.3984,13.3828,13.3828,13.3828,13.3828,13.375,13.375,13.3437,13.3047,13.2812,13.2265,13.1797,13.1562,13.1172,13.0468,12.9922,12.9453,12.9218,12.8828,12.8672,12.8593,12.8593,12.8593,12.8593,12.8593,12.8593,12.8593,12.8593,12.8593,12.8593,12.8593,12.8593,12.8593,12.8593,12.8593,12.8593,12.8593,12.8593,12.8593,12.8593,12.8593,12.8593,12.8593,12.8593,12.8593,12.8593,12.8593,12.8593,12.8593,12.8593,14.5987,14.5213,14.5213,14.413,14.2583,14.2583,14.2583,14.2583,14.2583,14.2583,14.2583,14.2583,14.2583,14.2583,14.2583,14.2583,14.2583,14.2583,14.2583,14.2583,14.2583,14.2583,14.2583,14.2583,14.2583,14.2583,14.2583,14.2583,14.2583,14.266,14.2738,14.266,14.2738,14.266,14.266,14.2738,14.2815,14.2936,14.3021,14.3175,14.3219,14.3361,14.3256,14.3318,14.3437,14.3593,14.3515,14.2968,14.2656,14.2656,14.2187,14.1718,14.1484,14.1406,14.0937,14.0312,13.9922,13.9531,13.8828,13.8047,13.7578,13.6953,13.6093,13.5078,13.4687,13.414,13.3906,13.3828,13.3828,13.3828,13.3828,13.375,13.3672,13.3593,13.3281,13.3047,13.2656,13.25,13.2031,13.1172,13.0625,13.0234,12.9609,12.9218,12.875,12.8672,12.8593,12.8593,12.8593,12.8593,12.8593,12.8593,12.8593,12.8593,12.8593,12.8593,12.8593,12.8593,12.8593,12.8593,12.8593,12.8593,12.8593,12.8593,12.8593,12.8593,12.8593,12.8593,12.8593,12.8593,12.8593,12.8593,12.8593,12.8593,12.8593,14.6031,14.518,14.4594,14.3743,14.2583,14.2583,14.2583,14.2583,14.2583,14.2583,14.2583,14.2583,14.2583,14.2583,14.2583,14.2583,14.2583,14.2583,14.2583,14.2583,14.2583,14.2583,14.2583,14.2583,14.2583,14.2583,14.2583,14.2583,14.2583,14.2583,14.2583,14.2583,14.2583,14.2583,14.2583,14.266,14.2738,14.283,14.2908,14.3084,14.3091,14.3245,14.3299,14.3351,14.3385,14.3569,14.3593,14.3515,14.3437,14.3359,14.3125,14.2734,14.2343,14.2265,14.1797,14.1093,14.0625,14.0156,13.9687,13.8906,13.8203,13.7422,13.6484,13.5625,13.5234,13.4687,13.4218,13.3984,13.3828,13.3906,13.3828,13.3828,13.375,13.3828,13.3672,13.3515,13.3359,13.3125,13.289,13.2031,13.1562,13.1172,13.039,12.9609,12.914,12.875,12.8672,12.8593,12.8593,12.8593,12.8593,12.8593,12.8593,12.8593,12.8593,12.8593,12.8593,12.8593,12.8593,12.8593,12.8593,12.8593,12.8593,12.8593,12.8593,12.8593,12.8593,12.8593,12.8593,12.8593,12.8593,12.8593,12.8593,12.8593,12.8593,14.5644,14.4716,14.3821,14.3124,14.266,14.2583,14.2583,14.2583,14.2583,14.2583,14.2583,14.2583,14.2583,14.2583,14.2583,14.2583,14.2583,14.2583,14.2583,14.2583,14.2583,14.2583,14.2583,14.2583,14.2583,14.2583,14.2583,14.2583,14.2583,14.2583,14.2583,14.2583,14.2583,14.2583,14.266,14.2892,14.297,14.318,14.3488,14.3696,14.3849,14.3584,14.3492,14.3492,14.3335,14.3284,14.3475,14.3515,14.3672,14.3828,14.375,14.3593,14.3359,14.3047,14.2656,14.1953,14.1406,14.0859,14.039,13.9453,13.8672,13.8047,13.7265,13.6484,13.5937,13.5547,13.5078,13.4375,13.4218,13.4062,13.3906,13.3828,13.3828,13.3828,13.3828,13.3672,13.3672,13.3515,13.3281,13.289,13.2422,13.1875,13.1172,13.0312,12.9375,12.8906,12.8672,12.8593,12.8593,12.8593,12.8593,12.8593,12.8593,12.8593,12.8593,12.8593,12.8593,12.8593,12.8593,12.8593,12.8593,12.8593,12.8593,12.8593,12.8593,12.8593,12.8593,12.8593,12.8593,12.8593,12.8593,12.8593,12.8593,12.8593,12.8593,14.4749,14.3864,14.297,14.266,14.2583,14.2583,14.2583,14.2583,14.2583,14.2583,14.2583,14.2583,14.2583,14.2583,14.2583,14.2583,14.2583,14.2583,14.2583,14.2583,14.2583,14.2583,14.2583,14.2583,14.2583,14.2583,14.2583,14.2583,14.2583,14.2583,14.2583,14.266,14.2738,14.2815,14.2738,14.3477,14.4019,14.4329,14.4724,14.5014,14.494,14.4379,14.4086,14.3919,14.371,14.3609,14.3461,14.383,14.3906,14.3828,14.3906,14.3906,14.3828,14.375,14.3437,14.2812,14.2656,14.2187,14.1406,13.9843,13.9062,13.8672,13.789,13.7422,13.7265,13.6718,13.5937,13.5156,13.4843,13.4531,13.414,13.3828,13.3828,13.3828,13.3828,13.3828,13.3828,13.3828,13.3515,13.3437,13.2968,13.2422,13.1797,13.1015,12.9765,12.9062,12.875,12.8593,12.8593,12.8593,12.8593,12.8593,12.8593,12.8593,12.8593,12.8593,12.8593,12.8593,12.8593,12.8593,12.8593,12.8593,12.8593,12.8593,12.8593,12.8593,12.8593,12.8593,12.8593,12.8593,12.8593,12.8593,12.8593,12.8593,12.8593,14.4716,14.3864,14.297,14.2583,14.2583,14.2583,14.2583,14.2583,14.2583,14.2583,14.2583,14.2583,14.2583,14.2583,14.2583,14.2583,14.2583,14.2583,14.2583,14.2583,14.2583,14.2583,14.2583,14.2583,14.2583,14.2583,14.2583,14.2583,14.2583,14.2583,14.2583,14.266,14.3279,14.3477,14.371,14.4251,14.487,14.4904,14.5223,14.5392,14.5499,14.514,14.4905,14.4948,14.4716,14.4372,14.3914,14.4294,14.428,14.3906,14.3984,14.4062,14.3984,14.3984,14.3828,14.3437,14.3203,14.2422,14.1562,14.039,13.9531,13.9062,13.8593,13.8125,13.7656,13.7422,13.6718,13.6015,13.5468,13.5078,13.4687,13.4062,13.3906,13.3828,13.3828,13.3828,13.3828,13.3828,13.3672,13.3672,13.3359,13.2968,13.2422,13.1797,13.0625,12.9765,12.9375,12.8828,12.8672,12.8593,12.8593,12.8593,12.8593,12.8593,12.8593,12.8593,12.8593,12.8593,12.8593,12.8593,12.8593,12.8593,12.8593,12.8593,12.8593,12.8593,12.8593,12.8593,12.8593,12.8593,12.8593,12.8593,12.8593,12.8593,12.8593,14.4251,14.34,14.2815,14.2583,14.2583,14.2583,14.2583,14.2583,14.2583,14.2583,14.2583,14.2583,14.2583,14.2583,14.2583,14.2583,14.2583,14.2583,14.2583,14.2583,14.2583,14.2583,14.2583,14.2583,14.2583,14.2583,14.2583,14.2583,14.2583,14.2583,14.2815,14.3279,14.4207,14.4749,14.5058,14.5368,14.5677,14.5832,14.6109,14.6418,14.6315,14.6075,14.5843,14.5755,14.5456,14.512,14.4837,14.4782,14.4843,14.4297,14.414,14.4218,14.4062,14.3984,14.3984,14.375,14.3515,14.2812,14.2031,14.164,14.0859,14.0078,13.9375,13.8672,13.8203,13.8125,13.7578,13.6875,13.6172,13.5781,13.539,13.4687,13.4297,13.4218,13.3984,13.3984,13.3828,13.3828,13.3828,13.3828,13.375,13.3359,13.2968,13.2265,13.1484,13.0781,13.0156,12.9453,12.8828,12.875,12.8672,12.8593,12.8593,12.8593,12.8593,12.8593,12.8593,12.8593,12.8593,12.8593,12.8593,12.8593,12.8593,12.8593,12.8593,12.8593,12.8593,12.8593,12.8593,12.8593,12.8593,12.8593,12.8593,12.8593,12.8593,14.34,14.266,14.2583,14.2583,14.2583,14.2583,14.2583,14.2583,14.2583,14.2583,14.2583,14.2583,14.2583,14.2583,14.2583,14.2583,14.2583,14.2583,14.2583,14.2583,14.2583,14.2583,14.2583,14.2583,14.2583,14.2583,14.266,14.266,14.266,14.3124,14.3477,14.4207,14.5445,14.5987,14.6296,14.6451,14.6528,14.6683,14.6993,14.7225,14.7147,14.6792,14.6683,14.6451,14.6186,14.5726,14.5451,14.5499,14.5254,14.5,14.4843,14.4531,14.4297,14.4062,14.3984,14.3984,14.3906,14.3437,14.2968,14.2656,14.2187,14.125,14.0,13.9297,13.8906,13.875,13.8203,13.7812,13.7187,13.6797,13.6406,13.5703,13.5078,13.4765,13.4297,13.414,13.3984,13.3906,13.3828,13.3828,13.3828,13.3593,13.3515,13.289,13.2265,13.1797,13.1093,13.039,12.9765,12.9062,12.8906,12.8593,12.8593,12.8593,12.8593,12.8593,12.8593,12.8593,12.8593,12.8593,12.8593,12.8593,12.8593,12.8593,12.8593,12.8593,12.8593,12.8593,12.8593,12.8593,12.8593,12.8593,12.8593,12.8593,12.8593,14.34,14.266,14.2583,14.2583,14.2583,14.2583,14.2583,14.2583,14.2583,14.2583,14.2583,14.2583,14.2583,14.2583,14.2583,14.2583,14.2583,14.2583,14.2583,14.2583,14.2583,14.2583,14.2583,14.2583,14.2583,14.2583,14.266,14.297,14.3555,14.3942,14.4826,14.5832,14.6296,14.6792,14.7147,14.7302,14.7302,14.7379,14.7611,14.7689,14.7689,14.7379,14.7302,14.7147,14.7147,14.6665,14.6282,14.6477,14.6163,14.5715,14.5234,14.4843,14.5,14.4375,14.3984,14.3984,14.3984,14.3828,14.3593,14.3125,14.2734,14.2343,14.1328,14.0547,13.9922,13.9375,13.8906,13.8437,13.7968,13.75,13.7109,13.6562,13.6093,13.5703,13.5156,13.4687,13.4531,13.414,13.4062,13.3828,13.3828,13.375,13.3672,13.3593,13.3047,13.2656,13.2109,13.1406,13.0625,12.9922,12.9297,12.8984,12.8828,12.8828,12.8672,12.8593,12.8593,12.8593,12.8593,12.8593,12.8593,12.8593,12.8593,12.8593,12.8593,12.8593,12.8593,12.8593,12.8593,12.8593,12.8593,12.8593,12.8593,12.8593,12.8593,14.3047,14.266,14.2583,14.2583,14.2583,14.2583,14.2583,14.2583,14.2583,14.2583,14.2583,14.2583,14.2583,14.2583,14.2583,14.2583,14.2583,14.2583,14.2583,14.2583,14.2583,14.2583,14.2583,14.266,14.2583,14.266,14.297,14.3477,14.4174,14.5136,14.6064,14.6328,14.6715,14.7225,14.7534,14.7611,14.7689,14.7689,14.7689,14.7689,14.7689,14.7689,14.7689,14.7766,14.7921,14.7534,14.7147,14.7302,14.6993,14.6385,14.5899,14.5781,14.5703,14.5,14.4218,14.414,14.3984,14.3984,14.3828,14.3593,14.3359,14.3047,14.25,14.1875,14.1015,14.0312,13.9531,13.8828,13.8437,13.8047,13.7734,13.7422,13.7109,13.6797,13.6093,13.539,13.5,13.4531,13.4218,13.3906,13.3828,13.3828,13.3828,13.3828,13.375,13.3359,13.2968,13.25,13.1718,13.0937,13.0078,12.9453,12.9297,12.914,12.8984,12.875,12.8672,12.8672,12.8593,12.8593,12.8593,12.8593,12.8593,12.8593,12.8593,12.8593,12.8593,12.8593,12.8593,12.8593,12.8593,12.8593,12.8593,12.8593,12.8593,14.2583,14.2583,14.2583,14.2583,14.2583,14.2583,14.2583,14.2583,14.2583,14.2583,14.2583,14.2583,14.2583,14.2583,14.2583,14.2583,14.2583,14.2583,14.2583,14.2583,14.2583,14.2583,14.266,14.266,14.297,14.3124,14.3511,14.4251,14.4594,14.5677,14.6606,14.6638,14.7225,14.7611,14.7689,14.7689,14.7689,14.7689,14.7689,14.7689,14.7689,14.7689,14.7689,14.7689,14.7766,14.7689,14.7689,14.7611,14.7534,14.7213,14.6958,14.6794,14.625,14.5781,14.5,14.4453,14.4297,14.414,14.4062,14.3828,14.3906,14.3672,14.3359,14.2812,14.2031,14.0781,13.9843,13.9297,13.8906,13.8593,13.8281,13.8047,13.7812,13.75,13.6953,13.6406,13.5937,13.5312,13.4609,13.4218,13.3906,13.3906,13.3828,13.3828,13.3828,13.3672,13.3593,13.3203,13.2812,13.1953,13.1093,13.0234,13.0,12.9843,12.9531,12.9297,12.8984,12.8828,12.875,12.8593,12.8593,12.8593,12.8593,12.8593,12.8593,12.8593,12.8593,12.8593,12.8593,12.8593,12.8593,12.8593,12.8593,12.8593,12.8593,14.2583,14.2583,14.2583,14.2583,14.2583,14.2583,14.2583,14.2583,14.2583,14.2583,14.2583,14.2583,14.2583,14.2583,14.2583,14.2583,14.2583,14.2583,14.2583,14.266,14.266,14.2815,14.2815,14.3312,14.3589,14.3821,14.4406,14.5257,14.5909,14.676,14.7379,14.7379,14.7689,14.7689,14.7689,14.7689,14.7689,14.7689,14.7689,14.7689,14.7689,14.7689,14.7689,14.7689,14.7689,14.7689,14.7766,14.7844,14.7921,14.7822,14.7555,14.7097,14.6562,14.6406,14.5859,14.5156,14.4922,14.4609,14.4218,14.4062,14.3984,14.3984,14.3672,14.3281,14.25,14.1093,14.0156,13.9843,13.9453,13.914,13.8906,13.8672,13.8437,13.8125,13.7812,13.7343,13.6875,13.6015,13.5078,13.4609,13.4218,13.4062,13.3984,13.3828,13.3828,13.375,13.375,13.3593,13.3593,13.2968,13.2187,13.1484,13.1015,13.0703,13.0312,12.9922,12.9687,12.9297,12.9218,12.8906,12.8672,12.8593,12.8593,12.8593,12.8593,12.8593,12.8593,12.8593,12.8593,12.8593,12.8593,12.8593,12.8593,12.8593,12.8593,14.2583,14.2583,14.2583,14.2583,14.2583,14.2583,14.2583,14.2583,14.2583,14.2583,14.2583,14.2583,14.2583,14.2583,14.2583,14.2583,14.2583,14.2583,14.2583,14.266,14.297,14.3202,14.3511,14.4086,14.4318,14.4672,14.5368,14.6219,14.6993,14.7379,14.7689,14.7689,14.7689,14.7689,14.7689,14.7689,14.7689,14.7689,14.7689,14.7689,14.7689,14.7689,14.7689,14.7689,14.7689,14.7689,14.7766,14.7844,14.7998,14.8153,14.8043,14.7667,14.7265,14.7109,14.6718,14.6015,14.5468,14.5078,14.4609,14.4297,14.4062,14.3984,14.3984,14.3593,14.3437,14.2187,14.1328,14.0859,14.0078,13.9687,13.9453,13.9218,13.8906,13.8515,13.8359,13.8047,13.7343,13.6484,13.5859,13.5547,13.5234,13.5,13.4843,13.4453,13.4297,13.3828,13.3828,13.3906,13.3906,13.3906,13.3203,13.2578,13.2031,13.1406,13.0859,13.0703,13.0547,13.0156,12.9765,12.9218,12.8906,12.8672,12.8593,12.8672,12.8672,12.8593,12.8593,12.8593,12.8593,12.8593,12.8593,12.8593,12.8593,12.8593,12.8593,14.2583,14.2583,14.2583,14.2583,14.2583,14.2583,14.2583,14.2583,14.2583,14.2583,14.2583,14.2583,14.2583,14.2583,14.2583,14.2583,14.2583,14.2583,14.2583,14.3047,14.3555,14.3821,14.4285,14.4859,14.5323,14.5787,14.6374,14.6915,14.7534,14.7689,14.7689,14.7689,14.7689,14.7689,14.7689,14.7689,14.7689,14.7689,14.7689,14.7689,14.7689,14.7689,14.7689,14.7689,14.7689,14.7689,14.7689,14.7766,14.7921,14.8153,14.8397,14.8265,14.8047,14.789,14.75,14.6875,14.6328,14.5781,14.5156,14.4609,14.4297,14.4062,14.3984,14.3906,14.375,14.3281,14.2422,14.1797,14.1015,14.0312,14.0078,13.9687,13.9375,13.8984,13.8906,13.8672,13.7812,13.7031,13.6718,13.6484,13.6172,13.5859,13.5547,13.5234,13.4843,13.4297,13.4062,13.3984,13.4062,13.414,13.3906,13.3359,13.289,13.2265,13.1718,13.1406,13.1406,13.1093,13.0625,12.9843,12.9297,12.9531,12.9453,12.8906,12.8906,12.8906,12.8672,12.8593,12.8593,12.875,12.8593,12.8593,12.8593,12.8593,12.8593,14.2583,14.2583,14.2583,14.2583,14.2583,14.2583,14.2583,14.2583,14.2583,14.2583,14.2583,14.2583,14.2583,14.2583,14.2583,14.2583,14.2583,14.266,14.3124,14.371,14.3898,14.4362,14.5058,14.5787,14.656,14.6993,14.7225,14.7534,14.7689,14.7689,14.7689,14.7689,14.7689,14.7689,14.7689,14.7689,14.7689,14.7689,14.7689,14.7689,14.7689,14.7689,14.7689,14.7689,14.7689,14.7689,14.7766,14.7921,14.7998,14.823,14.8475,14.8573,14.8593,14.8593,14.8281,14.7812,14.7265,14.6562,14.5937,14.5312,14.5,14.4218,14.4218,14.4062,14.3984,14.3906,14.3281,14.3125,14.2343,14.1484,14.1015,14.039,13.9922,13.9609,13.9453,13.9062,13.8437,13.789,13.7422,13.7109,13.6797,13.6562,13.625,13.6015,13.5937,13.5547,13.5468,13.5312,13.4843,13.4687,13.4531,13.4218,13.3828,13.3593,13.3281,13.25,13.2187,13.1953,13.1562,13.0781,13.0468,13.0703,13.0547,12.9843,12.9531,12.9531,12.9218,12.914,12.8984,12.9062,12.875,12.8593,12.8672,12.875,12.8906]},{"header":{"parameterUnit":"m.s-1","parameterCategory":1,"la1":31.0,"la2":29.5877,"lo1":-88.7671,"lo2":-86.6584,"dy":0.0162,"dx":0.0185,"nx":115,"ny":88,"refTime":"2023-10-29T12:00:00:Z","depth":0,"parameterNumber":3,"parameterNumberName":"V-component_of_WINDS"},"data":[0.0,0.0,0.0,0.0,0.0,0.0,0.0,0.0,0.0,0.0,0.0,0.0,0.0,0.0,0.0,0.0,0.0,0.0,0.0,0.0,0.0,0.0,0.0,0.0,0.0,0.0,0.0,0.0,0.0,0.0,0.0,0.0,0.0,0.0,0.0,0.0,0.0,0.0,0.0,0.0,0.0,0.0,0.0,0.0,0.0,0.0,0.0,0.0,0.0,0.0,0.0,0.0,0.0,0.0,0.0,0.0,0.0,0.0,0.0,0.0,0.0,0.0,0.0,0.0,0.0,0.0,0.0,0.0,0.0,0.0,0.0,0.0,0.0,0.0,0.0,0.0,0.0,0.0,0.0,0.0,0.0,0.0,0.0,0.0,0.0,0.0,0.0,0.0,0.0,0.0,0.0,0.0,0.0,0.0,0.0,0.0,0.0,0.0,0.0,0.0,0.0,0.0,0.0,0.0,0.0,0.0,0.0,0.0,0.0,0.0,0.0,0.0,0.0,0.0,0.0,0.0,0.0,0.0,0.0,0.0,0.0,0.0,0.0,0.0,0.0,0.0,0.0,0.0,0.0,0.0,0.0,0.0,0.0,0.0,0.0,0.0,0.0,0.0,0.0,0.0,0.0,0.0,0.0,0.0,0.0,0.0,0.0,0.0,0.0,0.0,0.0,0.0,0.0,0.0,0.0,0.0,0.0,0.0,0.0,0.0,0.0,0.0,0.0,0.0,0.0,0.0,0.0,0.0,0.0,0.0,0.0,0.0,0.0,0.0,0.0,0.0,0.0,0.0,0.0,0.0,0.0,0.0,0.0,0.0,0.0,0.0,0.0,0.0,0.0,0.0,0.0,0.0,0.0,0.0,0.0,0.0,0.0,0.0,0.0,0.0,0.0,0.0,0.0,0.0,0.0,0.0,0.0,0.0,0.0,0.0,0.0,0.0,0.0,0.0,0.0,0.0,0.0,0.0,0.0,0.0,0.0,0.0,0.0,0.0,0.0,0.0,0.0,0.0,0.0,0.0,0.0,0.0,0.0,0.0,0.0,0.0,0.0,0.0,0.0,0.0,0.0,0.0,0.0,0.0,0.0,0.0,0.0,0.0,0.0,0.0,0.0,0.0,0.0,0.0,0.0,0.0,0.0,0.0,0.0,0.0,0.0,0.0,0.0,0.0,0.0,0.0,0.0,0.0,0.0,0.0,0.0,0.0,0.0,0.0,0.0,0.0,0.0,0.0,0.0,0.0,0.0,0.0,0.0,0.0,0.0,0.0,0.0,0.0,0.0,0.0,0.0,0.0,0.0,0.0,0.0,0.0,0.0,0.0,0.0,0.0,0.0,0.0,0.0,0.0,0.0,0.0,0.0,0.0,0.0,0.0,0.0,0.0,0.0,0.0,0.0,0.0,0.0,0.0,0.0,0.0,0.0,0.0,0.0,0.0,0.0,0.0,0.0,0.0,0.0,0.0,0.0,0.0,0.0,0.0,0.0,0.0,0.0,0.0,0.0,0.0,0.0,0.0,0.0,0.0,0.0,0.0,0.0,0.0,0.0,0.0,0.0,0.0,0.0,0.0,0.0,0.0,0.0,0.0,0.0,0.0,0.0,0.0,0.0,0.0,0.0,0.0,0.0,0.0,0.0,0.0,0.0,0.0,0.0,0.0,0.0,0.0,0.0,0.0,0.0,0.0,0.0,0.0,0.0,0.0,0.0,0.0,0.0,0.0,0.0,0.0,0.0,0.0,0.0,0.0,0.0,0.0,0.0,0.0,0.0,0.0,0.0,0.0,0.0,0.0,0.0,0.0,0.0,0.0,0.0,0.0,0.0,0.0,0.0,0.0,0.0,0.0,0.0,0.0,0.0,0.0,0.0,0.0,0.0,0.0,0.0,0.0,0.0,0.0,0.0,0.0,0.0,0.0,0.0,0.0,0.0,0.0,0.0,0.0,0.0,0.0,0.0,0.0,0.0,0.0,0.0,0.0,0.0,0.0,0.0,0.0,0.0,0.0,0.0,0.0,0.0,0.0,0.0,0.0,0.0,0.0,0.0,0.0,0.0,0.0,0.0,0.0,0.0,0.0,0.0,0.0,0.0,0.0,0.0,0.0,0.0,0.0,0.0,0.0,0.0,0.0,0.0,0.0,0.0,0.0,0.0,0.0,0.0,0.0,0.0,0.0,0.0,0.0,0.0,0.0,0.0,0.0,0.0,0.0,0.0,0.0,0.0,0.0,0.0,0.0,0.0,0.0,0.0,0.0,0.0,0.0,0.0,0.0,0.0,0.0,0.0,0.0,0.0,0.0,0.0,0.0,0.0,0.0,0.0,0.0,0.0,0.0,0.0,0.0,0.0,0.0,0.0,0.0,0.0,0.0,0.0,0.0,0.0,0.0,0.0,0.0,0.0,0.0,0.0,0.0,0.0,0.0,0.0,0.0,0.0,0.0,0.0,0.0,0.0,0.0,0.0,0.0,0.0,0.0,0.0,0.0,0.0,0.0,0.0,0.0,0.0,0.0,0.0,0.0,0.0,0.0,0.0,0.0,0.0,0.0,0.0,0.0,0.0,0.0,0.0,0.0,0.0,0.0,0.0,0.0,0.0,0.0,0.0,0.0,0.0,0.0,0.0,0.0,0.0,0.0,0.0,0.0,0.0,0.0,0.0,0.0,0.0,0.0,0.0,0.0,0.0,0.0,0.0,0.0,0.0,0.0,0.0,0.0,0.0,0.0,0.0,0.0,0.0,0.0,0.0,0.0,0.0,0.0,0.0,0.0,0.0,0.0,0.0,0.0,0.0,0.0,0.0,0.0,0.0,0.0,0.0,0.0,0.0,0.0,0.0,0.0,0.0,0.0,0.0,0.0,0.0,0.0,0.0,0.0,0.0,0.0,0.0,0.0,0.0,0.0,0.0,0.0,0.0,0.0,0.0,0.0,0.0,0.0,0.0,0.0,0.0,0.0,0.0,0.0,0.0,0.0,0.0,0.0,0.0,0.0,0.0,0.0,0.0,0.0,0.0,0.0,0.0,0.0,0.0,0.0,0.0,0.0,0.0,0.0,0.0,0.0,0.0,0.0,0.0,0.0,0.0,0.0,0.0,0.0,0.0,0.0,0.0,0.0,0.0,0.0,0.0,0.0,0.0,0.0,0.0,0.0,0.0,0.0,0.0,0.0,0.0,0.0,0.0,0.0,0.0,0.0,0.0,0.0,0.0,0.0,0.0,0.0,0.0,0.0,0.0,0.0,0.0,0.0,0.0,0.0,0.0,0.0,0.0,0.0,0.0,0.0,0.0,0.0,0.0,0.0,0.0,0.0,0.0,0.0,0.0,0.0,0.0,0.0,0.0,0.0,0.0,0.0,0.0,0.0,0.0,0.0,0.0,0.0,0.0,0.0,0.0,0.0,0.0,0.0,0.0,0.0,0.0,0.0,0.0,0.0,0.0,0.0,0.0,0.0,0.0,0.0,0.0,0.0,0.0,0.0,0.0,0.0,0.0,0.0,0.0,0.0,0.0,0.0,0.0,0.0,0.0,0.0,0.0,0.0,0.0,0.0,0.0,0.0,0.0,0.0,0.0,0.0,0.0,0.0,0.0,0.0,0.0,0.0,0.0,0.0,0.0,0.0,0.0,0.0,0.0,0.0,0.0,0.0,0.0,0.0,0.0,0.0,0.0,0.0,0.0,0.0,0.0,0.0,0.0,0.0,0.0,0.0,0.0,0.0,0.0,0.0,0.0,0.0,0.0,0.0,0.0,0.0,0.0,0.0,0.0,0.0,0.0,0.0,0.0,0.0,0.0,0.0,0.0,0.0,0.0,0.0,0.0,0.0,0.0,0.0,0.0,0.0,0.0,0.0,0.0,0.0,0.0,0.0,0.0,0.0,0.0,0.0,0.0,0.0,0.0,0.0,0.0,0.0,0.0,0.0,0.0,0.0,0.0,0.0,0.0,0.0,0.0,0.0,0.0,0.0,0.0,0.0,0.0,0.0,0.0,0.0,0.0,0.0,0.0,0.0,0.0,0.0,0.0,0.0,0.0,0.0,0.0,0.0,0.0,0.0,0.0,0.0,0.0,0.0,0.0,0.0,0.0,0.0,0.0,0.0,0.0,0.0,0.0,0.0,0.0,0.0,0.0,0.0,0.0,0.0,0.0,0.0,0.0,0.0,0.0,0.0,0.0,0.0,0.0,0.0,0.0,0.0,0.0,0.0,0.0,0.0,0.0,0.0,0.0,0.0,0.0,0.0,0.0,0.0,0.0,0.0,0.0,0.0,0.0,0.0,0.0,0.0,-1.2494,0.0,0.0,0.0,0.0,0.0,0.0,0.0,0.0,0.0,0.0,0.0,0.0,0.0,0.0,0.0,0.0,0.0,0.0,0.0,0.0,0.0,0.0,0.0,0.0,0.0,0.0,0.0,0.0,0.0,0.0,0.0,0.0,0.0,0.0,0.0,0.0,0.0,0.0,0.0,0.0,0.0,0.0,0.0,0.0,0.0,0.0,0.0,0.0,0.0,0.0,0.0,0.0,0.0,0.0,0.0,0.0,0.0,0.0,0.0,0.0,0.0,0.0,0.0,0.0,0.0,0.0,0.0,0.0,0.0,0.0,0.0,0.0,0.0,0.0,0.0,0.0,0.0,0.0,0.0,0.0,0.0,0.0,0.0,0.0,0.0,0.0,0.0,0.0,0.0,0.0,0.0,0.0,0.0,0.0,0.0,0.0,0.0,0.0,0.0,0.0,0.0,0.0,0.0,0.0,0.0,0.0,0.0,0.0,0.0,0.0,-0.9121,-1.2396,-1.2568,-1.2447,-1.2508,0.0,0.0,0.0,0.0,0.0,0.0,0.0,0.0,0.0,0.0,0.0,0.0,0.0,0.0,0.0,0.0,0.0,0.0,0.0,0.0,0.0,0.0,0.0,0.0,0.0,0.0,0.0,0.0,0.0,0.0,0.0,0.0,0.0,0.0,0.0,0.0,0.0,0.0,0.0,0.0,0.0,0.0,0.0,0.0,0.0,0.0,0.0,0.0,0.0,0.0,0.0,0.0,0.0,0.0,0.0,0.0,0.0,0.0,0.0,0.0,0.0,0.0,0.0,0.0,0.0,0.0,0.0,0.0,0.0,0.0,0.0,0.0,0.0,0.0,0.0,0.0,0.0,0.0,0.0,0.0,0.0,0.0,0.0,0.0,0.0,0.0,0.0,0.0,0.0,0.0,0.0,0.0,0.0,0.0,0.0,0.0,0.0,0.0,0.0,0.0,0.0,0.0,0.0,0.0,0.0,0.0,0.0,0.0,0.0,0.0,0.0,0.0,-1.1721,-1.2527,-1.2508,0.0,0.0,0.0,0.0,0.0,0.0,0.0,0.0,0.0,0.0,0.0,0.0,0.0,0.0,0.0,0.0,0.0,0.0,0.0,0.0,0.0,0.0,0.0,0.0,0.0,0.0,0.0,0.0,0.0,0.0,0.0,0.0,0.0,0.0,0.0,0.0,0.0,0.0,0.0,0.0,0.0,0.0,0.0,0.0,0.0,0.0,0.0,0.0,0.0,0.0,0.0,0.0,0.0,0.0,0.0,0.0,0.0,0.0,0.0,0.0,0.0,0.0,0.0,0.0,0.0,0.0,0.0,0.0,0.0,0.0,0.0,0.0,0.0,0.0,0.0,0.0,0.0,0.0,0.0,0.0,0.0,0.0,0.0,0.0,0.0,0.0,0.0,0.0,0.0,0.0,0.0,0.0,0.0,0.0,0.0,0.0,0.0,0.0,0.0,0.0,0.0,0.0,0.0,0.0,0.0,0.0,0.0,0.0,0.0,0.0,-0.9727,-0.3921,-0.9467,0.0,-1.2508,0.0,0.0,0.0,0.0,0.0,0.0,0.0,0.0,0.0,0.0,0.0,0.0,0.0,0.0,0.0,0.0,0.0,0.0,0.0,0.0,0.0,0.0,0.0,0.0,0.0,0.0,0.0,0.0,0.0,0.0,0.0,0.0,0.0,0.0,0.0,0.0,0.0,0.0,0.0,0.0,0.0,0.0,0.0,0.0,0.0,0.0,0.0,0.0,0.0,0.0,0.0,0.0,0.0,0.0,0.0,0.0,0.0,0.0,0.0,0.0,0.0,0.0,0.0,0.0,0.0,0.0,0.0,0.0,0.0,0.0,0.0,0.0,0.0,0.0,0.0,0.0,0.0,0.0,0.0,0.0,0.0,0.0,0.0,0.0,0.0,0.0,0.0,0.0,0.0,0.0,0.0,0.0,0.0,0.0,0.0,0.0,0.0,0.0,0.0,0.0,0.0,0.0,0.0,0.0,0.0,0.0,0.0,0.0,0.0,0.0,-1.2026,-0.9043,-1.1278,-1.2554,0.0,0.0,0.0,0.0,0.0,0.0,0.0,0.0,0.0,0.0,0.0,0.0,0.0,0.0,0.0,0.0,0.0,0.0,0.0,0.0,0.0,0.0,0.0,0.0,0.0,0.0,0.0,0.0,0.0,0.0,0.0,0.0,0.0,0.0,0.0,0.0,0.0,0.0,0.0,0.0,0.0,0.0,0.0,0.0,0.0,0.0,0.0,0.0,0.0,0.0,0.0,0.0,0.0,0.0,0.0,0.0,0.0,0.0,0.0,0.0,0.0,0.0,0.0,0.0,0.0,0.0,0.0,0.0,0.0,0.0,0.0,0.0,0.0,0.0,0.0,0.0,0.0,0.0,0.0,0.0,0.0,0.0,0.0,0.0,0.0,0.0,0.0,0.0,0.0,0.0,0.0,0.0,0.0,0.0,0.0,0.0,0.0,0.0,0.0,0.0,0.0,0.0,0.0,0.0,0.0,0.0,0.0,0.0,0.0,0.0,-0.978,-1.2445,-1.0721,-1.1869,-1.2211,-1.1136,0.0,0.0,0.0,0.0,0.0,0.0,0.0,0.0,0.0,0.0,0.0,0.0,0.0,0.0,0.0,0.0,0.0,0.0,0.0,0.0,0.0,0.0,0.0,0.0,0.0,0.0,0.0,0.0,0.0,0.0,0.0,0.0,0.0,0.0,0.0,0.0,0.0,0.0,0.0,0.0,0.0,0.0,0.0,0.0,0.0,0.0,0.0,0.0,0.0,0.0,0.0,0.0,0.0,0.0,0.0,0.0,0.0,0.0,0.0,0.0,0.0,0.0,0.0,0.0,0.0,0.0,0.0,0.0,0.0,0.0,0.0,0.0,0.0,0.0,0.0,0.0,0.0,0.0,0.0,0.0,0.0,0.0,0.0,0.0,0.0,0.0,0.0,0.0,0.0,0.0,0.0,0.0,0.0,0.0,0.0,0.0,0.0,0.0,0.0,0.0,0.0,0.0,0.0,0.0,0.0,0.0,0.0,0.0,-0.2853,-0.9603,-1.0055,-0.3785,-0.9738,-1.1619,0.0,0.0,0.0,0.0,0.0,0.0,0.0,0.0,0.0,0.0,0.0,0.0,0.0,0.0,0.0,0.0,0.0,0.0,0.0,0.0,0.0,0.0,0.0,0.0,0.0,0.0,0.0,0.0,0.0,0.0,0.0,0.0,0.0,0.0,0.0,0.0,0.0,0.0,0.0,0.0,0.0,0.0,0.0,0.0,0.0,0.0,0.0,0.0,0.0,0.0,0.0,0.0,0.0,0.0,0.0,0.0,0.0,0.0,0.0,0.0,0.0,0.0,0.0,0.0,0.0,0.0,0.0,0.0,0.0,0.0,0.0,0.0,0.0,0.0,0.0,0.0,0.0,0.0,0.0,0.0,0.0,0.0,0.0,0.0,0.0,0.0,0.0,0.0,0.0,0.0,0.0,0.0,0.0,0.0,0.0,0.0,0.0,0.0,0.0,0.0,0.0,0.0,0.0,0.0,0.0,0.0,0.0,0.0,0.0,-0.274,-0.528,-0.5417,-0.2859,-0.5153,-0.5915,0.0,0.0,0.0,0.0,0.0,0.0,0.0,0.0,0.0,0.0,0.0,0.0,0.0,0.0,0.0,0.0,0.0,0.0,0.0,0.0,0.0,0.0,0.0,0.0,0.0,0.0,0.0,0.0,0.0,0.0,0.0,0.0,0.0,0.0,0.0,0.0,0.0,0.0,0.0,0.0,0.0,0.0,0.0,0.0,0.0,0.0,0.0,0.0,0.0,0.0,0.0,0.0,0.0,0.0,0.0,0.0,0.0,0.0,0.0,0.0,0.0,0.0,0.0,0.0,0.0,0.0,0.0,0.0,0.0,0.0,0.0,0.0,0.0,0.0,0.0,0.0,0.0,0.0,0.0,0.0,0.0,0.0,0.0,0.0,0.0,0.0,0.0,0.0,0.0,0.0,0.0,0.0,0.0,0.0,0.0,0.0,0.0,0.0,0.0,0.0,0.0,0.0,0.0,0.0,0.0,0.0,0.0,0.0,0.0,-0.2776,0.0,-0.2746,-0.2743,-0.2699,-0.2664,0.0,0.0,0.0,0.0,0.0,0.0,0.0,0.0,0.0,0.0,0.0,0.0,0.0,0.0,0.0,0.0,0.0,0.0,0.0,0.0,0.0,0.0,0.0,0.0,0.0,0.0,0.0,0.0,0.0,0.0,0.0,0.0,0.0,0.0,0.0,0.0,0.0,0.0,0.0,0.0,0.0,0.0,0.0,0.0,0.0,0.0,0.0,0.0,0.0,0.0,0.0,0.0,0.0,0.0,0.0,0.0,0.0,0.0,0.0,0.0,0.0,0.0,0.0,0.0,0.0,0.0,0.0,0.0,0.0,0.0,0.0,0.0,0.0,0.0,0.0,0.0,0.0,0.0,0.0,0.0,0.0,0.0,0.0,0.0,0.0,0.0,0.0,0.0,0.0,0.0,0.0,0.0,0.0,0.0,0.0,0.0,0.0,0.0,0.0,0.0,0.0,0.0,0.0,0.0,0.0,0.0,0.0,0.0,-0.2816,-0.2961,-0.2961,-0.2787,-0.2784,-0.2754,-0.2724,0.0,0.0,0.0,0.0,0.0,0.0,0.0,0.0,0.0,0.0,0.0,0.0,0.0,0.0,0.0,0.0,0.0,0.0,0.0,0.0,0.0,0.0,0.0,0.0,0.0,0.0,0.0,0.0,0.0,0.0,0.0,0.0,0.0,0.0,0.0,0.0,0.0,0.0,0.0,0.0,0.0,0.0,0.0,0.0,0.0,0.0,0.0,0.0,0.0,0.0,0.0,0.0,0.0,0.0,0.0,0.0,0.0,0.0,0.0,0.0,0.0,0.0,0.0,0.0,0.0,0.0,0.0,0.0,0.0,0.0,0.0,0.0,0.0,0.0,0.0,0.0,0.0,0.0,0.0,0.0,0.0,0.0,0.0,0.0,0.0,0.0,0.0,0.0,0.0,0.0,0.0,0.0,0.0,0.0,0.0,0.0,0.0,0.0,0.0,0.0,0.0,0.0,0.0,0.0,0.0,0.0,0.0,0.0,0.0,-0.2876,-0.2855,-0.2846,-0.2844,-0.2797,-0.2754,0.0,0.0,0.0,0.0,0.0,0.0,0.0,0.0,0.0,0.0,0.0,0.0,0.0,0.0,0.0,0.0,0.0,0.0,0.0,0.0,0.0,0.0,0.0,0.0,0.0,0.0,0.0,0.0,0.0,0.0,0.0,0.0,0.0,0.0,0.0,0.0,0.0,0.0,0.0,0.0,0.0,0.0,0.0,0.0,0.0,0.0,0.0,0.0,0.0,0.0,0.0,0.0,0.0,0.0,0.0,0.0,0.0,0.0,0.0,0.0,0.0,0.0,0.0,0.0,0.0,0.0,0.0,0.0,0.0,0.0,0.0,0.0,0.0,0.0,0.0,0.0,0.0,0.0,0.0,0.0,0.0,0.0,0.0,0.0,0.0,0.0,0.0,0.0,0.0,0.0,0.0,0.0,0.0,0.0,0.0,0.0,0.0,0.0,0.0,0.0,0.0,0.0,0.0,0.0,0.0,0.0,0.0,0.0,0.0,-0.2966,-0.2928,-0.2906,-0.2906,-0.2849,-0.2808,-0.2789,0.0,0.0,0.0,0.0,0.0,0.0,0.0,0.0,0.0,0.0,0.0,0.0,0.0,0.0,0.0,0.0,0.0,0.0,0.0,0.0,0.0,0.0,0.0,0.0,0.0,0.0,0.0,0.0,0.0,0.0,0.0,0.0,0.0,0.0,0.0,0.0,0.0,0.0,0.0,0.0,0.0,0.0,0.0,0.0,0.0,0.0,0.0,0.0,0.0,0.0,0.0,0.0,0.0,0.0,0.0,0.0,0.0,0.0,0.0,0.0,0.0,0.0,0.0,0.0,0.0,0.0,0.0,0.0,0.0,0.0,0.0,0.0,0.0,0.0,0.0,0.0,0.0,0.0,0.0,0.0,0.0,0.0,0.0,0.0,0.0,0.0,0.0,0.0,0.0,0.0,0.0,0.0,0.0,0.0,0.0,0.0,0.0,0.0,0.0,0.0,0.0,0.0,0.0,0.0,0.0,0.0,0.0,0.0,-0.3059,-0.3189,-0.2969,-0.2966,-0.2912,-0.2879,0.0,0.0,0.0,0.0,0.0,0.0,0.0,0.0,0.0,0.0,0.0,0.0,0.0,0.0,0.0,0.0,0.0,0.0,0.0,0.0,0.0,0.0,0.0,0.0,0.0,0.0,0.0,0.0,0.0,0.0,0.0,0.0,0.0,0.0,0.0,0.0,0.0,0.0,0.0,0.0,0.0,0.0,0.0,0.0,0.0,0.0,0.0,0.0,0.0,0.0,0.0,0.0,0.0,0.0,0.0,0.0,0.0,0.0,0.0,0.0,0.0,0.0,0.0,0.0,0.0,0.0,0.0,0.0,0.0,0.0,0.0,0.0,0.0,0.0,0.0,0.0,0.0,0.0,0.0,0.0,0.0,0.0,0.0,0.0,0.0,0.0,0.0,0.0,0.0,0.0,0.0,0.0,0.0,0.0,0.0,0.0,0.0,0.0,0.0,0.0,0.0,0.0,0.0,0.0,0.0,0.0,0.0,0.0,0.0,-0.3149,-0.3114,-0.3076,-0.3029,-0.2991,-0.2942,0.0,0.0,0.0,0.0,0.0,0.0,0.0,0.0,0.0,0.0,0.0,0.0,0.0,0.0,0.0,0.0,0.0,0.0,0.0,0.0,0.0,0.0,0.0,0.0,0.0,0.0,0.0,0.0,0.0,0.0,0.0,0.0,0.0,0.0,0.0,0.0,0.0,0.0,0.0,0.0,0.0,0.0,0.0,0.0,0.0,0.0,0.0,0.0,0.0,0.0,0.0,0.0,0.0,0.0,0.0,0.0,0.0,0.0,0.0,0.0,0.0,0.0,0.0,0.0,0.0,0.0,0.0,0.0,0.0,0.0,0.0,0.0,0.0,0.0,0.0,0.0,0.0,0.0,0.0,0.0,0.0,0.0,0.0,0.0,0.0,0.0,0.0,0.0,0.0,0.0,0.0,0.0,0.0,0.0,0.0,0.0,0.0,0.0,0.0,0.0,0.0,0.0,0.0,0.0,0.0,0.0,0.0,0.0,-0.3195,-0.3225,-0.322,-0.3195,-0.3149,-0.3081,-0.3016,0.0,0.0,0.0,0.0,0.0,0.0,0.0,0.0,0.0,0.0,0.0,0.0,0.0,0.0,0.0,0.0,0.0,0.0,0.0,0.0,0.0,0.0,0.0,0.0,0.0,0.0,0.0,0.0,0.0,0.0,0.0,0.0,0.0,0.0,0.0,0.0,0.0,0.0,0.0,0.0,0.0,0.0,0.0,0.0,0.0,0.0,0.0,0.0,0.0,0.0,0.0,0.0,0.0,0.0,0.0,0.0,0.0,0.0,0.0,0.0,0.0,0.0,0.0,0.0,0.0,0.0,0.0,0.0,0.0,0.0,0.0,0.0,0.0,0.0,0.0,0.0,0.0,0.0,0.0,0.0,0.0,0.0,0.0,0.0,0.0,0.0,0.0,0.0,0.0,0.0,0.0,0.0,0.0,0.0,0.0,0.0,0.0,0.0,0.0,0.0,0.0,0.0,0.0,0.0,0.0,0.0,0.0,0.0,-0.2856,-0.2884,-0.3318,-0.3321,-0.2882,-0.2978,-0.3095,0.0,0.0,0.0,0.0,0.0,0.0,0.0,0.0,0.0,0.0,0.0,0.0,0.0,0.0,0.0,0.0,0.0,0.0,0.0,0.0,0.0,0.0,0.0,0.0,0.0,0.0,0.0,0.0,0.0,0.0,0.0,0.0,0.0,0.0,0.0,0.0,0.0,0.0,0.0,0.0,0.0,0.0,0.0,0.0,0.0,0.0,0.0,0.0,0.0,0.0,0.0,0.0,0.0,0.0,0.0,0.0,0.0,0.0,0.0,0.0,0.0,0.0,0.0,0.0,0.0,0.0,0.0,0.0,0.0,0.0,0.0,0.0,0.0,0.0,0.0,0.0,0.0,0.0,0.0,0.0,0.0,0.0,0.0,0.0,0.0,0.0,0.0,0.0,0.0,0.0,0.0,0.0,0.0,0.0,0.0,0.0,0.0,0.0,0.0,0.0,0.0,0.0,0.0,0.0,0.0,0.0,0.0,0.0,-0.063,-0.064,-0.255,-0.255,-0.0641,-0.2255,-0.3168,0.0,0.0,0.0,0.0,0.0,0.0,0.0,0.0,0.0,0.0,0.0,0.0,0.0,0.0,0.0,0.0,0.0,0.0,0.0,0.0,0.0,0.0,0.0,0.0,0.0,0.0,0.0,0.0,0.0,0.0,0.0,0.0,0.0,0.0,0.0,0.0,0.0,0.0,0.0,0.0,0.0,0.0,0.0,0.0,0.0,0.0,0.0,0.0,-1.3743,0.0,0.0,0.0,0.0,0.0,0.0,0.0,0.0,0.0,0.0,0.0,0.0,0.0,0.0,0.0,0.0,0.0,0.0,0.0,0.0,0.0,0.0,0.0,0.0,0.0,0.0,0.0,0.0,0.0,0.0,0.0,0.0,0.0,0.0,0.0,0.0,0.0,0.0,0.0,0.0,0.0,0.0,0.0,0.0,0.0,0.0,0.0,0.0,0.0,0.0,0.0,0.0,0.0,0.0,0.0,0.0,0.0,0.0,0.0,0.0,0.0,-0.1098,-0.1314,-0.0,-0.1063,-0.1644,0.0,0.0,0.0,0.0,0.0,0.0,0.0,0.0,0.0,0.0,0.0,0.0,0.0,0.0,0.0,0.0,0.0,0.0,0.0,0.0,0.0,0.0,0.0,0.0,0.0,0.0,0.0,0.0,0.0,0.0,0.0,0.0,0.0,0.0,0.0,0.0,0.0,0.0,0.0,0.0,0.0,0.0,0.0,0.0,0.0,0.0,0.0,0.0,0.0,0.0,0.0,0.0,0.0,0.0,0.0,0.0,0.0,0.0,0.0,0.0,0.0,0.0,0.0,0.0,0.0,0.0,0.0,0.0,0.0,0.0,0.0,0.0,0.0,0.0,0.0,0.0,0.0,0.0,0.0,0.0,0.0,0.0,0.0,0.0,0.0,0.0,0.0,0.0,0.0,0.0,0.0,0.0,0.0,0.0,0.0,0.0,0.0,0.0,0.0,0.0,0.0,0.0,0.0,0.0,0.0,0.0,0.0,0.0,0.0,0.0,0.0,0.0,0.0,0.0,0.0,0.0,0.0,0.0,0.0,0.0,0.0,0.0,0.0,0.0,0.0,0.0,0.0,0.0,0.0,0.0,0.0,0.0,0.0,0.0,0.0,0.0,0.0,0.0,0.0,0.0,0.0,0.0,0.0,0.0,0.0,0.0,0.0,0.0,0.0,0.0,0.0,0.0,0.0,0.0,-1.3214,-1.3498,0.0,0.0,0.0,0.0,0.0,0.0,0.0,0.0,-1.396,0.0,0.0,0.0,0.0,0.0,0.0,0.0,0.0,0.0,0.0,0.0,0.0,0.0,0.0,0.0,0.0,0.0,0.0,0.0,0.0,0.0,0.0,0.0,0.0,0.0,0.0,0.0,0.0,0.0,0.0,0.0,0.0,0.0,0.0,0.0,0.0,0.0,0.0,0.0,0.0,0.0,0.0,0.0,0.0,0.0,0.0,0.0,0.0,0.0,0.0,0.0,0.0,0.0,0.0,0.0,0.0,0.0,0.0,0.0,0.0,0.0,0.0,0.0,0.0,0.0,0.0,0.0,0.0,0.0,0.0,0.0,0.0,0.0,0.0,0.0,0.0,0.0,0.0,0.0,0.0,0.0,0.0,0.0,0.0,0.0,0.0,0.0,0.0,0.0,0.0,0.0,0.0,0.0,0.0,0.0,0.0,0.0,0.0,0.0,0.0,0.0,0.0,0.0,0.0,0.0,-1.381,-1.4055,0.0,0.0,0.0,0.0,0.0,0.0,0.0,0.0,-1.4407,0.0,0.0,0.0,0.0,0.0,0.0,0.0,0.0,0.0,0.0,0.0,0.0,0.0,0.0,0.0,0.0,0.0,0.0,0.0,0.0,0.0,0.0,0.0,0.0,0.0,0.0,0.0,0.0,0.0,0.0,0.0,0.0,0.0,0.0,0.0,0.0,0.0,0.0,0.0,0.0,0.0,0.0,0.0,0.0,0.0,0.0,0.0,0.0,0.0,0.0,0.0,0.0,0.0,0.0,0.0,0.0,0.0,0.0,0.0,0.0,0.0,0.0,0.0,0.0,0.0,0.0,0.0,0.0,0.0,0.0,0.0,0.0,0.0,0.0,0.0,0.0,0.0,0.0,0.0,0.0,0.0,0.0,0.0,0.0,0.0,0.0,0.0,0.0,0.0,0.0,0.0,0.0,0.0,0.0,0.0,0.0,0.0,0.0,0.0,0.0,0.0,0.0,0.0,0.0,-1.4109,-1.3918,-1.304,0.0,0.0,0.0,0.0,0.0,0.0,-1.4679,-1.4638,0.0,0.0,0.0,0.0,0.0,0.0,0.0,0.0,0.0,0.0,0.0,0.0,0.0,0.0,0.0,0.0,0.0,0.0,0.0,0.0,0.0,0.0,0.0,0.0,0.0,0.0,0.0,0.0,0.0,0.0,0.0,0.0,0.0,0.0,0.0,0.0,0.0,0.0,0.0,0.0,0.0,0.0,0.0,0.0,0.0,0.0,0.0,0.0,0.0,0.0,0.0,0.0,0.0,0.0,0.0,0.0,0.0,0.0,0.0,0.0,0.0,0.0,0.0,0.0,0.0,0.0,0.0,0.0,0.0,0.0,0.0,0.0,0.0,0.0,0.0,0.0,0.0,0.0,0.0,0.0,0.0,0.0,0.0,0.0,0.0,0.0,0.0,0.0,0.0,0.0,0.0,0.0,0.0,0.0,0.0,0.0,0.0,0.0,0.0,0.0,0.0,0.0,0.0,0.0,0.0,-1.3771,-1.2013,-1.353,0.0,0.0,0.0,0.0,-1.4171,-1.3935,0.0,0.0,0.0,0.0,0.0,0.0,0.0,0.0,0.0,0.0,0.0,0.0,0.0,0.0,0.0,0.0,0.0,0.0,0.0,0.0,0.0,0.0,0.0,0.0,0.0,0.0,0.0,0.0,0.0,0.0,0.0,0.0,0.0,0.0,0.0,0.0,0.0,0.0,0.0,0.0,0.0,0.0,0.0,0.0,0.0,0.0,0.0,0.0,0.0,0.0,0.0,0.0,0.0,0.0,0.0,0.0,0.0,0.0,0.0,0.0,0.0,0.0,0.0,0.0,0.0,0.0,0.0,0.0,0.0,0.0,0.0,0.0,0.0,0.0,0.0,0.0,0.0,0.0,0.0,0.0,0.0,0.0,0.0,0.0,0.0,0.0,0.0,0.0,0.0,0.0,0.0,0.0,0.0,0.0,0.0,0.0,0.0,0.0,0.0,0.0,0.0,0.0,0.0,0.0,0.0,0.0,-1.4055,-1.2267,-1.3802,-1.4467,0.0,0.0,-1.2621,-1.2621,-1.0911,0.0,0.0,0.0,0.0,0.0,0.0,0.0,0.0,0.0,0.0,0.0,0.0,0.0,0.0,0.0,0.0,0.0,0.0,0.0,0.0,0.0,0.0,0.0,0.0,0.0,0.0,0.0,0.0,0.0,0.0,0.0,0.0,0.0,0.0,0.0,0.0,0.0,0.0,0.0,0.0,0.0,0.0,0.0,0.0,0.0,0.0,0.0,0.0,0.0,0.0,0.0,0.0,0.0,0.0,0.0,0.0,0.0,0.0,0.0,0.0,0.0,0.0,0.0,0.0,0.0,0.0,0.0,0.0,0.0,0.0,0.0,0.0,0.0,0.0,0.0,0.0,0.0,0.0,0.0,0.0,0.0,0.0,0.0,0.0,0.0,0.0,0.0,0.0,0.0,0.0,0.0,0.0,0.0,0.0,0.0,0.0,0.0,0.0,0.0,0.0,0.0,0.0,0.0,0.0,0.0,0.0,0.0,-1.0787,-1.2417,0.0,0.0,0.0,-1.2087,-1.0848,0.0,0.0,0.0,0.0,0.0,0.0,0.0,0.0,0.0,0.0,0.0,0.0,0.0,0.0,0.0,0.0,0.0,0.0,0.0,0.0,0.0,0.0,0.0,0.0,0.0,0.0,0.0,0.0,0.0,0.0,0.0,0.0,0.0,0.0,0.0,0.0,0.0,0.0,0.0,0.0,0.0,0.0,0.0,0.0,0.0,0.0,0.0,0.0,0.0,0.0,0.0,0.0,0.0,0.0,0.0,0.0,0.0,0.0,0.0,0.0,0.0,0.0,0.0,0.0,0.0,0.0,0.0,0.0,0.0,0.0,0.0,0.0,0.0,0.0,0.0,0.0,0.0,0.0,0.0,0.0,0.0,0.0,0.0,0.0,0.0,0.0,0.0,0.0,0.0,0.0,0.0,0.0,-0.6135,0.0,0.0,0.0,0.0,0.0,0.0,0.0,0.0,0.0,0.0,0.0,0.0,0.0,0.0,-1.1171,-0.904,-1.0519,-1.0591,0.0,0.0,-1.0498,-0.8828,-0.8207,-0.8165,0.0,0.0,0.0,0.0,0.0,0.0,0.0,0.0,0.0,0.0,0.0,0.0,0.0,0.0,0.0,0.0,0.0,0.0,0.0,0.0,0.0,0.0,0.0,0.0,0.0,0.0,0.0,0.0,0.0,0.0,0.0,0.0,0.0,0.0,0.0,0.0,0.0,0.0,0.0,0.0,0.0,0.0,0.0,0.0,0.0,0.0,0.0,0.0,0.0,0.0,0.0,0.0,0.0,0.0,0.0,0.0,0.0,0.0,0.0,0.0,0.0,0.0,0.0,0.0,0.0,0.0,0.0,0.0,0.0,0.0,0.0,0.0,0.0,0.0,0.0,0.0,0.0,0.0,0.0,0.0,0.0,0.0,0.0,0.0,0.0,0.0,0.0,0.0,0.0,0.0,0.0,0.0,0.0,0.0,0.0,0.0,0.0,0.0,0.0,0.0,0.0,0.0,0.0,0.0,0.0,-1.0801,-0.7015,-0.8305,-0.8993,0.0,0.0,-0.6822,-0.6611,-0.4927,-0.5085,-0.8851,0.0,0.0,0.0,0.0,0.0,0.0,0.0,0.0,0.0,0.0,0.0,0.0,0.0,0.0,0.0,0.0,0.0,0.0,0.0,0.0,0.0,0.0,0.0,0.0,0.0,0.0,0.0,0.0,0.0,0.0,0.0,0.0,0.0,0.0,0.0,0.0,0.0,0.0,0.0,0.0,0.0,0.0,0.0,0.0,0.0,0.0,0.0,0.0,0.0,0.0,0.0,0.0,0.0,0.0,0.0,0.0,0.0,0.0,0.0,0.0,0.0,0.0,0.0,0.0,0.0,0.0,0.0,0.0,0.0,0.0,0.0,0.0,0.0,0.0,0.0,0.0,0.0,0.0,0.0,0.0,0.0,0.0,0.0,0.0,0.0,0.0,0.0,0.0,0.0,0.0,0.0,-0.5878,-0.7741,-0.8842,0.0,0.0,0.0,0.0,0.0,0.0,0.0,0.0,0.0,0.0,-0.8035,-0.6594,-0.7289,0.0,0.0,-0.5763,-0.6194,-0.4894,-0.4011,-0.3976,-0.5593,-0.6738,0.0,0.0,0.0,0.0,0.0,0.0,0.0,0.0,0.0,0.0,0.0,0.0,0.0,0.0,0.0,0.0,0.0,0.0,0.0,0.0,0.0,0.0,0.0,0.0,0.0,0.0,0.0,0.0,0.0,0.0,0.0,0.0,0.0,0.0,0.0,0.0,0.0,0.0,0.0,0.0,0.0,0.0,0.0,0.0,0.0,0.0,0.0,0.0,0.0,0.0,0.0,0.0,0.0,0.0,0.0,0.0,0.0,0.0,0.0,0.0,0.0,0.0,0.0,0.0,0.0,0.0,0.0,0.0,0.0,0.0,0.0,0.0,0.0,0.0,0.0,0.0,0.0,0.0,0.0,0.0,0.0,0.0,0.0,0.0,0.0,0.0,0.0,0.0,0.0,0.0,-0.4332,-0.6068,-0.7866,0.0,0.0,0.0,0.0,0.0,0.0,0.0,0.0,0.0,0.0,-0.6172,-0.5675,-0.5749,-0.516,-0.3685,-0.479,-0.5234,-0.3691,-0.3452,-0.3641,-0.4246,0.0,0.0,0.0,0.0,0.0,0.0,0.0,0.0,0.0,0.0,0.0,0.0,0.0,0.0,0.0,0.0,0.0,0.0,0.0,0.0,0.0,0.0,0.0,0.0,0.0,0.0,0.0,0.0,0.0,0.0,0.0,0.0,0.0,0.0,0.0,0.0,0.0,0.0,0.0,0.0,0.0,0.0,0.0,0.0,0.0,0.0,0.0,0.0,0.0,0.0,0.0,0.0,0.0,0.0,0.0,0.0,0.0,0.0,0.0,0.0,0.0,0.0,0.0,0.0,0.0,0.0,0.0,0.0,0.0,0.0,0.0,0.0,0.0,0.0,0.0,0.0,0.0,0.0,0.0,0.0,0.0,0.0,0.0,0.0,0.0,0.0,0.0,0.0,0.0,0.0,-0.2727,-0.431,-0.6061,0.0,0.0,0.0,0.0,0.0,0.0,0.0,0.0,0.0,0.0,-0.6394,-0.5685,-0.3834,-0.3463,-0.372,-0.3504,-0.3506,-0.3504,-0.3506,-0.3504,-0.4144,0.0,0.0,0.0,0.0,0.0,0.0,0.0,0.0,0.0,0.0,0.0,0.0,0.0,0.0,0.0,0.0,0.0,0.0,0.0,0.0,0.0,0.0,0.0,0.0,0.0,0.0,0.0,0.0,0.0,0.0,0.0,0.0,0.0,0.0,0.0,0.0,0.0,0.0,0.0,0.0,0.0,0.0,0.0,0.0,0.0,0.0,0.0,0.0,0.0,0.0,0.0,0.0,0.0,0.0,0.0,0.0,0.0,0.0,0.0,0.0,0.0,0.0,0.0,0.0,0.0,0.0,0.0,0.0,0.0,0.0,0.0,0.0,0.0,0.0,0.0,0.0,0.0,0.0,0.0,0.0,0.0,0.0,0.0,0.0,0.0,0.0,0.0,0.0,0.0,0.0,-0.2746,0.0,0.0,0.0,0.0,0.0,0.0,0.0,0.0,0.0,0.0,0.0,-0.7026,-0.6399,-0.5251,-0.4284,-0.3517,-0.3547,-0.3574,0.0,0.0,0.0,0.0,0.0,0.0,0.0,0.0,0.0,0.0,0.0,0.0,0.0,0.0,-0.6167,-0.8813,-0.9166,-0.9166,-0.9364,0.0,0.0,0.0,0.0,0.0,0.0,0.0,0.0,0.0,0.0,0.0,0.0,0.0,0.0,0.0,0.0,0.0,0.0,0.0,0.0,0.0,0.0,0.0,0.0,0.0,0.0,0.0,0.0,0.0,0.0,0.0,0.0,0.0,0.0,0.0,0.0,0.0,0.0,0.0,0.0,0.0,0.0,0.0,0.0,0.0,0.0,0.0,0.0,0.0,0.0,0.0,0.0,0.0,0.0,0.0,0.0,0.0,0.0,0.0,0.0,0.0,0.0,0.0,0.0,0.0,0.0,0.0,0.0,0.0,0.0,0.0,0.0,0.0,0.0,0.0,0.0,0.0,-0.2476,0.0,0.0,0.0,0.0,0.0,0.0,0.0,0.0,0.0,-0.6676,-0.6029,-0.5368,-0.5285,-0.4301,-0.3506,-0.3594,0.0,0.0,0.0,0.0,0.0,0.0,0.0,-0.3678,-0.3667,-0.3634,-0.3599,-0.358,-0.3536,-0.3495,-0.3476,0.0,0.0,-0.6822,-0.7187,-0.7187,-0.7187,-0.7187,-0.7187,-0.7187,-0.7187,-0.6794,0.0,0.0,0.0,0.0,0.0,0.0,0.0,0.0,0.0,0.0,0.0,0.0,0.0,0.0,0.0,0.0,0.0,0.0,0.0,0.0,0.0,0.0,0.0,0.0,0.0,0.0,0.0,0.0,0.0,0.0,0.0,0.0,0.0,0.0,0.0,0.0,0.0,0.0,0.0,0.0,0.0,0.0,0.0,0.0,0.0,0.0,0.0,0.0,0.0,0.0,0.0,0.0,0.0,0.0,0.0,0.0,0.0,0.0,0.0,0.0,0.0,0.0,0.0,0.0,0.0,0.0,0.0,0.0,0.0,0.0,0.0,-0.2166,0.0,0.0,0.0,0.0,0.0,0.0,0.0,0.0,0.0,0.0,-0.325,-0.3315,-0.3395,-0.3454,0.0,0.0,0.0,0.0,-0.373,-0.373,-0.352,-0.3538,-0.3538,-0.3538,-0.353,-0.3735,0.0,0.0,-0.3651,-0.3615,-0.3596,-0.3596,-0.3596,-0.3558,-0.3446,-0.3636,-0.363,-0.363,-0.363,-0.3416,-0.3416,-0.3843,-0.3638,0.0,0.0,0.0,0.0,0.0,0.0,0.0,0.0,0.0,0.0,0.0,0.0,0.0,0.0,0.0,0.0,0.0,0.0,0.0,0.0,0.0,0.0,0.0,0.0,0.0,0.0,0.0,0.0,0.0,0.0,0.0,0.0,0.0,0.0,0.0,0.0,0.0,0.0,0.0,0.0,0.0,0.0,0.0,0.0,0.0,0.0,0.0,0.0,0.0,0.0,0.0,0.0,0.0,0.0,0.0,0.0,0.0,0.0,0.0,0.0,0.0,0.0,0.0,0.0,0.0,0.0,0.0,0.0,0.0,0.0,-0.0369,-0.0561,-0.1131,0.0,0.0,0.0,0.0,0.0,0.0,0.0,0.0,0.0,-0.2141,-0.28,-0.3484,0.0,0.0,-0.3673,-0.3724,-0.2824,-0.2374,-0.2388,-0.2393,0.0,-0.2398,-0.2396,-0.2395,-0.2389,-0.3091,-0.3776,-0.3738,-0.3724,-0.3719,-0.3719,-0.3719,-0.3705,-0.3675,-0.3596,-0.3544,-0.3539,-0.3539,-0.3539,-0.3539,-0.3539,-0.3542,0.0,0.0,0.0,0.0,0.0,0.0,0.0,0.0,0.0,0.0,0.0,0.0,0.0,0.0,0.0,0.0,0.0,0.0,0.0,0.0,0.0,0.0,0.0,0.0,0.0,0.0,0.0,0.0,0.0,0.0,0.0,0.0,0.0,0.0,0.0,0.0,0.0,0.0,0.0,0.0,0.0,0.0,0.0,0.0,0.0,0.0,0.0,0.0,0.0,0.0,0.0,0.0,0.0,0.0,0.0,0.0,0.0,0.0,0.0,0.0,0.0,0.0,0.0,0.0,0.0,0.0,0.0,0.0,0.0,0.0,0.0,0.0,0.0,0.0,0.0,0.0,0.0,0.0,0.0,-0.212,-0.1744,-0.1557,-0.1562,-0.2695,-0.3618,-0.364,-0.3697,-0.3757,-0.3817,0.0,-0.2183,-0.1222,-0.1226,-0.1229,-0.1229,-0.1229,-0.1227,-0.1958,-0.2916,-0.3866,-0.3847,-0.3842,-0.3842,-0.3842,-0.3842,-0.3842,-0.3842,-0.3782,-0.3714,-0.3673,-0.3662,-0.3662,-0.3662,-0.3662,-0.3662,0.0,0.0,0.0,0.0,0.0,0.0,0.0,0.0,0.0,0.0,0.0,0.0,0.0,0.0,0.0,0.0,0.0,0.0,0.0,0.0,0.0,0.0,0.0,0.0,0.0,0.0,0.0,0.0,0.0,0.0,0.0,0.0,0.0,0.0,0.0,0.0,0.0,0.0,0.0,0.0,0.0,0.0,0.0,0.0,0.0,0.0,0.0,0.0,0.0,0.0,0.0,0.0,0.0,0.0,0.0,0.0,0.0,0.0,0.0,0.0,0.0,0.0,0.0,0.0,0.0,0.0,0.0,0.0,0.0,0.0,0.0,0.0,0.0,0.0,0.0,0.0,0.0,0.0,-0.0878,-0.2636,0.0,0.0,-0.1384,-0.2576,-0.3304,-0.3517,-0.3556,-0.3609,-0.3904,-0.3448,-0.273,-0.0499,0.0,0.0,0.0,0.0,-0.0503,-0.175,-0.323,-0.3956,-0.3953,-0.3953,-0.3956,-0.3953,-0.3956,-0.3953,-0.3956,-0.3948,-0.3923,-0.3814,-0.379,-0.3784,-0.3787,-0.3784,-0.3784,0.0,0.0,0.0,0.0,0.0,0.0,0.0,0.0,0.0,0.0,0.0,0.0,0.0,0.0,0.0,0.0,0.0,0.0,0.0,0.0,0.0,0.0,0.0,0.0,0.0,0.0,0.0,0.0,0.0,0.0,0.0,0.0,0.0,0.0,0.0,0.0,0.0,0.0,0.0,0.0,0.0,0.0,0.0,0.0,0.0,0.0,0.0,0.0,0.0,0.0,0.0,0.0,0.0,0.0,0.0,0.0,0.0,0.0,0.0,0.0,0.0,0.0,0.0,0.0,0.0,0.0,0.0,0.0,0.0,0.0,0.0,0.0,0.0,0.0,0.0,0.0,0.0,0.0,-0.0226,-0.0682,-0.0462,-0.047,-0.0477,-0.0726,-0.1223,-0.221,-0.319,-0.3689,-0.3722,-0.2,-0.0754,0.0,0.0,0.0,0.0,0.0,-0.0509,-0.1778,-0.3281,-0.4019,-0.4019,-0.4019,-0.4019,-0.4019,-0.4019,-0.4019,-0.4019,-0.4019,-0.4011,-0.3978,-0.394,-0.3907,-0.3907,-0.3907,-0.3907,0.0,0.0,0.0,0.0,0.0,0.0,0.0,0.0,0.0,0.0,0.0,0.0,0.0,0.0,0.0,0.0,0.0,0.0,0.0,0.0,0.0,0.0,0.0,0.0,0.0,0.0,0.0,0.0,0.0,0.0,0.0,0.0,0.0,0.0,0.0,0.0,0.0,0.0,0.0,0.0,0.0,0.0,0.0,0.0,0.0,0.0,0.0,0.0,0.0,0.0,0.0,0.0,0.0,0.0,0.0,0.0,0.0,0.0,0.0,0.0,0.0,0.0,0.0,0.0,0.0,0.0,0.0,0.0,0.0,0.0,0.0,0.0,0.0,0.0,0.0,0.0,0.0,0.0,0.0,0.0,0.0,0.0,0.0,0.0,-0.025,-0.1012,-0.1516,-0.2018,-0.2026,-0.0765,0.0,0.0,0.0,0.0,0.0,0.0,-0.0518,-0.1813,-0.3356,-0.412,-0.412,-0.412,-0.412,-0.412,-0.412,-0.412,-0.412,-0.412,-0.412,-0.4114,-0.4093,-0.4052,-0.4,-0.4,-0.4011,0.0,0.0,0.0,0.0,0.0,0.0,0.0,0.0,0.0,0.0,0.0,0.0,0.0,0.0,0.0,0.0,0.0,0.0,0.0,0.0,0.0,0.0,0.0,0.0,0.0,0.0,0.0,0.0,0.0,0.0,0.0,0.0,0.0,0.0,0.0,0.0,0.0,0.0,0.0,0.0,0.0,0.0,0.0,0.0,0.0,0.0,0.0,0.0,0.0,0.0,0.0,0.0,0.0,0.0,0.0,0.0,0.0,0.0,0.0,0.0,0.0,0.0,0.0,0.0,0.0,0.0,0.0,0.0,0.0,0.0,0.0,0.0,0.0,0.0,0.0,0.0,0.0,0.0,0.0,0.0,0.0,0.0,0.0,0.0,0.0,0.0,0.0,0.0,0.0,0.0,0.0,0.0,0.0,0.0,0.0,0.0,-0.0528,-0.1584,-0.3162,-0.3957,-0.3949,-0.3949,-0.4215,-0.4215,-0.421,-0.4212,-0.4218,-0.4215,-0.4215,-0.421,-0.4204,-0.4174,-0.4095,-0.4084,-0.4101,0.0,0.0,0.0,0.0,0.0,0.0,0.0,0.0,0.0,0.0,0.0,0.0,0.0,0.0,0.0,0.0,0.0,0.0,0.0,0.0,0.0,0.0,0.0,0.0,0.0,0.0,0.0,0.0,0.0,0.0,0.0,0.0,0.0,0.0,0.0,0.0,0.0,0.0,0.0,0.0,0.0,0.0,0.0,0.0,0.0,0.0,0.0,0.0,0.0,0.0,0.0,0.0,0.0,0.0,0.0,0.0,0.0,0.0,0.0,0.0,0.0,0.0,0.0,0.0,0.0,0.0,0.0,0.0,0.0,0.0,0.0,0.0,0.0,0.0,0.0,0.0,0.0,0.0,0.0,0.0,0.0,0.0,0.0,0.0,0.0,0.0,0.0,0.0,0.0,0.0,0.0,0.0,0.0,0.0,0.0,0.0,0.0,-0.0798,-0.2647,-0.3698,-0.2906,-0.3434,-0.4223,-0.4223,-0.4218,-0.4221,-0.4221,-0.4218,-0.4226,-0.4221,-0.4221,-0.4212,-0.4188,-0.4188,-0.4193,0.0,0.0,0.0,0.0,0.0,0.0,0.0,0.0,0.0,0.0,0.0,0.0,0.0,0.0,0.0,0.0,0.0,0.0,0.0,0.0,0.0,0.0,0.0,0.0,0.0,0.0,0.0,0.0,0.0,0.0,0.0,0.0,0.0,0.0,0.0,0.0,0.0,0.0,0.0,0.0,0.0,0.0,0.0,0.0,0.0,0.0,0.0,0.0,0.0,0.0,0.0,0.0,0.0,0.0,0.0,0.0,0.0,0.0,0.0,0.0,0.0,0.0,0.0,0.0,0.0,0.0,0.0,0.0,0.0,0.0,0.0,0.0,0.0,0.0,0.0,0.0,0.0,0.0,0.0,0.0,0.0,0.0,0.0,0.0,0.0,0.0,0.0,0.0,0.0,0.0,0.0,0.0,0.0,0.0,0.0,0.0,0.0,0.0,-0.1349,-0.2154,-0.2154,-0.2154,-0.2424,-0.2962,-0.377,-0.4308,-0.4308,-0.4308,-0.4308,-0.4308,-0.4308,-0.4308,-0.4305,-0.4272,-0.4242,0.0,0.0,0.0,0.0,0.0,0.0,0.0,0.0,0.0,0.0,0.0,0.0,0.0,0.0,0.0,0.0,0.0,0.0,0.0,0.0,0.0,0.0,0.0,0.0,0.0,0.0,0.0,0.0,0.0,0.0,0.0,0.0,0.0,0.0,0.0,0.0,0.0,0.0,0.0,0.0,0.0,0.0,0.0,0.0,0.0,0.0,0.0,0.0,0.0,0.0,0.0,0.0,0.0,0.0,0.0,0.0,0.0,0.0,0.0,0.0,0.0,0.0,0.0,0.0,0.0,0.0,0.0,0.0,0.0,0.0,0.0,0.0,0.0,0.0,0.0,0.0,0.0,0.0,0.0,0.0,0.0,0.0,0.0,0.0,0.0,0.0,0.0,0.0,0.0,0.0,0.0,0.0,0.0,0.0,0.0,0.0,0.0,0.0,0.0,0.0,-0.1375,-0.0825,-0.055,-0.1645,-0.2749,-0.3297,-0.3848,-0.3841,-0.3851,-0.3851,-0.3851,-0.4126,-0.4395,-0.4341,-0.4292,0.0,0.0,0.0,0.0,0.0,0.0,0.0,0.0,0.0,0.0,0.0,0.0,0.0,0.0,0.0,0.0,0.0,0.0,0.0,0.0,0.0,0.0,0.0,0.0,0.0,0.0,0.0,0.0,0.0,0.0,0.0,0.0,0.0,0.0,0.0,0.0,0.0,0.0,0.0,0.0,0.0,0.0,0.0,0.0,0.0,0.0,0.0,0.0,0.0,0.0,0.0,0.0,0.0,0.0,0.0,0.0,0.0,0.0,0.0,0.0,0.0,0.0,0.0,0.0,0.0,0.0,0.0,0.0,0.0,0.0,0.0,0.0,0.0,0.0,0.0,0.0,0.0,0.0,0.0,0.0,0.0,0.0,0.0,0.0,0.0,0.0,0.0,0.0,0.0,0.0,0.0,0.0,0.0,0.0,0.0,0.0,0.0,0.0,0.0,0.0,0.0,0.0,0.0,0.0,0.0,-0.1376,-0.2202,-0.2474,-0.2477,-0.2479,-0.2479,-0.3028,-0.4131,-0.4115,-0.4379,0.0,0.0,0.0,0.0,0.0,0.0,0.0,0.0,0.0,0.0,0.0,0.0,0.0,0.0,0.0,0.0,0.0,0.0,0.0,0.0,0.0,0.0,0.0,0.0,0.0,0.0,0.0,0.0,0.0,0.0,0.0,0.0,0.0,0.0,0.0,0.0,0.0,0.0,0.0,0.0,0.0,0.0,0.0,0.0,0.0,0.0,0.0,0.0,0.0,0.0,0.0,0.0,0.0,0.0,0.0,0.0,0.0,0.0,0.0,0.0,0.0,0.0,0.0,0.0,0.0,0.0,0.0,0.0,0.0,0.0,0.0,0.0,0.0,0.0,0.0,0.0,0.0,0.0,0.0,0.0,0.0,0.0,0.0,0.0,0.0,0.0,0.0,0.0,0.0,0.0,0.0,0.0,0.0,0.0,0.0,0.0,0.0,0.0,0.0,0.0,0.0,0.0,0.0,0.0,0.0,0.0,0.0,-0.1112,-0.1112,-0.1112,-0.2502,-0.3336,-0.3338,-0.3336,-0.3605,0.0,0.0,0.0,0.0,0.0,0.0,0.0,0.0,0.0,0.0,0.0,0.0,0.0,0.0,0.0,0.0,0.0,0.0,0.0,0.0,0.0,0.0,0.0,0.0,0.0,0.0,0.0,0.0,0.0,0.0,0.0,0.0,0.0,0.0,0.0,0.0,0.0,0.0,0.0,0.0,0.0,0.0,0.0,0.0,0.0,0.0,0.0,0.0,0.0,0.0,0.0,0.0,0.0,0.0,0.0,0.0,0.0,0.0,0.0,0.0,0.0,0.0,0.0,0.0,0.0,0.0,0.0,0.0,0.0,0.0,0.0,0.0,0.0,0.0,0.0,0.0,0.0,0.0,0.0,0.0,0.0,0.0,0.0,0.0,0.0,0.0,0.0,0.0,0.0,0.0,0.0,0.0,0.0,0.0,0.0,0.0,0.0,0.0,0.0,0.0,0.0,0.0,0.0,0.0,0.0,0.0,0.0,0.0,0.0,0.0,-0.1681,-0.2804,-0.2522,-0.2242,-0.2517,0.0,0.0,0.0,0.0,0.0,0.0,0.0,0.0,0.0,0.0,0.0,0.0,0.0,0.0,0.0,0.0,0.0,0.0,0.0,0.0,0.0,0.0,0.0,0.0,0.0,0.0,0.0,0.0,0.0,0.0,0.0,0.0,0.0,0.0,0.0,0.0,0.0,0.0,0.0,0.0,0.0,0.0,0.0,0.0,0.0,0.0,0.0,0.0,0.0,0.0,0.0,0.0,0.0,0.0,0.0,0.0,0.0,0.0,0.0,0.0,0.0,0.0,0.0,0.0,0.0,0.0,0.0,0.0,0.0,0.0,0.0,0.0,0.0,0.0,0.0,0.0,0.0,0.0,0.0,0.0,0.0,0.0,0.0,0.0,0.0,0.0,0.0,0.0,0.0,0.0,0.0,0.0,0.0,0.0,0.0,0.0,0.0,0.0,0.0,0.0,0.0,0.0,0.0,0.0,0.0,0.0,0.0,0.0,0.0,0.0,0.0,-0.0842,-0.1683,-0.1964,-0.2242,0.0,0.0,0.0,0.0,0.0,0.0,0.0,0.0,0.0,0.0,0.0,0.0,0.0,0.0,0.0,0.0,0.0,0.0,0.0,0.0,0.0,0.0,0.0,0.0,0.0,0.0,0.0,0.0,0.0,0.0,0.0,0.0,0.0,0.0,0.0,0.0,0.0,0.0,0.0,0.0,0.0,0.0,0.0,0.0,0.0,0.0,0.0,0.0,0.0,0.0,0.0,0.0,0.0,0.0,0.0,0.0,0.0,0.0,0.0,0.0,0.0,0.0,0.0,0.0,0.0,0.0,0.0,0.0,0.0,0.0,0.0,0.0,0.0,0.0,0.0,0.0,0.0,0.0,0.0,0.0,0.0,0.0,0.0,0.0,0.0,0.0,0.0,0.0,0.0,0.0,0.0,0.0,0.0,0.0,0.0,0.0,0.0,0.0,0.0,0.0,0.0,0.0,0.0,0.0,0.0,0.0,0.0,0.0,0.0,0.0,0.0,-0.0281,-0.0842,-0.0842,-0.0842,0.0,0.0,0.0,0.0,0.0,0.0,0.0,0.0,0.0,0.0,0.0,0.0,0.0,0.0,0.0,0.0,0.0,0.0,0.0,0.0,0.0,0.0,0.0,0.0,0.0,0.0,0.0,0.0,0.0,0.0,0.0,0.0,0.0,0.0,0.0,0.0,0.0,0.0,0.0,0.0,0.0,0.0,0.0,0.0,0.0,0.0,0.0,0.0,0.0,0.0,0.0,0.0,0.0,0.0,0.0,0.0,0.0,0.0,0.0,0.0,0.0,0.0,0.0,0.0,0.0,0.0,0.0,0.0,0.0,0.0,0.0,0.0,0.0,0.0,0.0,0.0,0.0,0.0,0.0,0.0,0.0,0.0,0.0,0.0,0.0,0.0,0.0,0.0,0.0,0.0,0.0,0.0,0.0,0.0,0.0,0.0,0.0,0.0,0.0,0.0,0.0,0.0,0.0,0.0,0.0,0.0,0.0,0.0,0.0,0.0,0.0,0.0,0.0,0.0,0.0,0.0,0.0,0.0,0.0,0.0,0.0,0.0,0.0,0.0,0.0,0.0,0.0,0.0,0.0,0.0,0.0,0.0,0.0,0.0,0.0,0.0,0.0,0.0,0.0,0.0,0.0,0.0,0.0,0.0,0.0,0.0,0.0,0.0,0.0,0.0,0.0,0.0,0.0,0.0,0.0,0.0,0.0,0.0,0.0,0.0,0.0,0.0,0.0,0.0,0.0,0.0,0.0,0.0,0.0,0.0,0.0,0.0,0.0,0.0,0.0,0.0,0.0,0.0,0.0,0.0,0.0,0.0,0.0,0.0,0.0,0.0,0.0,0.0,0.0,0.0,0.0,0.0,0.0,0.0,0.0,0.0,0.0,0.0,0.0,0.0,0.0,0.0,0.0,0.0,0.0,0.0,0.0,0.0,0.0,0.0,0.0,0.0,0.0,0.0,0.0,0.0,0.0,0.0,0.0,0.0,0.0,0.0,0.0,0.0,0.0,0.0,0.0,0.0,0.0,0.0,0.0,0.0,0.0,0.0,0.0,0.0,0.0,0.0,0.0,0.0,0.0,0.0,0.0,0.0,0.0,0.0,0.0,0.0,0.0,0.0,0.0,0.0,0.0,0.0,0.0,0.0,0.0,0.0,0.0,0.0,0.0,0.0,0.0,0.0,0.0,0.0,0.0,0.0,0.0,0.0,0.0,0.0,0.0,0.0,0.0,0.0,0.0,0.0,0.0,0.0,0.0,0.0,0.0,0.0,0.0,0.0,0.0,0.0,0.0,0.0,0.0,0.0,0.0,0.0,0.0,0.0,0.0,0.0,0.0,0.0,0.0,0.0,0.0,0.0,0.0,0.0,0.0,0.0,0.0,0.0,0.0,0.0,0.0,0.0,0.0,0.0,0.0,0.0,0.0,0.0,0.0,0.0,0.0,0.0,0.0,0.0,0.0,0.0,0.0,0.0,0.0,0.0,0.0,0.0,0.0,0.0,0.0,0.0,0.0,0.0,0.0,0.0,0.0,0.0,0.0,0.0,0.0,0.0,0.0,0.0,0.0,0.0,0.0,0.0,0.0,0.0,0.0,0.0,0.0,0.0,0.0,0.0,0.0,0.0,0.0,0.0,0.0,0.0,0.0,0.0,0.0,0.0,0.0,0.0,0.0,0.0,0.0,0.0,0.0,0.0,0.0,0.0,0.0,0.0,0.0,0.0,0.0,0.0,0.0,0.0,0.0,0.0,0.0,0.0,0.0,0.0,0.0,0.0,0.0,0.0,0.0,0.0,0.0,0.0,0.0,0.0,0.0,0.0,0.0,0.0,0.0,0.0,0.0,0.0,0.0,0.0,0.0,0.0,0.0,0.0,0.0,0.0,0.0,0.0,0.0,0.0,0.0,0.0,0.0,0.0,0.0,0.0,0.0,0.0,0.0,0.0,0.0,0.0,0.0,0.0,0.0,0.0,0.0,0.0,0.0,0.0,0.0,0.0,0.0,0.0,0.0,0.0,0.0,0.0,0.0,0.0,0.0,0.0,0.0,0.0,0.0,0.0,0.0,0.0,0.0,0.0,0.0,0.0,0.0,0.0,0.0,0.0,0.0,0.0,0.0,0.0,0.0,0.0,0.0,0.0,0.0,0.0,0.0,0.0,0.0,0.0,0.0,0.0,0.0,0.0,0.0,0.0,0.0,0.0,0.0,0.0,0.0,0.0,0.0,0.0,0.0,0.0,0.0,0.0,0.0,0.0,0.0,0.0,0.0,0.0,0.0,0.0,0.0,0.0,0.0,0.0,0.0,0.0,0.0,0.0,0.0,0.0,0.0,0.0,0.0,0.0,0.0,0.0,0.0,0.0,0.0,0.0,0.0,0.0,0.0,0.0,0.0,0.0,0.0,0.0,0.0,0.0,0.0,0.0,0.0,0.0,0.0,0.0,0.0,0.0,0.0,0.0,0.0,0.0,0.0,0.0,0.0,0.0,0.0,0.0,0.0,0.0,0.0,0.0,0.0,0.0,0.0,0.0,0.0,0.0,0.0,0.0,0.0,0.0,0.0,0.0,0.0,0.0,0.0,0.0,0.0,0.0,0.0,0.0,0.0,0.0,0.0,0.0,0.0,0.0,0.0,0.0,0.0,0.0,0.0,0.0,0.0,0.0,0.0,0.0,0.0,0.0,0.0,0.0,0.0,0.0,0.0,0.0,0.0,0.0,0.0,0.0,0.0,0.0,0.0,0.0,0.0,0.0,0.0,0.0,0.0,0.0,0.0,0.0,0.0,0.0,0.0,0.0,0.0,0.0,0.0,0.0,0.0,0.0,0.0,0.0,0.0,0.0,0.0,0.0,0.0,0.0,0.0,0.0,0.0,0.0,0.0,0.0,0.0,0.0,0.0,0.0,0.0,0.0,0.0,0.0,0.0,0.0,0.0,0.0,0.0,0.0,0.0,0.0,0.0,0.0,0.0,0.0,0.0,0.0,0.0,0.0,0.0,0.0,0.0,0.0,0.0,0.0,0.0,0.0,0.0,0.0,0.0,0.0,0.0,0.0,0.0,0.0,0.0,0.0,0.0,0.0,0.0,0.0,0.0,0.0,0.0,0.0,0.0,0.0,0.0,0.0,0.0,0.0,0.0,0.0,0.0,0.0,0.0,0.0,0.0,0.0,0.0,0.0,0.0,0.0,0.0,0.0,0.0,0.0,0.0,0.0,0.0,0.0,0.0,0.0,0.0,0.0,0.0,0.0,0.0,0.0,0.0,0.0,0.0,0.0,0.0,0.0,0.0,0.0,0.0,0.0,0.0,0.0,0.0,0.0,0.0,0.0,0.0,0.0,0.0,0.0,0.0,0.0,0.0,0.0,0.0,0.0,0.0,0.0,0.0,0.0,0.0,0.0,0.0,0.0,0.0,0.0,0.0,0.0,0.0,0.0,0.0,0.0,0.0,0.0,0.0,0.0,0.0,0.0,0.0,0.0,0.0,0.0,0.0,0.0,0.0,0.0,0.0,0.0,0.0,0.0,0.0,0.0,0.0,0.0,0.0,0.0,0.0,0.0,0.0,0.0,0.0,0.0,0.0,0.0,0.0623,0.0,0.0,0.0,0.0,0.0,0.0,0.0,0.0,0.0,0.0,0.0,0.0,0.0,0.0,0.0,0.0,0.0,0.0,0.0,0.0,0.0,0.0,0.0,0.0,0.0,0.0,0.0,0.0,0.0,0.0,0.0,0.0,0.0,0.0,0.0,0.0,0.0,0.0,0.0,0.0,0.0,0.0,0.0,0.0,0.0,0.0,0.0,0.0,0.0,0.0,0.0,0.0,0.0,0.0,0.0,0.0,0.0,0.0,0.0,0.0,0.0,0.0,0.0,0.0,0.0,0.0,0.0,0.0,0.0,0.0,0.0,0.0,0.0,0.0,0.0,0.0,0.0,0.0,0.0,0.0,0.0,0.0,0.0,0.0,0.0,0.0,0.0,0.0,0.0,0.0,0.0,0.0,0.0,0.0,0.0,0.0,0.0,0.0,0.0,0.0,0.0,0.0,0.0,0.0,0.0,0.0,0.0,0.0,0.0,0.0,0.0,0.0,0.0,1.1975,0.7499,0.7458,0.4632,0.0,0.0,0.0,0.0,0.0,0.0,0.0,0.0,0.0,0.0,0.0,0.0,0.0,0.0,0.0,0.0,0.0,0.0,0.0,0.0,0.0,0.0,0.0,0.0,0.0,0.0,0.0,0.0,0.0,0.0,0.0,0.0,0.0,0.0,0.0,0.0,0.0,0.0,0.0,0.0,0.0,0.0,0.0,0.0,0.0,0.0,0.0,0.0,0.0,0.0,0.0,0.0,0.0,0.0,0.0,0.0,0.0,0.0,0.0,0.0,0.0,0.0,0.0,0.0,0.0,0.0,0.0,0.0,0.0,0.0,0.0,0.0,0.0,0.0,0.0,0.0,0.0,0.0,0.0,0.0,0.0,0.0,0.0,0.0,0.0,0.0,0.0,0.0,0.0,0.0,0.0,0.0,0.0,0.0,0.0,0.0,0.0,0.0,0.0,0.0,0.0,0.0,0.0,0.0,0.0,0.0,0.0,0.0,0.0,0.0,0.0,1.7719,1.4105,1.4339,1.2097,0.7717,0.2447,0.0,0.0,0.0,0.0,0.0,0.0,0.0,0.0,0.0,0.0,0.0,0.0,0.0,0.0,0.0,0.0,0.0,0.0,0.0,0.0,0.0,0.0,0.0,0.0,0.0,0.0,0.0,0.0,0.0,0.0,0.0,0.0,0.0,0.0,0.0,0.0,0.0,0.0,0.0,0.0,0.0,0.0,0.0,0.0,0.0,0.0,0.0,0.0,0.0,0.0,0.0,0.0,0.0,0.0,0.0,0.0,0.0,0.0,0.0,0.0,0.0,0.0,0.0,0.0,0.0,0.0,0.0,0.0,0.0,0.0,0.0,0.0,0.0,0.0,0.0,0.0,0.0,0.0,0.0,0.0,0.0,0.0,0.0,0.0,0.0,0.0,0.0,0.0,0.0,0.0,0.0,0.0,0.0,0.0,0.0,0.0,0.0,0.0,0.0,0.0,0.0,0.0,0.0,0.0,0.0,0.0,0.0,0.0,0.0,2.0006,2.0137,2.0028,1.9973,1.7723,0.736,0.0,0.0,0.0,0.0,0.0,0.0,0.0,0.0,0.0,0.0,0.0,0.0,0.0,0.0,0.0,0.0,0.0,0.0,0.0,0.0,0.0,0.0,0.0,0.0,0.0,0.0,0.0,0.0,0.0,0.0,0.0,0.0,0.0,0.0,0.0,0.0,0.0,0.0,0.0,0.0,0.0,0.0,0.0,0.0,0.0,0.0,0.0,0.0,0.0,0.0,0.0,0.0,0.0,0.0,0.0,0.0,0.0,0.0,0.0,0.0,0.0,0.0,0.0,0.0,0.0,0.0,0.0,0.0,0.0,0.0,0.0,0.0,0.0,0.0,0.0,0.0,0.0,0.0,0.0,0.0,0.0,0.0,0.0,0.0,0.0,0.0,0.0,0.0,0.0,0.0,0.0,0.0,0.0,0.0,0.0,0.0,0.0,0.0,0.0,0.0,0.0,0.0,0.0,0.0,0.0,0.0,0.0,0.0,0.0,2.0017,2.0191,2.0071,1.9984,1.961,1.7039,1.5394,1.4675,1.4963,0.911,0.0,0.0,0.0,0.0,0.0,0.0,0.0,0.0,0.0,0.0,0.0,0.0,0.0,0.0,0.0,0.0,0.0,0.0,0.0,0.0,0.0,0.0,0.0,0.0,0.0,0.0,0.0,0.0,0.0,0.0,0.0,0.0,0.0,0.0,0.0,0.0,0.0,0.0,0.0,0.0,0.0,0.0,0.0,0.0,0.0,0.0,0.0,0.0,0.0,0.0,0.0,0.0,0.0,0.0,0.0,0.0,0.0,0.0,0.0,0.0,0.0,0.0,0.0,0.0,0.0,0.0,0.0,0.0,0.0,0.0,0.0,0.0,0.0,0.0,0.0,0.0,0.0,0.0,0.0,0.0,0.0,0.0,0.0,0.0,0.0,0.0,0.0,0.0,0.0,0.0,0.0,0.0,0.0,0.0,0.0,0.0,0.0,0.0,0.0,0.0,0.0,0.0,0.0,0.0,0.0,2.0332,2.0213,2.0093,2.0017,1.9973,1.9919,1.9843,1.9745,1.9374,1.5588,1.0323,0.91,0.909,0.9075,0.9075,0.0,0.7262,0.0,0.0,0.0,0.0,0.0,0.0,0.0,0.0,0.0,0.0,0.0,0.0,0.0,0.0,0.0,0.0,0.0,0.0,0.0,0.0,0.0,0.0,0.0,0.0,0.0,0.0,0.0,0.0,0.0,0.0,0.0,0.0,0.0,0.0,0.0,0.0,0.0,0.0,0.0,0.0,0.0,0.0,0.0,0.0,0.0,0.0,0.0,0.0,0.0,0.0,0.0,0.0,0.0,0.0,0.0,0.0,0.0,0.0,0.0,0.0,0.0,0.0,0.0,0.0,0.0,0.0,0.0,0.0,0.0,0.0,0.0,0.0,0.0,0.0,0.0,0.0,0.0,0.0,0.0,0.0,0.0,0.0,0.0,0.0,0.0,0.0,0.0,0.0,0.0,0.0,0.0,0.0,0.0,0.0,0.0,0.0,0.0,0.0,2.0343,2.0234,2.0104,2.0039,2.0028,1.9941,1.9908,1.9886,1.9492,1.8773,1.931,1.931,1.7404,1.8576,1.8556,1.9171,1.5502,0.0,0.0,0.0,0.0,0.0,0.0,0.0,0.0,0.0,0.0,0.0,0.0,0.0,0.0,0.0,0.0,0.0,0.0,0.0,0.0,0.0,0.0,0.0,0.0,0.0,0.0,0.0,0.0,0.0,0.0,0.0,0.0,0.0,0.0,0.0,0.0,0.0,0.0,0.0,0.0,0.0,0.0,0.0,0.0,0.0,0.0,0.0,0.0,0.0,0.0,0.0,0.0,0.0,0.0,0.0,0.0,0.0,0.0,0.0,0.0,0.0,0.0,0.0,0.0,0.0,0.0,0.0,0.0,0.0,0.0,0.0,0.0,0.0,0.0,0.0,0.0,0.0,0.0,0.0,0.0,0.0,0.0,0.0,0.0,0.0,0.0,0.0,0.0,0.0,0.0,0.0,0.0,0.0,0.0,0.0,0.0,0.0,0.0,2.0398,2.0354,2.0137,2.0039,2.0039,2.0017,1.9963,1.9886,1.9865,1.9789,1.9691,1.9364,1.9374,1.9353,1.968,1.9691,1.6269,0.0,0.0,0.0,0.0,0.0,1.1964,0.0,0.0,0.0,0.0,0.0,0.0,0.0,0.0,0.0,0.0,0.0,0.0,0.0,0.0,0.0,0.0,0.0,0.0,0.0,0.0,0.0,0.0,0.0,0.0,0.0,0.0,0.0,0.0,0.0,0.0,0.0,0.0,0.0,0.0,0.0,0.0,0.0,0.0,0.0,0.0,0.0,0.0,0.0,0.0,0.0,0.0,0.0,0.0,0.0,0.0,0.0,0.0,0.0,0.0,0.0,0.0,0.0,0.0,0.0,0.0,0.0,0.0,0.0,0.0,0.0,0.0,0.0,0.0,0.0,0.0,0.0,0.0,0.0,0.0,0.0,0.0,0.0,0.0,0.0,0.0,0.0,0.0,0.0,0.0,0.0,0.0,0.0,0.0,0.0,0.0,0.0,0.0,2.0463,2.0387,2.0213,2.0093,2.005,2.0039,2.0006,1.9963,1.9963,1.9897,1.981,1.9778,1.9745,1.9723,2.0018,1.9734,1.7262,1.4159,1.0144,1.0462,1.0775,1.2939,1.98,1.2324,0.0,0.0,0.0,0.0,0.0,0.0,0.0,0.0,0.0,0.0,0.0,0.0,0.0,0.0,0.0,0.0,0.0,0.0,0.0,0.0,0.0,0.0,0.0,0.0,0.0,0.0,0.0,0.0,0.0,0.0,0.0,0.0,0.0,0.0,0.0,0.0,0.0,0.0,0.0,0.0,0.0,0.0,0.0,0.0,0.0,0.0,0.0,0.0,0.0,0.0,0.0,0.0,0.0,0.0,0.0,0.0,0.0,0.0,0.0,0.0,0.0,0.0,0.0,0.0,0.0,0.0,0.0,0.0,0.0,0.0,0.0,0.0,0.0,0.0,0.0,0.0,0.0,0.0,0.0,0.0,0.0,0.0,0.0,0.0,0.0,0.0,0.0,0.0,0.0,0.0,0.0,2.0517,2.0398,2.0278,2.0147,2.005,2.0039,2.0039,2.0039,2.0039,1.9984,1.9919,1.9908,1.9854,2.0096,2.0085,1.9789,1.9789,1.9185,1.8887,1.86,1.86,1.9843,1.9843,1.9843,1.861,1.6123,1.0817,0.2467,0.0,0.0,0.0,0.0,0.0,0.0,0.0,0.0,0.0,0.3404,0.0,0.0,0.0,0.0,0.0,0.0,0.0,0.0,0.0,0.0,0.0,0.0,0.0,0.0,0.0,0.0,0.0,0.0,0.0,0.0,0.0,0.0,0.0,0.0,0.0,0.0,0.0,0.0,0.0,0.0,0.0,0.0,0.0,0.0,0.0,0.0,0.0,0.0,0.0,0.0,0.0,0.0,0.0,0.0,0.0,0.0,0.0,0.0,0.0,0.0,0.0,0.0,0.0,0.0,0.0,0.0,0.0,0.0,0.0,0.0,0.0,0.0,0.0,0.0,0.0,0.0,0.0,0.0,0.0,0.0,0.0,0.0,0.0,0.0,0.0,0.0,0.0,2.0517,2.0398,2.0278,2.0147,2.005,2.0039,2.0039,2.0039,2.0039,2.0039,2.0006,2.0017,2.0006,1.9984,1.9984,1.9995,1.9995,1.9973,1.9973,1.9973,1.9984,1.9984,1.9995,2.0006,1.9995,1.9685,1.7811,1.0549,0.0,0.0,0.0,0.0,0.0,0.0,0.0,1.0595,1.7566,1.5338,0.6216,0.0,0.0,0.0,0.0,0.0,0.0,0.0,0.0,0.0,0.0,0.0,0.0,0.0,0.0,0.0,0.0,0.0,0.0,0.0,0.0,0.0,0.0,0.0,0.0,0.0,0.0,0.0,0.0,0.0,0.0,0.0,0.0,0.0,0.0,0.0,0.0,0.0,0.0,0.0,0.0,0.0,0.0,0.0,0.0,0.0,0.0,0.0,0.0,0.0,0.0,0.0,0.0,0.0,0.0,0.0,0.0,0.0,0.0,0.0,0.0,0.0,0.0,0.0,0.0,0.0,0.0,0.0,0.0,0.0,0.0,0.0,0.0,0.0,0.0,0.0,0.0,2.0582,2.0408,2.0354,2.0213,2.005,2.0039,2.0039,2.0039,2.0039,2.0039,2.0039,2.0039,2.0039,2.0039,2.0039,2.0039,2.0039,2.0039,2.0039,2.0039,2.0039,2.0039,2.0039,2.0039,2.005,2.006,1.9749,1.7811,1.1794,1.0864,1.1193,1.0876,1.0906,0.0,0.9973,1.6621,1.9178,1.821,1.3763,0.7474,0.0,0.0,0.0,0.0,0.0,0.0,0.0,0.0,0.0,0.0,0.0,0.0,0.0,0.0,0.0,0.0,0.0,0.0,0.0,0.0,0.0,0.0,0.0,0.0,0.0,0.0,0.0,0.0,0.0,0.0,0.0,0.0,0.0,0.0,0.0,0.0,0.0,0.0,0.0,0.0,0.0,0.0,0.0,0.0,0.0,0.0,0.0,0.0,0.0,0.0,0.0,0.0,0.0,0.0,0.0,0.0,0.0,0.0,0.0,0.0,0.0,0.0,0.0,0.0,0.0,0.0,0.0,0.0,0.0,0.0,0.0,0.0,0.0,0.0,0.0,2.0593,2.0408,2.0408,2.0267,2.005,2.0039,2.0039,2.0039,2.0039,2.0039,2.0039,2.0039,2.0039,2.0039,2.0039,2.0039,2.0039,2.0039,2.0039,2.0039,2.0039,2.0039,2.0039,2.0039,2.0039,2.0039,2.005,1.9084,1.9416,1.9115,1.8492,2.0115,1.7859,1.8824,1.9469,1.9792,2.0104,1.9803,1.9167,1.4098,0.0,0.0,0.0,0.0,0.0,0.0,0.0,0.0,0.0,0.0,0.0,0.0,0.0,0.0,0.0,0.0,0.0,0.0,0.0,0.0,0.0,0.0,0.0,0.0,0.0,0.0,0.0,0.0,0.0,0.0,0.0,0.0,0.0,0.0,0.0,0.0,0.0,0.0,0.0,0.0,0.0,0.0,0.0,0.0,0.0,0.0,0.0,0.0,0.0,0.0,0.0,0.0,0.0,0.0,0.0,0.0,0.0,0.0,0.0,0.0,0.0,0.0,0.0,0.0,0.0,0.0,0.0,0.0,0.0,0.0,0.0,0.0,0.0,0.0,0.0,2.0517,2.0408,2.0408,2.0256,2.0039,2.0039,2.0039,2.0039,2.0039,2.0039,2.0039,2.0039,2.0039,2.0039,2.0039,2.0039,2.0039,2.0039,2.0039,2.0039,2.0039,2.0039,2.0039,2.0039,2.0039,2.0039,2.0039,2.0039,2.0039,2.005,2.006,2.005,2.006,2.005,2.005,2.006,2.0071,1.977,1.9147,1.9167,1.6951,1.5701,1.1904,0.344,0.0,0.0,0.0,0.0,0.0,0.0,0.0,0.0,0.0,0.0,0.0,0.0,0.0,0.0,0.0,0.0,0.0,0.0,0.0,0.0,0.0,0.0,0.0,0.0,0.0,0.0,0.0,0.0,0.0,0.0,0.0,0.0,0.0,0.0,0.0,0.0,0.0,0.0,0.0,0.0,0.0,0.0,0.0,0.0,0.0,0.0,0.0,0.0,0.0,0.0,0.0,0.0,0.0,0.0,0.0,0.0,0.0,0.0,0.0,0.0,0.0,0.0,0.0,0.0,0.0,0.0,0.0,0.0,0.0,0.0,0.0,2.0199,2.0081,2.0321,2.0202,2.0039,2.0039,2.0039,2.0039,2.0039,2.0039,2.0039,2.0039,2.0039,2.0039,2.0039,2.0039,2.0039,2.0039,2.0039,2.0039,2.0039,2.0039,2.0039,2.0039,2.0039,2.0039,2.0039,2.0039,2.0039,2.0039,2.0039,2.0039,2.0039,2.0039,2.0039,2.005,2.006,1.8804,1.6914,1.5354,1.9792,1.9813,1.7595,1.3488,1.2229,0.721,0.0,0.0,0.0,0.0,0.0,0.0,0.0,0.0,0.0,0.0,0.0,0.0,0.0,0.0,0.0,0.0,0.0,0.0,0.0,0.0,0.0,0.0,0.0,0.0,0.0,0.0,0.0,0.0,0.0,0.0,0.0,0.0,0.0,0.0,0.0,0.0,0.0,0.0,0.0,0.0,0.0,0.0,0.0,0.0,0.0,0.0,0.0,0.0,0.0,0.0,0.0,0.0,0.0,0.0,0.0,0.0,0.0,0.0,0.0,0.0,0.0,0.0,0.0,0.0,0.0,0.0,0.0,0.0,0.0,2.0145,2.0017,2.0213,2.0115,2.005,2.0039,2.0039,2.0039,2.0039,2.0039,2.0039,2.0039,2.0039,2.0039,2.0039,2.0039,2.0039,2.0039,2.0039,2.0039,2.0039,2.0039,2.0039,2.0039,2.0039,2.0039,2.0039,2.0039,2.0039,2.0039,2.0039,2.0039,2.0039,2.0039,2.005,2.0082,2.0093,1.8532,1.6666,1.1309,1.4802,1.351,1.7301,1.7301,1.8552,1.5692,0.7519,0.0,0.0,0.0,0.0,0.0,0.0,0.0,0.0,0.0,0.0,0.0,0.0,0.0,0.0,0.0,0.0,0.0,0.0,0.0,0.0,0.0,0.0,0.0,0.0,0.0,0.0,0.0,0.0,0.0,0.0,0.0,0.0,0.0,0.0,0.0,0.0,0.0,0.0,0.0,0.0,0.0,0.0,0.0,0.0,0.0,0.0,0.0,0.0,0.0,0.0,0.0,0.0,0.0,0.0,0.0,0.0,0.0,0.0,0.0,0.0,0.0,0.0,0.0,0.0,0.0,0.0,0.0,0.0,2.0343,1.9899,2.0093,2.005,2.0039,2.0039,2.0039,2.0039,2.0039,2.0039,2.0039,2.0039,2.0039,2.0039,2.0039,2.0039,2.0039,2.0039,2.0039,2.0039,2.0039,2.0039,2.0039,2.0039,2.0039,2.0039,2.0039,2.0039,2.0039,2.0039,2.0039,2.005,2.006,2.0071,2.006,1.9845,1.992,1.9963,1.9375,1.3325,0.7913,0.6619,1.2289,1.7671,1.9877,1.7633,1.4762,0.8167,0.0,0.0,0.0,0.0,0.0,0.0,0.0,0.0,0.0,0.0,0.0,0.0,0.0,0.0,0.0,0.0,0.0,0.0,0.0,0.0,0.0,0.0,0.0,0.0,0.0,0.0,0.0,0.0,0.0,0.0,0.0,0.0,0.0,0.0,0.0,0.0,0.0,0.0,0.0,0.0,0.0,0.0,0.0,0.0,0.0,0.0,0.0,0.0,0.0,0.0,0.0,0.0,0.0,0.0,0.0,0.0,0.0,0.0,0.0,0.0,0.0,0.0,0.0,0.0,0.0,0.0,0.0,2.0017,1.9899,2.0093,2.0039,2.0039,2.0039,2.0039,2.0039,2.0039,2.0039,2.0039,2.0039,2.0039,2.0039,2.0039,2.0039,2.0039,2.0039,2.0039,2.0039,2.0039,2.0039,2.0039,2.0039,2.0039,2.0039,2.0039,2.0039,2.0039,2.0039,2.0039,2.005,2.0137,1.9845,1.9877,1.9952,2.0038,2.0365,1.9764,1.7852,1.401,1.3656,1.523,2.0049,2.0017,1.9648,1.8947,1.1673,0.8509,0.0,0.0,0.0,0.0,0.0,0.0,0.0,0.0,0.0,0.0,0.0,0.0,0.0,0.0,0.0,0.0,0.0,0.0,0.0,0.0,0.0,0.0,0.0,0.0,0.0,0.0,0.0,0.0,0.0,0.0,0.0,0.0,0.0,0.0,0.0,0.0,0.0,0.0,0.0,0.0,0.0,0.0,0.0,0.0,0.0,0.0,0.0,0.0,0.0,0.0,0.0,0.0,0.0,0.0,0.0,0.0,0.0,0.0,0.0,0.0,0.0,0.0,0.0,0.0,0.0,0.0,1.9952,1.9835,2.0071,2.0039,2.0039,2.0039,2.0039,2.0039,2.0039,2.0039,2.0039,2.0039,2.0039,2.0039,2.0039,2.0039,2.0039,2.0039,2.0039,2.0039,2.0039,2.0039,2.0039,2.0039,2.0039,2.0039,2.0039,2.0039,2.0039,2.0039,2.0071,2.0137,2.0267,2.0343,2.0387,2.043,2.0474,2.0495,2.0209,2.0252,1.9263,1.988,1.9848,2.0484,1.9796,1.814,1.5862,1.4898,0.0,0.0,0.0,0.0,0.0,0.0,0.0,0.0,0.0,0.0,0.0,0.0,0.0,0.0,0.0,0.0,0.0,0.0,0.0,0.0,0.0,0.0,0.0,0.0,0.0,0.0,0.0,0.0,0.0,0.0,0.0,0.0,0.0,0.0,0.0,0.0,0.0,0.0,0.0,0.0,0.0,0.0,0.0,0.0,0.0,0.0,0.0,0.0,0.0,0.0,0.0,0.0,0.0,0.0,0.0,0.0,0.0,0.0,0.0,0.0,0.0,0.0,0.0,0.0,0.0,0.0,0.0,1.9835,2.005,2.0039,2.0039,2.0039,2.0039,2.0039,2.0039,2.0039,2.0039,2.0039,2.0039,2.0039,2.0039,2.0039,2.0039,2.0039,2.0039,2.0039,2.0039,2.0039,2.0039,2.0039,2.0039,2.0039,2.0039,2.005,2.005,2.005,2.0115,1.9845,2.0267,2.0441,2.0517,2.0561,2.0582,2.0593,2.0615,2.0658,2.0691,2.068,2.0957,2.0615,2.0582,2.022,1.5638,1.3685,1.401,1.2389,0.0,0.0,0.0,0.0,0.0,0.0,0.0,0.0,0.0,0.0,0.0,0.0,0.0,0.0,0.0,0.0,0.0,0.0,0.0,0.0,0.0,0.0,0.0,0.0,0.0,0.0,0.0,0.0,0.0,0.0,0.0,0.0,0.0,0.0,0.0,0.0,0.0,0.0,0.0,0.0,0.0,0.0,0.0,0.0,0.0,0.0,0.0,0.0,0.0,0.0,0.0,0.0,0.0,0.0,0.0,0.0,0.0,0.0,0.0,0.0,0.0,0.0,0.0,0.0,0.0,0.0,1.9835,2.005,2.0039,2.0039,2.0039,2.0039,2.0039,2.0039,2.0039,2.0039,2.0039,2.0039,2.0039,2.0039,2.0039,2.0039,2.0039,2.0039,2.0039,2.0039,2.0039,2.0039,2.0039,2.0039,2.0039,2.0039,2.005,2.0093,1.9856,1.991,2.0354,2.0495,2.0561,2.0957,2.068,2.0702,2.0702,2.0713,2.0745,2.0756,2.0756,2.0713,2.0702,2.068,2.068,1.6386,1.699,1.7337,1.6653,1.4994,0.4754,0.0,0.0,0.0,0.0,0.0,0.0,0.0,0.0,0.0,0.0,0.0,0.0,0.0,0.0,0.0,0.0,0.0,0.0,0.0,0.0,0.0,0.0,0.0,0.0,0.0,0.0,0.0,0.0,0.0,0.0,0.0,0.0,0.0,0.0,0.0,0.0,0.0,0.0,0.0,0.0,0.0,0.0,0.0,0.0,0.0,0.0,0.0,0.0,0.0,0.0,0.0,0.0,0.0,0.0,0.0,0.0,0.0,0.0,0.0,0.0,0.0,0.0,0.0,0.0,2.0104,2.005,2.0039,2.0039,2.0039,2.0039,2.0039,2.0039,2.0039,2.0039,2.0039,2.0039,2.0039,2.0039,2.0039,2.0039,2.0039,2.0039,2.0039,2.0039,2.0039,2.0039,2.0039,2.005,2.0039,2.005,2.0093,1.9845,1.9942,2.0398,2.0528,2.0891,2.0946,2.0691,2.0735,2.0745,2.0756,2.0756,2.0756,2.0756,2.0756,2.0756,2.0756,2.0767,2.0789,2.0735,2.068,2.0702,2.0658,1.9922,0.8924,0.0,0.0,0.0,0.0,0.0,0.0,0.0,0.0,0.0,0.0,0.0,0.0,0.0,0.0,0.0,0.0,0.0,0.0,0.0,0.0,0.0,0.0,0.0,0.0,0.0,0.0,0.0,0.0,0.0,0.0,0.0,0.0,0.0,0.0,0.0,0.0,0.0,0.0,0.0,0.0,0.0,0.0,0.0,0.0,0.0,0.0,0.0,0.0,0.0,0.0,0.0,0.0,0.0,0.0,0.0,0.0,0.0,0.0,0.0,0.0,0.0,0.0,0.0,0.0,2.0039,2.0039,2.0039,2.0039,2.0039,2.0039,2.0039,2.0039,2.0039,2.0039,2.0039,2.0039,2.0039,2.0039,2.0039,2.0039,2.0039,2.0039,2.0039,2.0039,2.0039,2.0039,2.005,2.005,2.0093,2.0115,2.0169,1.9952,2.0321,2.0474,2.0604,2.0935,2.0691,2.0745,2.0756,2.0756,2.0756,2.0756,2.0756,2.0756,2.0756,2.0756,2.0756,2.0756,2.0767,2.0756,2.0756,2.0745,2.0735,1.8402,1.5122,0.8336,0.0,0.0,0.0,0.0,0.0,0.0,0.0,0.0,0.0,0.0,0.0,0.0,0.0,0.0,0.0,0.0,0.0,0.0,0.0,0.0,0.0,0.0,0.0,0.0,0.0,0.0,0.0,0.0,0.0,0.0,0.0,0.0,0.0,0.0,0.0,0.0,0.0,0.0,0.0,0.0,0.0,0.0,0.0,0.0,0.0,0.0,0.0,0.0,0.0,0.0,0.0,0.0,0.0,0.0,0.0,0.0,0.0,0.0,0.0,0.0,0.0,0.0,0.0,2.0039,2.0039,2.0039,2.0039,2.0039,2.0039,2.0039,2.0039,2.0039,2.0039,2.0039,2.0039,2.0039,2.0039,2.0039,2.0039,2.0039,2.0039,2.0039,2.005,2.005,2.0071,2.0071,2.046,2.018,2.0213,1.9974,2.0092,2.0506,2.0626,2.0713,2.0713,2.0756,2.0756,2.0756,2.0756,2.0756,2.0756,2.0756,2.0756,2.0756,2.0756,2.0756,2.0756,2.0756,2.0756,2.0767,2.0778,2.0789,1.9789,1.9426,1.19,0.0,0.0,0.0,0.0,0.0,0.0,0.0,0.0,0.0,0.0,0.0,0.0,0.0,0.0,0.0,0.0,0.0,0.0,0.0,0.0,0.0,0.0,0.0,0.0,0.0,0.0,0.0,0.0,0.0,0.0,0.0,0.0,0.0,0.0,0.0,0.0,0.0,0.0,0.0,0.0,0.0,0.0,0.0,0.0,0.0,0.0,0.0,0.0,0.0,0.0,0.0,0.0,0.0,0.0,0.0,0.0,0.0,0.0,0.0,0.0,0.0,0.0,0.0,2.0039,2.0039,2.0039,2.0039,2.0039,2.0039,2.0039,2.0039,2.0039,2.0039,2.0039,2.0039,2.0039,2.0039,2.0039,2.0039,2.0039,2.0039,2.0039,2.005,2.0093,2.0126,2.0169,2.0571,2.0604,2.0332,2.043,2.055,2.0658,2.0713,2.0756,2.0756,2.0756,2.0756,2.0756,2.0756,2.0756,2.0756,2.0756,2.0756,2.0756,2.0756,2.0756,2.0756,2.0756,2.0756,2.0767,2.0778,2.08,2.0822,2.0477,1.2595,0.0,0.0,0.0,0.0,0.0,0.0,0.0,0.0,0.0,0.0,0.0,0.0,0.0,0.0,0.0,0.0,0.0,0.0,0.0,0.0,0.0,0.0,0.0,0.0,0.0,0.0,0.0,0.0,0.0,0.0,0.0,0.0,0.0,0.0,0.0,0.0,0.0,0.0,0.0,0.0,0.0,0.0,0.0,0.0,0.0,0.0,0.0,0.0,0.0,0.0,0.0,0.0,0.0,0.0,0.0,0.0,0.0,0.0,0.0,0.0,0.0,0.0,0.0,2.0039,2.0039,2.0039,2.0039,2.0039,2.0039,2.0039,2.0039,2.0039,2.0039,2.0039,2.0039,2.0039,2.0039,2.0039,2.0039,2.0039,2.0039,2.0039,2.0104,1.9856,2.0213,2.0278,2.0681,2.0747,2.0813,2.0571,2.0648,2.0735,2.0756,2.0756,2.0756,2.0756,2.0756,2.0756,2.0756,2.0756,2.0756,2.0756,2.0756,2.0756,2.0756,2.0756,2.0756,2.0756,2.0756,2.0756,2.0767,2.0789,2.0822,2.0196,1.1994,0.0,0.0,0.0,0.0,0.0,0.0,0.0,0.0,0.0,0.0,0.0,0.0,0.0,0.0,0.0,0.0,0.0,0.0,0.0,0.0,0.0,0.0,0.0,0.0,0.0,0.0,0.0,0.0,0.0,0.0,0.0,0.0,0.0,0.0,0.0,0.0,0.0,0.0,0.0,0.0,0.0,0.0,0.0,0.0,0.0,0.0,0.0,0.0,0.0,0.0,0.0,0.0,0.0,0.0,0.0,0.0,0.0,0.0,0.0,0.0,0.0,0.0,0.0,2.0039,2.0039,2.0039,2.0039,2.0039,2.0039,2.0039,2.0039,2.0039,2.0039,2.0039,2.0039,2.0039,2.0039,2.0039,2.0039,2.0039,2.005,2.0115,1.9877,2.0224,2.0289,2.0387,2.0813,2.0924,2.0658,2.0691,2.0735,2.0756,2.0756,2.0756,2.0756,2.0756,2.0756,2.0756,2.0756,2.0756,2.0756,2.0756,2.0756,2.0756,2.0756,2.0756,2.0756,2.0756,2.0756,2.0767,2.0789,2.08,2.0832,2.0207,1.2998,0.0,0.0,0.0,0.0,0.0,0.0,0.0,0.0,0.0,0.0,0.0,0.0,0.0,0.0,0.0,0.0,0.0,0.0,0.0,0.0,0.0,0.0,0.0,0.0,0.0,0.0,0.0,0.0,0.0,0.0,0.0,0.0,0.0,0.0,0.0,0.0,0.0,0.0,0.0,0.0,0.0,0.0,0.0,0.0,0.0,0.0,0.0,0.0,0.0,0.0,0.0,0.0,0.0,0.0,0.0,0.0,0.0,0.0,0.0,0.0,0.0,0.0,0.0]}]]